<?xml version="1.0" encoding="UTF-8" standalone="no" ?>
<gpx xmlns="http://www.topografix.com/GPX/1/1" xmlns:xsi="http://www.w3.org/2001/XMLSchema-instance" xsi:schemaLocation="http://www.topografix.com/GPX/1/1 http://www.topografix.com/GPX/1/1/gpx.xsd" version="1.1" creator="VisuGPX - https://www.visugpx.com">
  <metadata>
    <name>GR69 : Sortie longue du 1er nov 2011</name>
    <desc><![CDATA[GR69 : Sortie longue du 1er nov 2011]]></desc>
  </metadata>
  <trk>
    <name><![CDATA[2011-11-01T08:10:59Z]]></name>
    <trkseg>
      <trkpt lat="45.84164" lon="4.79751">
        <ele>597.9</ele>
        <time>2011-11-01T08:10:59Z</time>
      </trkpt>
      <trkpt lat="45.84165" lon="4.79749">
        <ele>707</ele>
        <time>2011-11-01T08:11:00Z</time>
      </trkpt>
      <trkpt lat="45.84167" lon="4.79746">
        <ele>706.6</ele>
        <time>2011-11-01T08:11:02Z</time>
      </trkpt>
      <trkpt lat="45.84171" lon="4.79747">
        <ele>706.4</ele>
        <time>2011-11-01T08:11:04Z</time>
      </trkpt>
      <trkpt lat="45.84177" lon="4.79748">
        <ele>706</ele>
        <time>2011-11-01T08:11:06Z</time>
      </trkpt>
      <trkpt lat="45.84186" lon="4.79754">
        <ele>705</ele>
        <time>2011-11-01T08:11:11Z</time>
      </trkpt>
      <trkpt lat="45.84198" lon="4.7976">
        <ele>703.6</ele>
        <time>2011-11-01T08:11:16Z</time>
      </trkpt>
      <trkpt lat="45.84204" lon="4.79762">
        <ele>702.8</ele>
        <time>2011-11-01T08:11:19Z</time>
      </trkpt>
      <trkpt lat="45.84205" lon="4.79763">
        <ele>702.6</ele>
        <time>2011-11-01T08:11:20Z</time>
      </trkpt>
      <trkpt lat="45.84212" lon="4.79771">
        <ele>701.4</ele>
        <time>2011-11-01T08:11:24Z</time>
      </trkpt>
      <trkpt lat="45.84224" lon="4.79779">
        <ele>700.2</ele>
        <time>2011-11-01T08:11:28Z</time>
      </trkpt>
      <trkpt lat="45.8423" lon="4.79784">
        <ele>699.4</ele>
        <time>2011-11-01T08:11:30Z</time>
      </trkpt>
      <trkpt lat="45.84238" lon="4.79792">
        <ele>698.2</ele>
        <time>2011-11-01T08:11:33Z</time>
      </trkpt>
      <trkpt lat="45.84243" lon="4.79798">
        <ele>697.4</ele>
        <time>2011-11-01T08:11:35Z</time>
      </trkpt>
      <trkpt lat="45.84248" lon="4.79803">
        <ele>696.6</ele>
        <time>2011-11-01T08:11:37Z</time>
      </trkpt>
      <trkpt lat="45.84257" lon="4.79815">
        <ele>695</ele>
        <time>2011-11-01T08:11:41Z</time>
      </trkpt>
      <trkpt lat="45.8426" lon="4.79818">
        <ele>694.6</ele>
        <time>2011-11-01T08:11:42Z</time>
      </trkpt>
      <trkpt lat="45.84268" lon="4.79828">
        <ele>693</ele>
        <time>2011-11-01T08:11:46Z</time>
      </trkpt>
      <trkpt lat="45.84279" lon="4.79839">
        <ele>690.8</ele>
        <time>2011-11-01T08:11:51Z</time>
      </trkpt>
      <trkpt lat="45.84292" lon="4.7985">
        <ele>688.6</ele>
        <time>2011-11-01T08:11:56Z</time>
      </trkpt>
      <trkpt lat="45.84294" lon="4.79853">
        <ele>688.2</ele>
        <time>2011-11-01T08:11:57Z</time>
      </trkpt>
      <trkpt lat="45.84306" lon="4.79864">
        <ele>686</ele>
        <time>2011-11-01T08:12:02Z</time>
      </trkpt>
      <trkpt lat="45.8432" lon="4.7988">
        <ele>683.6</ele>
        <time>2011-11-01T08:12:08Z</time>
      </trkpt>
      <trkpt lat="45.84322" lon="4.79882">
        <ele>683</ele>
        <time>2011-11-01T08:12:09Z</time>
      </trkpt>
      <trkpt lat="45.84327" lon="4.79891">
        <ele>681.6</ele>
        <time>2011-11-01T08:12:12Z</time>
      </trkpt>
      <trkpt lat="45.84342" lon="4.79912">
        <ele>678</ele>
        <time>2011-11-01T08:12:19Z</time>
      </trkpt>
      <trkpt lat="45.84346" lon="4.79923">
        <ele>676.4</ele>
        <time>2011-11-01T08:12:22Z</time>
      </trkpt>
      <trkpt lat="45.84347" lon="4.79926">
        <ele>676</ele>
        <time>2011-11-01T08:12:23Z</time>
      </trkpt>
      <trkpt lat="45.8435" lon="4.7993">
        <ele>674.8</ele>
        <time>2011-11-01T08:12:25Z</time>
      </trkpt>
      <trkpt lat="45.84353" lon="4.79931">
        <ele>673.6</ele>
        <time>2011-11-01T08:12:27Z</time>
      </trkpt>
      <trkpt lat="45.84357" lon="4.79935">
        <ele>672.4</ele>
        <time>2011-11-01T08:12:29Z</time>
      </trkpt>
      <trkpt lat="45.84361" lon="4.79939">
        <ele>671.4</ele>
        <time>2011-11-01T08:12:31Z</time>
      </trkpt>
      <trkpt lat="45.84369" lon="4.79951">
        <ele>668.2</ele>
        <time>2011-11-01T08:12:36Z</time>
      </trkpt>
      <trkpt lat="45.84374" lon="4.79958">
        <ele>666.4</ele>
        <time>2011-11-01T08:12:39Z</time>
      </trkpt>
      <trkpt lat="45.84375" lon="4.79961">
        <ele>665.8</ele>
        <time>2011-11-01T08:12:40Z</time>
      </trkpt>
      <trkpt lat="45.84377" lon="4.79973">
        <ele>663.4</ele>
        <time>2011-11-01T08:12:44Z</time>
      </trkpt>
      <trkpt lat="45.84377" lon="4.79976">
        <ele>662.8</ele>
        <time>2011-11-01T08:12:45Z</time>
      </trkpt>
      <trkpt lat="45.84378" lon="4.79989">
        <ele>659.8</ele>
        <time>2011-11-01T08:12:50Z</time>
      </trkpt>
      <trkpt lat="45.84379" lon="4.80008">
        <ele>656</ele>
        <time>2011-11-01T08:12:57Z</time>
      </trkpt>
      <trkpt lat="45.8438" lon="4.8001">
        <ele>654.8</ele>
        <time>2011-11-01T08:12:59Z</time>
      </trkpt>
      <trkpt lat="45.84382" lon="4.80012">
        <ele>654.2</ele>
        <time>2011-11-01T08:13:00Z</time>
      </trkpt>
      <trkpt lat="45.84384" lon="4.80016">
        <ele>653.2</ele>
        <time>2011-11-01T08:13:02Z</time>
      </trkpt>
      <trkpt lat="45.84387" lon="4.80019">
        <ele>651.4</ele>
        <time>2011-11-01T08:13:05Z</time>
      </trkpt>
      <trkpt lat="45.84389" lon="4.80021">
        <ele>650.2</ele>
        <time>2011-11-01T08:13:07Z</time>
      </trkpt>
      <trkpt lat="45.8439" lon="4.80021">
        <ele>649.6</ele>
        <time>2011-11-01T08:13:08Z</time>
      </trkpt>
      <trkpt lat="45.84394" lon="4.80019">
        <ele>647.6</ele>
        <time>2011-11-01T08:13:11Z</time>
      </trkpt>
      <trkpt lat="45.84401" lon="4.80019">
        <ele>644.6</ele>
        <time>2011-11-01T08:13:16Z</time>
      </trkpt>
      <trkpt lat="45.84409" lon="4.80018">
        <ele>641.8</ele>
        <time>2011-11-01T08:13:20Z</time>
      </trkpt>
      <trkpt lat="45.84413" lon="4.80027">
        <ele>639.8</ele>
        <time>2011-11-01T08:13:23Z</time>
      </trkpt>
      <trkpt lat="45.84421" lon="4.80039">
        <ele>636.4</ele>
        <time>2011-11-01T08:13:28Z</time>
      </trkpt>
      <trkpt lat="45.84427" lon="4.80046">
        <ele>634.4</ele>
        <time>2011-11-01T08:13:31Z</time>
      </trkpt>
      <trkpt lat="45.84428" lon="4.80049">
        <ele>633.8</ele>
        <time>2011-11-01T08:13:32Z</time>
      </trkpt>
      <trkpt lat="45.84436" lon="4.80057">
        <ele>630.4</ele>
        <time>2011-11-01T08:13:37Z</time>
      </trkpt>
      <trkpt lat="45.84438" lon="4.80061">
        <ele>629.2</ele>
        <time>2011-11-01T08:13:39Z</time>
      </trkpt>
      <trkpt lat="45.8444" lon="4.80065">
        <ele>627.8</ele>
        <time>2011-11-01T08:13:41Z</time>
      </trkpt>
      <trkpt lat="45.84448" lon="4.80081">
        <ele>624</ele>
        <time>2011-11-01T08:13:47Z</time>
      </trkpt>
      <trkpt lat="45.84452" lon="4.80093">
        <ele>621.4</ele>
        <time>2011-11-01T08:13:51Z</time>
      </trkpt>
      <trkpt lat="45.84459" lon="4.80101">
        <ele>619</ele>
        <time>2011-11-01T08:13:55Z</time>
      </trkpt>
      <trkpt lat="45.84464" lon="4.80097">
        <ele>617</ele>
        <time>2011-11-01T08:13:58Z</time>
      </trkpt>
      <trkpt lat="45.84466" lon="4.80095">
        <ele>616.2</ele>
        <time>2011-11-01T08:13:59Z</time>
      </trkpt>
      <trkpt lat="45.84466" lon="4.80093">
        <ele>615.6</ele>
        <time>2011-11-01T08:14:00Z</time>
      </trkpt>
      <trkpt lat="45.84472" lon="4.80085">
        <ele>613</ele>
        <time>2011-11-01T08:14:04Z</time>
      </trkpt>
      <trkpt lat="45.84481" lon="4.80072">
        <ele>609.6</ele>
        <time>2011-11-01T08:14:10Z</time>
      </trkpt>
      <trkpt lat="45.84481" lon="4.80055">
        <ele>606.6</ele>
        <time>2011-11-01T08:14:16Z</time>
      </trkpt>
      <trkpt lat="45.84481" lon="4.8004">
        <ele>604.4</ele>
        <time>2011-11-01T08:14:21Z</time>
      </trkpt>
      <trkpt lat="45.84478" lon="4.80026">
        <ele>602.2</ele>
        <time>2011-11-01T08:14:26Z</time>
      </trkpt>
      <trkpt lat="45.84479" lon="4.80017">
        <ele>600.8</ele>
        <time>2011-11-01T08:14:30Z</time>
      </trkpt>
      <trkpt lat="45.84479" lon="4.80016">
        <ele>600.4</ele>
        <time>2011-11-01T08:14:31Z</time>
      </trkpt>
      <trkpt lat="45.84478" lon="4.80012">
        <ele>599.8</ele>
        <time>2011-11-01T08:14:33Z</time>
      </trkpt>
      <trkpt lat="45.84477" lon="4.80008">
        <ele>599.2</ele>
        <time>2011-11-01T08:14:35Z</time>
      </trkpt>
      <trkpt lat="45.84474" lon="4.80003">
        <ele>598.6</ele>
        <time>2011-11-01T08:14:37Z</time>
      </trkpt>
      <trkpt lat="45.84473" lon="4.79998">
        <ele>598</ele>
        <time>2011-11-01T08:14:39Z</time>
      </trkpt>
      <trkpt lat="45.84473" lon="4.79994">
        <ele>597.4</ele>
        <time>2011-11-01T08:14:41Z</time>
      </trkpt>
      <trkpt lat="45.84472" lon="4.79991">
        <ele>596.8</ele>
        <time>2011-11-01T08:14:43Z</time>
      </trkpt>
      <trkpt lat="45.84472" lon="4.79989">
        <ele>596.4</ele>
        <time>2011-11-01T08:14:44Z</time>
      </trkpt>
      <trkpt lat="45.8447" lon="4.79985">
        <ele>595.8</ele>
        <time>2011-11-01T08:14:46Z</time>
      </trkpt>
      <trkpt lat="45.84469" lon="4.79973">
        <ele>594.2</ele>
        <time>2011-11-01T08:14:51Z</time>
      </trkpt>
      <trkpt lat="45.84471" lon="4.79972">
        <ele>592.4</ele>
        <time>2011-11-01T08:14:56Z</time>
      </trkpt>
      <trkpt lat="45.84472" lon="4.79971">
        <ele>592</ele>
        <time>2011-11-01T08:14:57Z</time>
      </trkpt>
      <trkpt lat="45.84472" lon="4.79968">
        <ele>591.2</ele>
        <time>2011-11-01T08:14:59Z</time>
      </trkpt>
      <trkpt lat="45.84471" lon="4.79966">
        <ele>590.8</ele>
        <time>2011-11-01T08:15:00Z</time>
      </trkpt>
      <trkpt lat="45.8447" lon="4.79957">
        <ele>589.6</ele>
        <time>2011-11-01T08:15:03Z</time>
      </trkpt>
      <trkpt lat="45.8447" lon="4.79954">
        <ele>588.8</ele>
        <time>2011-11-01T08:15:05Z</time>
      </trkpt>
      <trkpt lat="45.84468" lon="4.7995">
        <ele>588</ele>
        <time>2011-11-01T08:15:07Z</time>
      </trkpt>
      <trkpt lat="45.84468" lon="4.79948">
        <ele>585.4</ele>
        <time>2011-11-01T08:15:14Z</time>
      </trkpt>
      <trkpt lat="45.8447" lon="4.79943">
        <ele>580</ele>
        <time>2011-11-01T08:15:30Z</time>
      </trkpt>
      <trkpt lat="45.84467" lon="4.79938">
        <ele>579</ele>
        <time>2011-11-01T08:15:33Z</time>
      </trkpt>
      <trkpt lat="45.84466" lon="4.79936">
        <ele>578.8</ele>
        <time>2011-11-01T08:15:34Z</time>
      </trkpt>
      <trkpt lat="45.84458" lon="4.79927">
        <ele>577.4</ele>
        <time>2011-11-01T08:15:39Z</time>
      </trkpt>
      <trkpt lat="45.84451" lon="4.79918">
        <ele>576.4</ele>
        <time>2011-11-01T08:15:44Z</time>
      </trkpt>
      <trkpt lat="45.84445" lon="4.79909">
        <ele>575.6</ele>
        <time>2011-11-01T08:15:48Z</time>
      </trkpt>
      <trkpt lat="45.8444" lon="4.79898">
        <ele>575.2</ele>
        <time>2011-11-01T08:15:52Z</time>
      </trkpt>
      <trkpt lat="45.84435" lon="4.79891">
        <ele>574.6</ele>
        <time>2011-11-01T08:15:56Z</time>
      </trkpt>
      <trkpt lat="45.84432" lon="4.79888">
        <ele>574.4</ele>
        <time>2011-11-01T08:15:58Z</time>
      </trkpt>
      <trkpt lat="45.84425" lon="4.79881">
        <ele>574</ele>
        <time>2011-11-01T08:16:01Z</time>
      </trkpt>
      <trkpt lat="45.84417" lon="4.79875">
        <ele>573.6</ele>
        <time>2011-11-01T08:16:05Z</time>
      </trkpt>
      <trkpt lat="45.84412" lon="4.7986">
        <ele>573.2</ele>
        <time>2011-11-01T08:16:10Z</time>
      </trkpt>
      <trkpt lat="45.84411" lon="4.79846">
        <ele>572.6</ele>
        <time>2011-11-01T08:16:15Z</time>
      </trkpt>
      <trkpt lat="45.84409" lon="4.7984">
        <ele>572.2</ele>
        <time>2011-11-01T08:16:17Z</time>
      </trkpt>
      <trkpt lat="45.84409" lon="4.79836">
        <ele>572.2</ele>
        <time>2011-11-01T08:16:18Z</time>
      </trkpt>
      <trkpt lat="45.84409" lon="4.79833">
        <ele>572</ele>
        <time>2011-11-01T08:16:19Z</time>
      </trkpt>
      <trkpt lat="45.84406" lon="4.79822">
        <ele>571.6</ele>
        <time>2011-11-01T08:16:22Z</time>
      </trkpt>
      <trkpt lat="45.84406" lon="4.7982">
        <ele>571.4</ele>
        <time>2011-11-01T08:16:23Z</time>
      </trkpt>
      <trkpt lat="45.84402" lon="4.79805">
        <ele>570.6</ele>
        <time>2011-11-01T08:16:28Z</time>
      </trkpt>
      <trkpt lat="45.84401" lon="4.798">
        <ele>570.4</ele>
        <time>2011-11-01T08:16:30Z</time>
      </trkpt>
      <trkpt lat="45.84403" lon="4.79789">
        <ele>569.6</ele>
        <time>2011-11-01T08:16:34Z</time>
      </trkpt>
      <trkpt lat="45.84402" lon="4.79781">
        <ele>569</ele>
        <time>2011-11-01T08:16:36Z</time>
      </trkpt>
      <trkpt lat="45.84401" lon="4.7977">
        <ele>568.2</ele>
        <time>2011-11-01T08:16:39Z</time>
      </trkpt>
      <trkpt lat="45.84402" lon="4.79762">
        <ele>567.6</ele>
        <time>2011-11-01T08:16:41Z</time>
      </trkpt>
      <trkpt lat="45.84403" lon="4.79739">
        <ele>565.6</ele>
        <time>2011-11-01T08:16:47Z</time>
      </trkpt>
      <trkpt lat="45.84403" lon="4.79734">
        <ele>565.4</ele>
        <time>2011-11-01T08:16:48Z</time>
      </trkpt>
      <trkpt lat="45.84403" lon="4.79714">
        <ele>563.8</ele>
        <time>2011-11-01T08:16:53Z</time>
      </trkpt>
      <trkpt lat="45.84402" lon="4.79695">
        <ele>562.2</ele>
        <time>2011-11-01T08:16:58Z</time>
      </trkpt>
      <trkpt lat="45.84401" lon="4.7968">
        <ele>560.8</ele>
        <time>2011-11-01T08:17:02Z</time>
      </trkpt>
      <trkpt lat="45.84401" lon="4.79676">
        <ele>560.6</ele>
        <time>2011-11-01T08:17:03Z</time>
      </trkpt>
      <trkpt lat="45.84403" lon="4.79658">
        <ele>559</ele>
        <time>2011-11-01T08:17:08Z</time>
      </trkpt>
      <trkpt lat="45.84406" lon="4.79635">
        <ele>557</ele>
        <time>2011-11-01T08:17:14Z</time>
      </trkpt>
      <trkpt lat="45.84407" lon="4.79628">
        <ele>556.4</ele>
        <time>2011-11-01T08:17:16Z</time>
      </trkpt>
      <trkpt lat="45.84408" lon="4.79616">
        <ele>555.6</ele>
        <time>2011-11-01T08:17:19Z</time>
      </trkpt>
      <trkpt lat="45.84407" lon="4.79602">
        <ele>554</ele>
        <time>2011-11-01T08:17:24Z</time>
      </trkpt>
      <trkpt lat="45.84406" lon="4.796">
        <ele>553.8</ele>
        <time>2011-11-01T08:17:25Z</time>
      </trkpt>
      <trkpt lat="45.84405" lon="4.79592">
        <ele>553</ele>
        <time>2011-11-01T08:17:28Z</time>
      </trkpt>
      <trkpt lat="45.84406" lon="4.7959">
        <ele>552.6</ele>
        <time>2011-11-01T08:17:29Z</time>
      </trkpt>
      <trkpt lat="45.84407" lon="4.79574">
        <ele>551.2</ele>
        <time>2011-11-01T08:17:34Z</time>
      </trkpt>
      <trkpt lat="45.84409" lon="4.79568">
        <ele>550.6</ele>
        <time>2011-11-01T08:17:36Z</time>
      </trkpt>
      <trkpt lat="45.84413" lon="4.7955">
        <ele>549.2</ele>
        <time>2011-11-01T08:17:41Z</time>
      </trkpt>
      <trkpt lat="45.84418" lon="4.7953">
        <ele>547.2</ele>
        <time>2011-11-01T08:17:47Z</time>
      </trkpt>
      <trkpt lat="45.84419" lon="4.79524">
        <ele>546.6</ele>
        <time>2011-11-01T08:17:49Z</time>
      </trkpt>
      <trkpt lat="45.84422" lon="4.79507">
        <ele>545</ele>
        <time>2011-11-01T08:17:54Z</time>
      </trkpt>
      <trkpt lat="45.84426" lon="4.79491">
        <ele>543.6</ele>
        <time>2011-11-01T08:17:59Z</time>
      </trkpt>
      <trkpt lat="45.84427" lon="4.79487">
        <ele>543.2</ele>
        <time>2011-11-01T08:18:00Z</time>
      </trkpt>
      <trkpt lat="45.84432" lon="4.79474">
        <ele>542</ele>
        <time>2011-11-01T08:18:04Z</time>
      </trkpt>
      <trkpt lat="45.84433" lon="4.7947">
        <ele>541.8</ele>
        <time>2011-11-01T08:18:05Z</time>
      </trkpt>
      <trkpt lat="45.84441" lon="4.7945">
        <ele>540</ele>
        <time>2011-11-01T08:18:11Z</time>
      </trkpt>
      <trkpt lat="45.84448" lon="4.79434">
        <ele>538.6</ele>
        <time>2011-11-01T08:18:16Z</time>
      </trkpt>
      <trkpt lat="45.8445" lon="4.79428">
        <ele>538</ele>
        <time>2011-11-01T08:18:18Z</time>
      </trkpt>
      <trkpt lat="45.84451" lon="4.79418">
        <ele>537.4</ele>
        <time>2011-11-01T08:18:21Z</time>
      </trkpt>
      <trkpt lat="45.84454" lon="4.79404">
        <ele>536</ele>
        <time>2011-11-01T08:18:26Z</time>
      </trkpt>
      <trkpt lat="45.84454" lon="4.79399">
        <ele>535.4</ele>
        <time>2011-11-01T08:18:29Z</time>
      </trkpt>
      <trkpt lat="45.84453" lon="4.79394">
        <ele>534.8</ele>
        <time>2011-11-01T08:18:31Z</time>
      </trkpt>
      <trkpt lat="45.84452" lon="4.79386">
        <ele>534.4</ele>
        <time>2011-11-01T08:18:34Z</time>
      </trkpt>
      <trkpt lat="45.84448" lon="4.79382">
        <ele>533.6</ele>
        <time>2011-11-01T08:18:39Z</time>
      </trkpt>
      <trkpt lat="45.84444" lon="4.79379">
        <ele>533</ele>
        <time>2011-11-01T08:18:42Z</time>
      </trkpt>
      <trkpt lat="45.84438" lon="4.79376">
        <ele>532.4</ele>
        <time>2011-11-01T08:18:46Z</time>
      </trkpt>
      <trkpt lat="45.84426" lon="4.79365">
        <ele>531.2</ele>
        <time>2011-11-01T08:18:54Z</time>
      </trkpt>
      <trkpt lat="45.84418" lon="4.79361">
        <ele>530.4</ele>
        <time>2011-11-01T08:19:00Z</time>
      </trkpt>
      <trkpt lat="45.84411" lon="4.79357">
        <ele>529.6</ele>
        <time>2011-11-01T08:19:05Z</time>
      </trkpt>
      <trkpt lat="45.84403" lon="4.79352">
        <ele>529</ele>
        <time>2011-11-01T08:19:09Z</time>
      </trkpt>
      <trkpt lat="45.84394" lon="4.79344">
        <ele>528.2</ele>
        <time>2011-11-01T08:19:14Z</time>
      </trkpt>
      <trkpt lat="45.84384" lon="4.79335">
        <ele>527.4</ele>
        <time>2011-11-01T08:19:20Z</time>
      </trkpt>
      <trkpt lat="45.84378" lon="4.79331">
        <ele>527</ele>
        <time>2011-11-01T08:19:23Z</time>
      </trkpt>
      <trkpt lat="45.8437" lon="4.79326">
        <ele>526.6</ele>
        <time>2011-11-01T08:19:27Z</time>
      </trkpt>
      <trkpt lat="45.84359" lon="4.79321">
        <ele>526</ele>
        <time>2011-11-01T08:19:33Z</time>
      </trkpt>
      <trkpt lat="45.84345" lon="4.7932">
        <ele>525.4</ele>
        <time>2011-11-01T08:19:40Z</time>
      </trkpt>
      <trkpt lat="45.84343" lon="4.7932">
        <ele>525.4</ele>
        <time>2011-11-01T08:19:41Z</time>
      </trkpt>
      <trkpt lat="45.84333" lon="4.79322">
        <ele>525.2</ele>
        <time>2011-11-01T08:19:46Z</time>
      </trkpt>
      <trkpt lat="45.84321" lon="4.79325">
        <ele>524.8</ele>
        <time>2011-11-01T08:19:52Z</time>
      </trkpt>
      <trkpt lat="45.8431" lon="4.79328">
        <ele>524.6</ele>
        <time>2011-11-01T08:19:57Z</time>
      </trkpt>
      <trkpt lat="45.84308" lon="4.79329">
        <ele>524.6</ele>
        <time>2011-11-01T08:19:58Z</time>
      </trkpt>
      <trkpt lat="45.84299" lon="4.79334">
        <ele>524.6</ele>
        <time>2011-11-01T08:20:02Z</time>
      </trkpt>
      <trkpt lat="45.84288" lon="4.79334">
        <ele>524.4</ele>
        <time>2011-11-01T08:20:07Z</time>
      </trkpt>
      <trkpt lat="45.84276" lon="4.79332">
        <ele>524.4</ele>
        <time>2011-11-01T08:20:12Z</time>
      </trkpt>
      <trkpt lat="45.84271" lon="4.79332">
        <ele>524.2</ele>
        <time>2011-11-01T08:20:14Z</time>
      </trkpt>
      <trkpt lat="45.8426" lon="4.79329">
        <ele>524.2</ele>
        <time>2011-11-01T08:20:19Z</time>
      </trkpt>
      <trkpt lat="45.84247" lon="4.79331">
        <ele>523.8</ele>
        <time>2011-11-01T08:20:26Z</time>
      </trkpt>
      <trkpt lat="45.84236" lon="4.79329">
        <ele>523.8</ele>
        <time>2011-11-01T08:20:31Z</time>
      </trkpt>
      <trkpt lat="45.84234" lon="4.79328">
        <ele>523.8</ele>
        <time>2011-11-01T08:20:32Z</time>
      </trkpt>
      <trkpt lat="45.8423" lon="4.79325">
        <ele>523.8</ele>
        <time>2011-11-01T08:20:34Z</time>
      </trkpt>
      <trkpt lat="45.84227" lon="4.79319">
        <ele>523.8</ele>
        <time>2011-11-01T08:20:36Z</time>
      </trkpt>
      <trkpt lat="45.84226" lon="4.79306">
        <ele>524.2</ele>
        <time>2011-11-01T08:20:40Z</time>
      </trkpt>
      <trkpt lat="45.84231" lon="4.79293">
        <ele>525.2</ele>
        <time>2011-11-01T08:20:45Z</time>
      </trkpt>
      <trkpt lat="45.84233" lon="4.79281">
        <ele>526.2</ele>
        <time>2011-11-01T08:20:49Z</time>
      </trkpt>
      <trkpt lat="45.84234" lon="4.79278">
        <ele>526.4</ele>
        <time>2011-11-01T08:20:50Z</time>
      </trkpt>
      <trkpt lat="45.84231" lon="4.7926">
        <ele>528.2</ele>
        <time>2011-11-01T08:20:56Z</time>
      </trkpt>
      <trkpt lat="45.84226" lon="4.79247">
        <ele>529.8</ele>
        <time>2011-11-01T08:21:01Z</time>
      </trkpt>
      <trkpt lat="45.84219" lon="4.79235">
        <ele>531.4</ele>
        <time>2011-11-01T08:21:05Z</time>
      </trkpt>
      <trkpt lat="45.84216" lon="4.7923">
        <ele>532.2</ele>
        <time>2011-11-01T08:21:07Z</time>
      </trkpt>
      <trkpt lat="45.84208" lon="4.79217">
        <ele>534</ele>
        <time>2011-11-01T08:21:13Z</time>
      </trkpt>
      <trkpt lat="45.84197" lon="4.79201">
        <ele>536.4</ele>
        <time>2011-11-01T08:21:21Z</time>
      </trkpt>
      <trkpt lat="45.84193" lon="4.79195">
        <ele>537.2</ele>
        <time>2011-11-01T08:21:24Z</time>
      </trkpt>
      <trkpt lat="45.84186" lon="4.79184">
        <ele>538.2</ele>
        <time>2011-11-01T08:21:29Z</time>
      </trkpt>
      <trkpt lat="45.84176" lon="4.79169">
        <ele>539</ele>
        <time>2011-11-01T08:21:36Z</time>
      </trkpt>
      <trkpt lat="45.8417" lon="4.79156">
        <ele>540</ele>
        <time>2011-11-01T08:21:41Z</time>
      </trkpt>
      <trkpt lat="45.84169" lon="4.7915">
        <ele>540</ele>
        <time>2011-11-01T08:21:45Z</time>
      </trkpt>
      <trkpt lat="45.84164" lon="4.79141">
        <ele>540.4</ele>
        <time>2011-11-01T08:21:52Z</time>
      </trkpt>
      <trkpt lat="45.84163" lon="4.79139">
        <ele>540.4</ele>
        <time>2011-11-01T08:21:54Z</time>
      </trkpt>
      <trkpt lat="45.8416" lon="4.79133">
        <ele>540.4</ele>
        <time>2011-11-01T08:21:58Z</time>
      </trkpt>
      <trkpt lat="45.8416" lon="4.79123">
        <ele>540.8</ele>
        <time>2011-11-01T08:22:05Z</time>
      </trkpt>
      <trkpt lat="45.8416" lon="4.79114">
        <ele>541.4</ele>
        <time>2011-11-01T08:22:11Z</time>
      </trkpt>
      <trkpt lat="45.8416" lon="4.79107">
        <ele>542.4</ele>
        <time>2011-11-01T08:22:16Z</time>
      </trkpt>
      <trkpt lat="45.8416" lon="4.79103">
        <ele>542.6</ele>
        <time>2011-11-01T08:22:18Z</time>
      </trkpt>
      <trkpt lat="45.8416" lon="4.79102">
        <ele>542.8</ele>
        <time>2011-11-01T08:22:19Z</time>
      </trkpt>
      <trkpt lat="45.84161" lon="4.79095">
        <ele>543.2</ele>
        <time>2011-11-01T08:22:23Z</time>
      </trkpt>
      <trkpt lat="45.84163" lon="4.79084">
        <ele>544</ele>
        <time>2011-11-01T08:22:30Z</time>
      </trkpt>
      <trkpt lat="45.84165" lon="4.79076">
        <ele>544.6</ele>
        <time>2011-11-01T08:22:35Z</time>
      </trkpt>
      <trkpt lat="45.84165" lon="4.79074">
        <ele>544.8</ele>
        <time>2011-11-01T08:22:36Z</time>
      </trkpt>
      <trkpt lat="45.84167" lon="4.79066">
        <ele>545.4</ele>
        <time>2011-11-01T08:22:42Z</time>
      </trkpt>
      <trkpt lat="45.84167" lon="4.79056">
        <ele>546.4</ele>
        <time>2011-11-01T08:22:47Z</time>
      </trkpt>
      <trkpt lat="45.84168" lon="4.79051">
        <ele>546.8</ele>
        <time>2011-11-01T08:22:50Z</time>
      </trkpt>
      <trkpt lat="45.8417" lon="4.79041">
        <ele>548.2</ele>
        <time>2011-11-01T08:22:57Z</time>
      </trkpt>
      <trkpt lat="45.8417" lon="4.79028">
        <ele>549.8</ele>
        <time>2011-11-01T08:23:05Z</time>
      </trkpt>
      <trkpt lat="45.8417" lon="4.79027">
        <ele>549.8</ele>
        <time>2011-11-01T08:23:06Z</time>
      </trkpt>
      <trkpt lat="45.84171" lon="4.79019">
        <ele>550.8</ele>
        <time>2011-11-01T08:23:11Z</time>
      </trkpt>
      <trkpt lat="45.84173" lon="4.79007">
        <ele>552</ele>
        <time>2011-11-01T08:23:18Z</time>
      </trkpt>
      <trkpt lat="45.84174" lon="4.79003">
        <ele>552.2</ele>
        <time>2011-11-01T08:23:20Z</time>
      </trkpt>
      <trkpt lat="45.84174" lon="4.78998">
        <ele>553.2</ele>
        <time>2011-11-01T08:23:24Z</time>
      </trkpt>
      <trkpt lat="45.84176" lon="4.78988">
        <ele>554.6</ele>
        <time>2011-11-01T08:23:29Z</time>
      </trkpt>
      <trkpt lat="45.84177" lon="4.78985">
        <ele>555</ele>
        <time>2011-11-01T08:23:31Z</time>
      </trkpt>
      <trkpt lat="45.84179" lon="4.78977">
        <ele>556.2</ele>
        <time>2011-11-01T08:23:35Z</time>
      </trkpt>
      <trkpt lat="45.84183" lon="4.78964">
        <ele>558</ele>
        <time>2011-11-01T08:23:43Z</time>
      </trkpt>
      <trkpt lat="45.84185" lon="4.78952">
        <ele>559.6</ele>
        <time>2011-11-01T08:23:49Z</time>
      </trkpt>
      <trkpt lat="45.84191" lon="4.78939">
        <ele>561.6</ele>
        <time>2011-11-01T08:23:57Z</time>
      </trkpt>
      <trkpt lat="45.842" lon="4.7893">
        <ele>562.8</ele>
        <time>2011-11-01T08:24:02Z</time>
      </trkpt>
      <trkpt lat="45.84211" lon="4.78928">
        <ele>563.8</ele>
        <time>2011-11-01T08:24:07Z</time>
      </trkpt>
      <trkpt lat="45.84213" lon="4.78929">
        <ele>563.8</ele>
        <time>2011-11-01T08:24:08Z</time>
      </trkpt>
      <trkpt lat="45.84216" lon="4.78932">
        <ele>563.8</ele>
        <time>2011-11-01T08:24:09Z</time>
      </trkpt>
      <trkpt lat="45.8422" lon="4.78936">
        <ele>563.8</ele>
        <time>2011-11-01T08:24:11Z</time>
      </trkpt>
      <trkpt lat="45.84228" lon="4.78942">
        <ele>563.6</ele>
        <time>2011-11-01T08:24:14Z</time>
      </trkpt>
      <trkpt lat="45.84234" lon="4.78948">
        <ele>563.6</ele>
        <time>2011-11-01T08:24:17Z</time>
      </trkpt>
      <trkpt lat="45.84242" lon="4.78958">
        <ele>563.2</ele>
        <time>2011-11-01T08:24:22Z</time>
      </trkpt>
      <trkpt lat="45.84244" lon="4.7896">
        <ele>563.2</ele>
        <time>2011-11-01T08:24:23Z</time>
      </trkpt>
      <trkpt lat="45.84245" lon="4.78963">
        <ele>563</ele>
        <time>2011-11-01T08:24:24Z</time>
      </trkpt>
      <trkpt lat="45.84249" lon="4.78967">
        <ele>563</ele>
        <time>2011-11-01T08:24:26Z</time>
      </trkpt>
      <trkpt lat="45.84262" lon="4.78976">
        <ele>562.8</ele>
        <time>2011-11-01T08:24:32Z</time>
      </trkpt>
      <trkpt lat="45.84268" lon="4.78985">
        <ele>562.6</ele>
        <time>2011-11-01T08:24:36Z</time>
      </trkpt>
      <trkpt lat="45.84268" lon="4.78987">
        <ele>562.4</ele>
        <time>2011-11-01T08:24:37Z</time>
      </trkpt>
      <trkpt lat="45.84271" lon="4.7899">
        <ele>562.4</ele>
        <time>2011-11-01T08:24:39Z</time>
      </trkpt>
      <trkpt lat="45.84274" lon="4.78993">
        <ele>562.4</ele>
        <time>2011-11-01T08:24:41Z</time>
      </trkpt>
      <trkpt lat="45.84279" lon="4.78999">
        <ele>562</ele>
        <time>2011-11-01T08:24:45Z</time>
      </trkpt>
      <trkpt lat="45.84288" lon="4.79002">
        <ele>561.8</ele>
        <time>2011-11-01T08:24:50Z</time>
      </trkpt>
      <trkpt lat="45.84297" lon="4.78996">
        <ele>561.4</ele>
        <time>2011-11-01T08:24:56Z</time>
      </trkpt>
      <trkpt lat="45.84303" lon="4.78989">
        <ele>561</ele>
        <time>2011-11-01T08:25:01Z</time>
      </trkpt>
      <trkpt lat="45.84304" lon="4.78988">
        <ele>561</ele>
        <time>2011-11-01T08:25:02Z</time>
      </trkpt>
      <trkpt lat="45.84305" lon="4.78986">
        <ele>561</ele>
        <time>2011-11-01T08:25:03Z</time>
      </trkpt>
      <trkpt lat="45.84308" lon="4.78984">
        <ele>560.8</ele>
        <time>2011-11-01T08:25:05Z</time>
      </trkpt>
      <trkpt lat="45.8431" lon="4.78975">
        <ele>560.6</ele>
        <time>2011-11-01T08:25:09Z</time>
      </trkpt>
      <trkpt lat="45.84309" lon="4.78964">
        <ele>560.6</ele>
        <time>2011-11-01T08:25:14Z</time>
      </trkpt>
      <trkpt lat="45.84309" lon="4.78962">
        <ele>560.6</ele>
        <time>2011-11-01T08:25:15Z</time>
      </trkpt>
      <trkpt lat="45.84311" lon="4.78955">
        <ele>560.6</ele>
        <time>2011-11-01T08:25:18Z</time>
      </trkpt>
      <trkpt lat="45.84308" lon="4.78949">
        <ele>560.8</ele>
        <time>2011-11-01T08:25:20Z</time>
      </trkpt>
      <trkpt lat="45.84306" lon="4.78944">
        <ele>560.8</ele>
        <time>2011-11-01T08:25:22Z</time>
      </trkpt>
      <trkpt lat="45.84304" lon="4.78938">
        <ele>561</ele>
        <time>2011-11-01T08:25:24Z</time>
      </trkpt>
      <trkpt lat="45.84303" lon="4.78927">
        <ele>561.8</ele>
        <time>2011-11-01T08:25:28Z</time>
      </trkpt>
      <trkpt lat="45.84305" lon="4.78911">
        <ele>562.6</ele>
        <time>2011-11-01T08:25:33Z</time>
      </trkpt>
      <trkpt lat="45.84305" lon="4.78901">
        <ele>563.2</ele>
        <time>2011-11-01T08:25:36Z</time>
      </trkpt>
      <trkpt lat="45.84304" lon="4.78899">
        <ele>563.2</ele>
        <time>2011-11-01T08:25:37Z</time>
      </trkpt>
      <trkpt lat="45.84307" lon="4.78885">
        <ele>563.4</ele>
        <time>2011-11-01T08:25:42Z</time>
      </trkpt>
      <trkpt lat="45.84315" lon="4.78876">
        <ele>563</ele>
        <time>2011-11-01T08:25:47Z</time>
      </trkpt>
      <trkpt lat="45.84319" lon="4.78876">
        <ele>562.4</ele>
        <time>2011-11-01T08:25:51Z</time>
      </trkpt>
      <trkpt lat="45.84322" lon="4.78878">
        <ele>562.2</ele>
        <time>2011-11-01T08:25:53Z</time>
      </trkpt>
      <trkpt lat="45.84326" lon="4.78888">
        <ele>561</ele>
        <time>2011-11-01T08:25:58Z</time>
      </trkpt>
      <trkpt lat="45.84331" lon="4.78892">
        <ele>559.2</ele>
        <time>2011-11-01T08:26:05Z</time>
      </trkpt>
      <trkpt lat="45.84332" lon="4.78893">
        <ele>558.8</ele>
        <time>2011-11-01T08:26:06Z</time>
      </trkpt>
      <trkpt lat="45.84333" lon="4.789">
        <ele>557.8</ele>
        <time>2011-11-01T08:26:09Z</time>
      </trkpt>
      <trkpt lat="45.84332" lon="4.78904">
        <ele>557.2</ele>
        <time>2011-11-01T08:26:11Z</time>
      </trkpt>
      <trkpt lat="45.84332" lon="4.78906">
        <ele>557</ele>
        <time>2011-11-01T08:26:12Z</time>
      </trkpt>
      <trkpt lat="45.84334" lon="4.78908">
        <ele>556.2</ele>
        <time>2011-11-01T08:26:14Z</time>
      </trkpt>
      <trkpt lat="45.84339" lon="4.78913">
        <ele>554.6</ele>
        <time>2011-11-01T08:26:19Z</time>
      </trkpt>
      <trkpt lat="45.84348" lon="4.78922">
        <ele>553</ele>
        <time>2011-11-01T08:26:24Z</time>
      </trkpt>
      <trkpt lat="45.84353" lon="4.78928">
        <ele>552</ele>
        <time>2011-11-01T08:26:28Z</time>
      </trkpt>
      <trkpt lat="45.8436" lon="4.78935">
        <ele>551</ele>
        <time>2011-11-01T08:26:32Z</time>
      </trkpt>
      <trkpt lat="45.84367" lon="4.78938">
        <ele>550.2</ele>
        <time>2011-11-01T08:26:37Z</time>
      </trkpt>
      <trkpt lat="45.84371" lon="4.7894">
        <ele>549.8</ele>
        <time>2011-11-01T08:26:39Z</time>
      </trkpt>
      <trkpt lat="45.8437" lon="4.78941">
        <ele>549.4</ele>
        <time>2011-11-01T08:26:41Z</time>
      </trkpt>
      <trkpt lat="45.84371" lon="4.78944">
        <ele>549</ele>
        <time>2011-11-01T08:26:43Z</time>
      </trkpt>
      <trkpt lat="45.84386" lon="4.78953">
        <ele>548.6</ele>
        <time>2011-11-01T08:26:47Z</time>
      </trkpt>
      <trkpt lat="45.84397" lon="4.78958">
        <ele>548.8</ele>
        <time>2011-11-01T08:26:49Z</time>
      </trkpt>
      <trkpt lat="45.84406" lon="4.78965">
        <ele>548.6</ele>
        <time>2011-11-01T08:26:52Z</time>
      </trkpt>
      <trkpt lat="45.84415" lon="4.78973">
        <ele>548.6</ele>
        <time>2011-11-01T08:26:56Z</time>
      </trkpt>
      <trkpt lat="45.84416" lon="4.78975">
        <ele>548.4</ele>
        <time>2011-11-01T08:26:57Z</time>
      </trkpt>
      <trkpt lat="45.84421" lon="4.78979">
        <ele>548</ele>
        <time>2011-11-01T08:27:02Z</time>
      </trkpt>
      <trkpt lat="45.84423" lon="4.78982">
        <ele>547.8</ele>
        <time>2011-11-01T08:27:05Z</time>
      </trkpt>
      <trkpt lat="45.84425" lon="4.78983">
        <ele>547.6</ele>
        <time>2011-11-01T08:27:07Z</time>
      </trkpt>
      <trkpt lat="45.84429" lon="4.78986">
        <ele>547.2</ele>
        <time>2011-11-01T08:27:09Z</time>
      </trkpt>
      <trkpt lat="45.84431" lon="4.78989">
        <ele>547</ele>
        <time>2011-11-01T08:27:10Z</time>
      </trkpt>
      <trkpt lat="45.84433" lon="4.78993">
        <ele>546.8</ele>
        <time>2011-11-01T08:27:12Z</time>
      </trkpt>
      <trkpt lat="45.84434" lon="4.78995">
        <ele>546.6</ele>
        <time>2011-11-01T08:27:13Z</time>
      </trkpt>
      <trkpt lat="45.84436" lon="4.79">
        <ele>546.2</ele>
        <time>2011-11-01T08:27:16Z</time>
      </trkpt>
      <trkpt lat="45.8444" lon="4.79007">
        <ele>545.8</ele>
        <time>2011-11-01T08:27:20Z</time>
      </trkpt>
      <trkpt lat="45.84441" lon="4.79009">
        <ele>545.6</ele>
        <time>2011-11-01T08:27:21Z</time>
      </trkpt>
      <trkpt lat="45.84448" lon="4.79021">
        <ele>544.4</ele>
        <time>2011-11-01T08:27:27Z</time>
      </trkpt>
      <trkpt lat="45.84453" lon="4.79031">
        <ele>544</ele>
        <time>2011-11-01T08:27:30Z</time>
      </trkpt>
      <trkpt lat="45.84457" lon="4.79037">
        <ele>543.6</ele>
        <time>2011-11-01T08:27:32Z</time>
      </trkpt>
      <trkpt lat="45.84464" lon="4.79051">
        <ele>542.8</ele>
        <time>2011-11-01T08:27:37Z</time>
      </trkpt>
      <trkpt lat="45.84476" lon="4.79065">
        <ele>542</ele>
        <time>2011-11-01T08:27:42Z</time>
      </trkpt>
      <trkpt lat="45.8448" lon="4.7907">
        <ele>541.8</ele>
        <time>2011-11-01T08:27:44Z</time>
      </trkpt>
      <trkpt lat="45.8449" lon="4.7908">
        <ele>541.2</ele>
        <time>2011-11-01T08:27:48Z</time>
      </trkpt>
      <trkpt lat="45.84503" lon="4.79092">
        <ele>541</ele>
        <time>2011-11-01T08:27:53Z</time>
      </trkpt>
      <trkpt lat="45.84512" lon="4.79099">
        <ele>540.8</ele>
        <time>2011-11-01T08:27:57Z</time>
      </trkpt>
      <trkpt lat="45.84515" lon="4.791">
        <ele>540.8</ele>
        <time>2011-11-01T08:27:58Z</time>
      </trkpt>
      <trkpt lat="45.84528" lon="4.79108">
        <ele>540.8</ele>
        <time>2011-11-01T08:28:03Z</time>
      </trkpt>
      <trkpt lat="45.84534" lon="4.79117">
        <ele>540.2</ele>
        <time>2011-11-01T08:28:08Z</time>
      </trkpt>
      <trkpt lat="45.84535" lon="4.79119">
        <ele>540.2</ele>
        <time>2011-11-01T08:28:09Z</time>
      </trkpt>
      <trkpt lat="45.84543" lon="4.79125">
        <ele>540.2</ele>
        <time>2011-11-01T08:28:13Z</time>
      </trkpt>
      <trkpt lat="45.84546" lon="4.79132">
        <ele>540</ele>
        <time>2011-11-01T08:28:17Z</time>
      </trkpt>
      <trkpt lat="45.84547" lon="4.79134">
        <ele>539.8</ele>
        <time>2011-11-01T08:28:18Z</time>
      </trkpt>
      <trkpt lat="45.84554" lon="4.79142">
        <ele>539.4</ele>
        <time>2011-11-01T08:28:23Z</time>
      </trkpt>
      <trkpt lat="45.84556" lon="4.79144">
        <ele>539</ele>
        <time>2011-11-01T08:28:27Z</time>
      </trkpt>
      <trkpt lat="45.84565" lon="4.79145">
        <ele>538.2</ele>
        <time>2011-11-01T08:28:33Z</time>
      </trkpt>
      <trkpt lat="45.84573" lon="4.79152">
        <ele>537.6</ele>
        <time>2011-11-01T08:28:37Z</time>
      </trkpt>
      <trkpt lat="45.84575" lon="4.79154">
        <ele>537.6</ele>
        <time>2011-11-01T08:28:38Z</time>
      </trkpt>
      <trkpt lat="45.84584" lon="4.7916">
        <ele>536.4</ele>
        <time>2011-11-01T08:28:44Z</time>
      </trkpt>
      <trkpt lat="45.84591" lon="4.79152">
        <ele>535.2</ele>
        <time>2011-11-01T08:28:51Z</time>
      </trkpt>
      <trkpt lat="45.84599" lon="4.79138">
        <ele>534</ele>
        <time>2011-11-01T08:28:57Z</time>
      </trkpt>
      <trkpt lat="45.84601" lon="4.79137">
        <ele>534</ele>
        <time>2011-11-01T08:28:58Z</time>
      </trkpt>
      <trkpt lat="45.84603" lon="4.79137">
        <ele>533.6</ele>
        <time>2011-11-01T08:28:59Z</time>
      </trkpt>
      <trkpt lat="45.84606" lon="4.7914">
        <ele>533.2</ele>
        <time>2011-11-01T08:29:01Z</time>
      </trkpt>
      <trkpt lat="45.84614" lon="4.79153">
        <ele>532.2</ele>
        <time>2011-11-01T08:29:06Z</time>
      </trkpt>
      <trkpt lat="45.84621" lon="4.79166">
        <ele>531</ele>
        <time>2011-11-01T08:29:11Z</time>
      </trkpt>
      <trkpt lat="45.84624" lon="4.79172">
        <ele>530</ele>
        <time>2011-11-01T08:29:14Z</time>
      </trkpt>
      <trkpt lat="45.84627" lon="4.79176">
        <ele>529.6</ele>
        <time>2011-11-01T08:29:16Z</time>
      </trkpt>
      <trkpt lat="45.84634" lon="4.79185">
        <ele>528.6</ele>
        <time>2011-11-01T08:29:20Z</time>
      </trkpt>
      <trkpt lat="45.84635" lon="4.79187">
        <ele>528.2</ele>
        <time>2011-11-01T08:29:21Z</time>
      </trkpt>
      <trkpt lat="45.84637" lon="4.79186">
        <ele>527.2</ele>
        <time>2011-11-01T08:29:25Z</time>
      </trkpt>
      <trkpt lat="45.8464" lon="4.79176">
        <ele>526</ele>
        <time>2011-11-01T08:29:31Z</time>
      </trkpt>
      <trkpt lat="45.84639" lon="4.79171">
        <ele>525.8</ele>
        <time>2011-11-01T08:29:33Z</time>
      </trkpt>
      <trkpt lat="45.84639" lon="4.79167">
        <ele>525.4</ele>
        <time>2011-11-01T08:29:35Z</time>
      </trkpt>
      <trkpt lat="45.84639" lon="4.79156">
        <ele>524.8</ele>
        <time>2011-11-01T08:29:40Z</time>
      </trkpt>
      <trkpt lat="45.84638" lon="4.79153">
        <ele>524.6</ele>
        <time>2011-11-01T08:29:41Z</time>
      </trkpt>
      <trkpt lat="45.84637" lon="4.79148">
        <ele>524.4</ele>
        <time>2011-11-01T08:29:43Z</time>
      </trkpt>
      <trkpt lat="45.84638" lon="4.79145">
        <ele>524.2</ele>
        <time>2011-11-01T08:29:45Z</time>
      </trkpt>
      <trkpt lat="45.84637" lon="4.79134">
        <ele>522.8</ele>
        <time>2011-11-01T08:29:58Z</time>
      </trkpt>
      <trkpt lat="45.84636" lon="4.79127">
        <ele>521.4</ele>
        <time>2011-11-01T08:30:24Z</time>
      </trkpt>
      <trkpt lat="45.84639" lon="4.79129">
        <ele>520.4</ele>
        <time>2011-11-01T08:30:32Z</time>
      </trkpt>
      <trkpt lat="45.84642" lon="4.79125">
        <ele>520.2</ele>
        <time>2011-11-01T08:30:35Z</time>
      </trkpt>
      <trkpt lat="45.84649" lon="4.79117">
        <ele>519.6</ele>
        <time>2011-11-01T08:30:40Z</time>
      </trkpt>
      <trkpt lat="45.84656" lon="4.79103">
        <ele>518.8</ele>
        <time>2011-11-01T08:30:46Z</time>
      </trkpt>
      <trkpt lat="45.84662" lon="4.79092">
        <ele>518.4</ele>
        <time>2011-11-01T08:30:51Z</time>
      </trkpt>
      <trkpt lat="45.84661" lon="4.79077">
        <ele>518</ele>
        <time>2011-11-01T08:30:55Z</time>
      </trkpt>
      <trkpt lat="45.8466" lon="4.79072">
        <ele>517.6</ele>
        <time>2011-11-01T08:30:57Z</time>
      </trkpt>
      <trkpt lat="45.84662" lon="4.7906">
        <ele>517.2</ele>
        <time>2011-11-01T08:31:01Z</time>
      </trkpt>
      <trkpt lat="45.84672" lon="4.79062">
        <ele>516.4</ele>
        <time>2011-11-01T08:31:04Z</time>
      </trkpt>
      <trkpt lat="45.84675" lon="4.79063">
        <ele>516.4</ele>
        <time>2011-11-01T08:31:05Z</time>
      </trkpt>
      <trkpt lat="45.84685" lon="4.79063">
        <ele>515.6</ele>
        <time>2011-11-01T08:31:09Z</time>
      </trkpt>
      <trkpt lat="45.84689" lon="4.7906">
        <ele>515</ele>
        <time>2011-11-01T08:31:11Z</time>
      </trkpt>
      <trkpt lat="45.84695" lon="4.79056">
        <ele>514.4</ele>
        <time>2011-11-01T08:31:14Z</time>
      </trkpt>
      <trkpt lat="45.84703" lon="4.7905">
        <ele>513.4</ele>
        <time>2011-11-01T08:31:18Z</time>
      </trkpt>
      <trkpt lat="45.84707" lon="4.79043">
        <ele>512.4</ele>
        <time>2011-11-01T08:31:23Z</time>
      </trkpt>
      <trkpt lat="45.84714" lon="4.79035">
        <ele>511.4</ele>
        <time>2011-11-01T08:31:28Z</time>
      </trkpt>
      <trkpt lat="45.84716" lon="4.79026">
        <ele>510.4</ele>
        <time>2011-11-01T08:31:33Z</time>
      </trkpt>
      <trkpt lat="45.84719" lon="4.79016">
        <ele>509.8</ele>
        <time>2011-11-01T08:31:38Z</time>
      </trkpt>
      <trkpt lat="45.84722" lon="4.7901">
        <ele>509.2</ele>
        <time>2011-11-01T08:31:42Z</time>
      </trkpt>
      <trkpt lat="45.84726" lon="4.79001">
        <ele>508.6</ele>
        <time>2011-11-01T08:31:46Z</time>
      </trkpt>
      <trkpt lat="45.84731" lon="4.78994">
        <ele>507.8</ele>
        <time>2011-11-01T08:31:50Z</time>
      </trkpt>
      <trkpt lat="45.8473" lon="4.78989">
        <ele>507.4</ele>
        <time>2011-11-01T08:31:52Z</time>
      </trkpt>
      <trkpt lat="45.84728" lon="4.78981">
        <ele>506.8</ele>
        <time>2011-11-01T08:31:55Z</time>
      </trkpt>
      <trkpt lat="45.84727" lon="4.78975">
        <ele>506.2</ele>
        <time>2011-11-01T08:31:58Z</time>
      </trkpt>
      <trkpt lat="45.84727" lon="4.78973">
        <ele>505.8</ele>
        <time>2011-11-01T08:31:59Z</time>
      </trkpt>
      <trkpt lat="45.84728" lon="4.78962">
        <ele>504.8</ele>
        <time>2011-11-01T08:32:03Z</time>
      </trkpt>
      <trkpt lat="45.84727" lon="4.78959">
        <ele>504.4</ele>
        <time>2011-11-01T08:32:04Z</time>
      </trkpt>
      <trkpt lat="45.84728" lon="4.78942">
        <ele>502.8</ele>
        <time>2011-11-01T08:32:09Z</time>
      </trkpt>
      <trkpt lat="45.84736" lon="4.78932">
        <ele>501.6</ele>
        <time>2011-11-01T08:32:13Z</time>
      </trkpt>
      <trkpt lat="45.8474" lon="4.7893">
        <ele>501.2</ele>
        <time>2011-11-01T08:32:14Z</time>
      </trkpt>
      <trkpt lat="45.84747" lon="4.78921">
        <ele>500.2</ele>
        <time>2011-11-01T08:32:17Z</time>
      </trkpt>
      <trkpt lat="45.84753" lon="4.78915">
        <ele>499.2</ele>
        <time>2011-11-01T08:32:20Z</time>
      </trkpt>
      <trkpt lat="45.84755" lon="4.78912">
        <ele>498.4</ele>
        <time>2011-11-01T08:32:22Z</time>
      </trkpt>
      <trkpt lat="45.84754" lon="4.78907">
        <ele>497.2</ele>
        <time>2011-11-01T08:32:25Z</time>
      </trkpt>
      <trkpt lat="45.8475" lon="4.78902">
        <ele>495.6</ele>
        <time>2011-11-01T08:32:29Z</time>
      </trkpt>
      <trkpt lat="45.84748" lon="4.78899">
        <ele>495</ele>
        <time>2011-11-01T08:32:31Z</time>
      </trkpt>
      <trkpt lat="45.84748" lon="4.78898">
        <ele>494.6</ele>
        <time>2011-11-01T08:32:32Z</time>
      </trkpt>
      <trkpt lat="45.8474" lon="4.7889">
        <ele>492.8</ele>
        <time>2011-11-01T08:32:37Z</time>
      </trkpt>
      <trkpt lat="45.84729" lon="4.78884">
        <ele>490.8</ele>
        <time>2011-11-01T08:32:43Z</time>
      </trkpt>
      <trkpt lat="45.84721" lon="4.78878">
        <ele>489.6</ele>
        <time>2011-11-01T08:32:47Z</time>
      </trkpt>
      <trkpt lat="45.84714" lon="4.78876">
        <ele>488.8</ele>
        <time>2011-11-01T08:32:50Z</time>
      </trkpt>
      <trkpt lat="45.8471" lon="4.78876">
        <ele>488.4</ele>
        <time>2011-11-01T08:32:52Z</time>
      </trkpt>
      <trkpt lat="45.84699" lon="4.78871">
        <ele>487.2</ele>
        <time>2011-11-01T08:32:57Z</time>
      </trkpt>
      <trkpt lat="45.84688" lon="4.78865">
        <ele>486</ele>
        <time>2011-11-01T08:33:03Z</time>
      </trkpt>
      <trkpt lat="45.8468" lon="4.78858">
        <ele>485</ele>
        <time>2011-11-01T08:33:08Z</time>
      </trkpt>
      <trkpt lat="45.84679" lon="4.78857">
        <ele>484.8</ele>
        <time>2011-11-01T08:33:09Z</time>
      </trkpt>
      <trkpt lat="45.8467" lon="4.78846">
        <ele>483.6</ele>
        <time>2011-11-01T08:33:15Z</time>
      </trkpt>
      <trkpt lat="45.84662" lon="4.78835">
        <ele>482.6</ele>
        <time>2011-11-01T08:33:21Z</time>
      </trkpt>
      <trkpt lat="45.84653" lon="4.78825">
        <ele>481.6</ele>
        <time>2011-11-01T08:33:28Z</time>
      </trkpt>
      <trkpt lat="45.84652" lon="4.78822">
        <ele>481.4</ele>
        <time>2011-11-01T08:33:29Z</time>
      </trkpt>
      <trkpt lat="45.84647" lon="4.78812">
        <ele>481</ele>
        <time>2011-11-01T08:33:34Z</time>
      </trkpt>
      <trkpt lat="45.84642" lon="4.78807">
        <ele>480.6</ele>
        <time>2011-11-01T08:33:39Z</time>
      </trkpt>
      <trkpt lat="45.84634" lon="4.78798">
        <ele>480.2</ele>
        <time>2011-11-01T08:33:44Z</time>
      </trkpt>
      <trkpt lat="45.84631" lon="4.78791">
        <ele>480.2</ele>
        <time>2011-11-01T08:33:47Z</time>
      </trkpt>
      <trkpt lat="45.84629" lon="4.78788">
        <ele>480</ele>
        <time>2011-11-01T08:33:49Z</time>
      </trkpt>
      <trkpt lat="45.84628" lon="4.78786">
        <ele>480</ele>
        <time>2011-11-01T08:33:50Z</time>
      </trkpt>
      <trkpt lat="45.84627" lon="4.78784">
        <ele>480</ele>
        <time>2011-11-01T08:33:51Z</time>
      </trkpt>
      <trkpt lat="45.84626" lon="4.78778">
        <ele>480.2</ele>
        <time>2011-11-01T08:33:53Z</time>
      </trkpt>
      <trkpt lat="45.84623" lon="4.78762">
        <ele>480.8</ele>
        <time>2011-11-01T08:33:59Z</time>
      </trkpt>
      <trkpt lat="45.84623" lon="4.78755">
        <ele>481.2</ele>
        <time>2011-11-01T08:34:01Z</time>
      </trkpt>
      <trkpt lat="45.84622" lon="4.78748">
        <ele>481.4</ele>
        <time>2011-11-01T08:34:03Z</time>
      </trkpt>
      <trkpt lat="45.84618" lon="4.78731">
        <ele>482.4</ele>
        <time>2011-11-01T08:34:09Z</time>
      </trkpt>
      <trkpt lat="45.84614" lon="4.7872">
        <ele>483.2</ele>
        <time>2011-11-01T08:34:13Z</time>
      </trkpt>
      <trkpt lat="45.84606" lon="4.78715">
        <ele>484.4</ele>
        <time>2011-11-01T08:34:18Z</time>
      </trkpt>
      <trkpt lat="45.84601" lon="4.78716">
        <ele>486</ele>
        <time>2011-11-01T08:34:24Z</time>
      </trkpt>
      <trkpt lat="45.84602" lon="4.78712">
        <ele>487.4</ele>
        <time>2011-11-01T08:34:31Z</time>
      </trkpt>
      <trkpt lat="45.84602" lon="4.78711">
        <ele>488.2</ele>
        <time>2011-11-01T08:34:39Z</time>
      </trkpt>
      <trkpt lat="45.84596" lon="4.78706">
        <ele>488.8</ele>
        <time>2011-11-01T08:34:47Z</time>
      </trkpt>
      <trkpt lat="45.84593" lon="4.78707">
        <ele>489.4</ele>
        <time>2011-11-01T08:34:49Z</time>
      </trkpt>
      <trkpt lat="45.84591" lon="4.78703">
        <ele>490.2</ele>
        <time>2011-11-01T08:34:53Z</time>
      </trkpt>
      <trkpt lat="45.84586" lon="4.78701">
        <ele>491.8</ele>
        <time>2011-11-01T08:35:00Z</time>
      </trkpt>
      <trkpt lat="45.84577" lon="4.78694">
        <ele>493.2</ele>
        <time>2011-11-01T08:35:08Z</time>
      </trkpt>
      <trkpt lat="45.84569" lon="4.78685">
        <ele>494.2</ele>
        <time>2011-11-01T08:35:14Z</time>
      </trkpt>
      <trkpt lat="45.84566" lon="4.78681">
        <ele>494.8</ele>
        <time>2011-11-01T08:35:16Z</time>
      </trkpt>
      <trkpt lat="45.84563" lon="4.78678">
        <ele>495.2</ele>
        <time>2011-11-01T08:35:19Z</time>
      </trkpt>
      <trkpt lat="45.84554" lon="4.78669">
        <ele>496.2</ele>
        <time>2011-11-01T08:35:24Z</time>
      </trkpt>
      <trkpt lat="45.84545" lon="4.7866">
        <ele>496.6</ele>
        <time>2011-11-01T08:35:29Z</time>
      </trkpt>
      <trkpt lat="45.84536" lon="4.78646">
        <ele>497.6</ele>
        <time>2011-11-01T08:35:35Z</time>
      </trkpt>
      <trkpt lat="45.84534" lon="4.78643">
        <ele>497.8</ele>
        <time>2011-11-01T08:35:36Z</time>
      </trkpt>
      <trkpt lat="45.84531" lon="4.78639">
        <ele>498.4</ele>
        <time>2011-11-01T08:35:38Z</time>
      </trkpt>
      <trkpt lat="45.84527" lon="4.78631">
        <ele>499.2</ele>
        <time>2011-11-01T08:35:41Z</time>
      </trkpt>
      <trkpt lat="45.84525" lon="4.78629">
        <ele>499.4</ele>
        <time>2011-11-01T08:35:42Z</time>
      </trkpt>
      <trkpt lat="45.8452" lon="4.78623">
        <ele>499.8</ele>
        <time>2011-11-01T08:35:45Z</time>
      </trkpt>
      <trkpt lat="45.84512" lon="4.78607">
        <ele>500.4</ele>
        <time>2011-11-01T08:35:51Z</time>
      </trkpt>
      <trkpt lat="45.84511" lon="4.78603">
        <ele>500.8</ele>
        <time>2011-11-01T08:35:53Z</time>
      </trkpt>
      <trkpt lat="45.84507" lon="4.78599">
        <ele>501.4</ele>
        <time>2011-11-01T08:35:56Z</time>
      </trkpt>
      <trkpt lat="45.84499" lon="4.78585">
        <ele>502.6</ele>
        <time>2011-11-01T08:36:01Z</time>
      </trkpt>
      <trkpt lat="45.84489" lon="4.78575">
        <ele>504.2</ele>
        <time>2011-11-01T08:36:06Z</time>
      </trkpt>
      <trkpt lat="45.84483" lon="4.78569">
        <ele>505</ele>
        <time>2011-11-01T08:36:09Z</time>
      </trkpt>
      <trkpt lat="45.84481" lon="4.78567">
        <ele>505.4</ele>
        <time>2011-11-01T08:36:10Z</time>
      </trkpt>
      <trkpt lat="45.84474" lon="4.78552">
        <ele>507.4</ele>
        <time>2011-11-01T08:36:15Z</time>
      </trkpt>
      <trkpt lat="45.84473" lon="4.78549">
        <ele>507.6</ele>
        <time>2011-11-01T08:36:16Z</time>
      </trkpt>
      <trkpt lat="45.84468" lon="4.7854">
        <ele>508.4</ele>
        <time>2011-11-01T08:36:19Z</time>
      </trkpt>
      <trkpt lat="45.84461" lon="4.78529">
        <ele>510</ele>
        <time>2011-11-01T08:36:25Z</time>
      </trkpt>
      <trkpt lat="45.84454" lon="4.78517">
        <ele>511</ele>
        <time>2011-11-01T08:36:30Z</time>
      </trkpt>
      <trkpt lat="45.84448" lon="4.78502">
        <ele>511.8</ele>
        <time>2011-11-01T08:36:36Z</time>
      </trkpt>
      <trkpt lat="45.84444" lon="4.78495">
        <ele>512.6</ele>
        <time>2011-11-01T08:36:40Z</time>
      </trkpt>
      <trkpt lat="45.8444" lon="4.78487">
        <ele>513.4</ele>
        <time>2011-11-01T08:36:45Z</time>
      </trkpt>
      <trkpt lat="45.84438" lon="4.78485">
        <ele>513.6</ele>
        <time>2011-11-01T08:36:46Z</time>
      </trkpt>
      <trkpt lat="45.8443" lon="4.78475">
        <ele>514.2</ele>
        <time>2011-11-01T08:36:51Z</time>
      </trkpt>
      <trkpt lat="45.84424" lon="4.78467">
        <ele>514.8</ele>
        <time>2011-11-01T08:36:56Z</time>
      </trkpt>
      <trkpt lat="45.84415" lon="4.78458">
        <ele>515</ele>
        <time>2011-11-01T08:37:02Z</time>
      </trkpt>
      <trkpt lat="45.84412" lon="4.78455">
        <ele>515.4</ele>
        <time>2011-11-01T08:37:04Z</time>
      </trkpt>
      <trkpt lat="45.84408" lon="4.7845">
        <ele>515.4</ele>
        <time>2011-11-01T08:37:07Z</time>
      </trkpt>
      <trkpt lat="45.84402" lon="4.78443">
        <ele>515.4</ele>
        <time>2011-11-01T08:37:11Z</time>
      </trkpt>
      <trkpt lat="45.8439" lon="4.78432">
        <ele>515.6</ele>
        <time>2011-11-01T08:37:18Z</time>
      </trkpt>
      <trkpt lat="45.84383" lon="4.78423">
        <ele>515.6</ele>
        <time>2011-11-01T08:37:23Z</time>
      </trkpt>
      <trkpt lat="45.8438" lon="4.78417">
        <ele>515.6</ele>
        <time>2011-11-01T08:37:25Z</time>
      </trkpt>
      <trkpt lat="45.84371" lon="4.78413">
        <ele>516.4</ele>
        <time>2011-11-01T08:37:29Z</time>
      </trkpt>
      <trkpt lat="45.8436" lon="4.78408">
        <ele>517.8</ele>
        <time>2011-11-01T08:37:35Z</time>
      </trkpt>
      <trkpt lat="45.84354" lon="4.78398">
        <ele>519</ele>
        <time>2011-11-01T08:37:40Z</time>
      </trkpt>
      <trkpt lat="45.84355" lon="4.78394">
        <ele>519.4</ele>
        <time>2011-11-01T08:37:42Z</time>
      </trkpt>
      <trkpt lat="45.84359" lon="4.78389">
        <ele>520.2</ele>
        <time>2011-11-01T08:37:45Z</time>
      </trkpt>
      <trkpt lat="45.84367" lon="4.78376">
        <ele>521.6</ele>
        <time>2011-11-01T08:37:52Z</time>
      </trkpt>
      <trkpt lat="45.84373" lon="4.78371">
        <ele>522.4</ele>
        <time>2011-11-01T08:37:57Z</time>
      </trkpt>
      <trkpt lat="45.84374" lon="4.7837">
        <ele>522.6</ele>
        <time>2011-11-01T08:37:58Z</time>
      </trkpt>
      <trkpt lat="45.84375" lon="4.78368">
        <ele>522.8</ele>
        <time>2011-11-01T08:37:59Z</time>
      </trkpt>
      <trkpt lat="45.84378" lon="4.78364">
        <ele>523.4</ele>
        <time>2011-11-01T08:38:04Z</time>
      </trkpt>
      <trkpt lat="45.84381" lon="4.78365">
        <ele>524.6</ele>
        <time>2011-11-01T08:38:09Z</time>
      </trkpt>
      <trkpt lat="45.84382" lon="4.78363">
        <ele>525</ele>
        <time>2011-11-01T08:38:11Z</time>
      </trkpt>
      <trkpt lat="45.84382" lon="4.78358">
        <ele>526.4</ele>
        <time>2011-11-01T08:38:16Z</time>
      </trkpt>
      <trkpt lat="45.84382" lon="4.78355">
        <ele>528.2</ele>
        <time>2011-11-01T08:38:21Z</time>
      </trkpt>
      <trkpt lat="45.84382" lon="4.78361">
        <ele>529.6</ele>
        <time>2011-11-01T08:38:25Z</time>
      </trkpt>
      <trkpt lat="45.8438" lon="4.78364">
        <ele>530</ele>
        <time>2011-11-01T08:38:27Z</time>
      </trkpt>
      <trkpt lat="45.84375" lon="4.78369">
        <ele>530.6</ele>
        <time>2011-11-01T08:38:30Z</time>
      </trkpt>
      <trkpt lat="45.84368" lon="4.78376">
        <ele>531.2</ele>
        <time>2011-11-01T08:38:34Z</time>
      </trkpt>
      <trkpt lat="45.84364" lon="4.78378">
        <ele>531.4</ele>
        <time>2011-11-01T08:38:36Z</time>
      </trkpt>
      <trkpt lat="45.84363" lon="4.78379">
        <ele>531.2</ele>
        <time>2011-11-01T08:38:37Z</time>
      </trkpt>
      <trkpt lat="45.84362" lon="4.78381">
        <ele>531.4</ele>
        <time>2011-11-01T08:38:38Z</time>
      </trkpt>
      <trkpt lat="45.84362" lon="4.78383">
        <ele>531.2</ele>
        <time>2011-11-01T08:38:39Z</time>
      </trkpt>
      <trkpt lat="45.84362" lon="4.7838">
        <ele>531.2</ele>
        <time>2011-11-01T08:38:42Z</time>
      </trkpt>
      <trkpt lat="45.84364" lon="4.78373">
        <ele>531</ele>
        <time>2011-11-01T08:38:47Z</time>
      </trkpt>
      <trkpt lat="45.84367" lon="4.7837">
        <ele>530.6</ele>
        <time>2011-11-01T08:38:52Z</time>
      </trkpt>
      <trkpt lat="45.84372" lon="4.78363">
        <ele>530.2</ele>
        <time>2011-11-01T08:38:59Z</time>
      </trkpt>
      <trkpt lat="45.84373" lon="4.78362">
        <ele>530.2</ele>
        <time>2011-11-01T08:39:00Z</time>
      </trkpt>
      <trkpt lat="45.84378" lon="4.78362">
        <ele>530.4</ele>
        <time>2011-11-01T08:39:04Z</time>
      </trkpt>
      <trkpt lat="45.84379" lon="4.78361">
        <ele>530.2</ele>
        <time>2011-11-01T08:39:09Z</time>
      </trkpt>
      <trkpt lat="45.8438" lon="4.78358">
        <ele>530.8</ele>
        <time>2011-11-01T08:39:14Z</time>
      </trkpt>
      <trkpt lat="45.84381" lon="4.78356">
        <ele>530.8</ele>
        <time>2011-11-01T08:39:15Z</time>
      </trkpt>
      <trkpt lat="45.84381" lon="4.78354">
        <ele>531</ele>
        <time>2011-11-01T08:39:18Z</time>
      </trkpt>
      <trkpt lat="45.84383" lon="4.78354">
        <ele>531.8</ele>
        <time>2011-11-01T08:39:24Z</time>
      </trkpt>
      <trkpt lat="45.84383" lon="4.78354">
        <ele>532</ele>
        <time>2011-11-01T08:39:25Z</time>
      </trkpt>
      <trkpt lat="45.8438" lon="4.78351">
        <ele>532.4</ele>
        <time>2011-11-01T08:39:29Z</time>
      </trkpt>
      <trkpt lat="45.84375" lon="4.78345">
        <ele>533.4</ele>
        <time>2011-11-01T08:39:34Z</time>
      </trkpt>
      <trkpt lat="45.84371" lon="4.78343">
        <ele>534</ele>
        <time>2011-11-01T08:39:38Z</time>
      </trkpt>
      <trkpt lat="45.84369" lon="4.78341">
        <ele>534.4</ele>
        <time>2011-11-01T08:39:40Z</time>
      </trkpt>
      <trkpt lat="45.84361" lon="4.78334">
        <ele>535.2</ele>
        <time>2011-11-01T08:39:45Z</time>
      </trkpt>
      <trkpt lat="45.84351" lon="4.78329">
        <ele>535.4</ele>
        <time>2011-11-01T08:39:50Z</time>
      </trkpt>
      <trkpt lat="45.84349" lon="4.78327">
        <ele>535.6</ele>
        <time>2011-11-01T08:39:51Z</time>
      </trkpt>
      <trkpt lat="45.8435" lon="4.78322">
        <ele>536.2</ele>
        <time>2011-11-01T08:39:55Z</time>
      </trkpt>
      <trkpt lat="45.84356" lon="4.78315">
        <ele>537.8</ele>
        <time>2011-11-01T08:40:01Z</time>
      </trkpt>
      <trkpt lat="45.8436" lon="4.78308">
        <ele>539.8</ele>
        <time>2011-11-01T08:40:07Z</time>
      </trkpt>
      <trkpt lat="45.84364" lon="4.78304">
        <ele>541.6</ele>
        <time>2011-11-01T08:40:11Z</time>
      </trkpt>
      <trkpt lat="45.84369" lon="4.78301">
        <ele>543.8</ele>
        <time>2011-11-01T08:40:16Z</time>
      </trkpt>
      <trkpt lat="45.84376" lon="4.78302">
        <ele>545.6</ele>
        <time>2011-11-01T08:40:20Z</time>
      </trkpt>
      <trkpt lat="45.8438" lon="4.78303">
        <ele>546.2</ele>
        <time>2011-11-01T08:40:22Z</time>
      </trkpt>
      <trkpt lat="45.8439" lon="4.78306">
        <ele>547.4</ele>
        <time>2011-11-01T08:40:28Z</time>
      </trkpt>
      <trkpt lat="45.84397" lon="4.78311">
        <ele>548</ele>
        <time>2011-11-01T08:40:32Z</time>
      </trkpt>
      <trkpt lat="45.8441" lon="4.78316">
        <ele>548.2</ele>
        <time>2011-11-01T08:40:38Z</time>
      </trkpt>
      <trkpt lat="45.84411" lon="4.78316">
        <ele>548.4</ele>
        <time>2011-11-01T08:40:39Z</time>
      </trkpt>
      <trkpt lat="45.84414" lon="4.78318">
        <ele>548.6</ele>
        <time>2011-11-01T08:40:42Z</time>
      </trkpt>
      <trkpt lat="45.84417" lon="4.78319">
        <ele>548.4</ele>
        <time>2011-11-01T08:40:44Z</time>
      </trkpt>
      <trkpt lat="45.8443" lon="4.7832">
        <ele>548.8</ele>
        <time>2011-11-01T08:40:50Z</time>
      </trkpt>
      <trkpt lat="45.84444" lon="4.78318">
        <ele>548.6</ele>
        <time>2011-11-01T08:40:56Z</time>
      </trkpt>
      <trkpt lat="45.8445" lon="4.78317">
        <ele>548.6</ele>
        <time>2011-11-01T08:40:58Z</time>
      </trkpt>
      <trkpt lat="45.84462" lon="4.78316">
        <ele>548.4</ele>
        <time>2011-11-01T08:41:03Z</time>
      </trkpt>
      <trkpt lat="45.84477" lon="4.78315">
        <ele>548.2</ele>
        <time>2011-11-01T08:41:09Z</time>
      </trkpt>
      <trkpt lat="45.84487" lon="4.78318">
        <ele>548.2</ele>
        <time>2011-11-01T08:41:12Z</time>
      </trkpt>
      <trkpt lat="45.84494" lon="4.7832">
        <ele>548.2</ele>
        <time>2011-11-01T08:41:15Z</time>
      </trkpt>
      <trkpt lat="45.84508" lon="4.78327">
        <ele>549</ele>
        <time>2011-11-01T08:41:21Z</time>
      </trkpt>
      <trkpt lat="45.8451" lon="4.78328">
        <ele>549.2</ele>
        <time>2011-11-01T08:41:22Z</time>
      </trkpt>
      <trkpt lat="45.84517" lon="4.78333">
        <ele>550.2</ele>
        <time>2011-11-01T08:41:26Z</time>
      </trkpt>
      <trkpt lat="45.84521" lon="4.78336">
        <ele>551</ele>
        <time>2011-11-01T08:41:28Z</time>
      </trkpt>
      <trkpt lat="45.84531" lon="4.7834">
        <ele>552</ele>
        <time>2011-11-01T08:41:31Z</time>
      </trkpt>
      <trkpt lat="45.84543" lon="4.78344">
        <ele>553.6</ele>
        <time>2011-11-01T08:41:36Z</time>
      </trkpt>
      <trkpt lat="45.84554" lon="4.78348">
        <ele>555.2</ele>
        <time>2011-11-01T08:41:41Z</time>
      </trkpt>
      <trkpt lat="45.84557" lon="4.78348">
        <ele>555.4</ele>
        <time>2011-11-01T08:41:42Z</time>
      </trkpt>
      <trkpt lat="45.84569" lon="4.7835">
        <ele>556.6</ele>
        <time>2011-11-01T08:41:47Z</time>
      </trkpt>
      <trkpt lat="45.84579" lon="4.78352">
        <ele>557.6</ele>
        <time>2011-11-01T08:41:54Z</time>
      </trkpt>
      <trkpt lat="45.84588" lon="4.78354">
        <ele>557.8</ele>
        <time>2011-11-01T08:41:59Z</time>
      </trkpt>
      <trkpt lat="45.84596" lon="4.78354">
        <ele>558</ele>
        <time>2011-11-01T08:42:01Z</time>
      </trkpt>
      <trkpt lat="45.84606" lon="4.78354">
        <ele>558.2</ele>
        <time>2011-11-01T08:42:03Z</time>
      </trkpt>
      <trkpt lat="45.84629" lon="4.78352">
        <ele>558.2</ele>
        <time>2011-11-01T08:42:09Z</time>
      </trkpt>
      <trkpt lat="45.84634" lon="4.7835">
        <ele>558.2</ele>
        <time>2011-11-01T08:42:11Z</time>
      </trkpt>
      <trkpt lat="45.84639" lon="4.78348">
        <ele>558.2</ele>
        <time>2011-11-01T08:42:13Z</time>
      </trkpt>
      <trkpt lat="45.84653" lon="4.78343">
        <ele>558.2</ele>
        <time>2011-11-01T08:42:18Z</time>
      </trkpt>
      <trkpt lat="45.84663" lon="4.78332">
        <ele>559</ele>
        <time>2011-11-01T08:42:23Z</time>
      </trkpt>
      <trkpt lat="45.84666" lon="4.78327">
        <ele>559.4</ele>
        <time>2011-11-01T08:42:25Z</time>
      </trkpt>
      <trkpt lat="45.84669" lon="4.78319">
        <ele>560.2</ele>
        <time>2011-11-01T08:42:28Z</time>
      </trkpt>
      <trkpt lat="45.84671" lon="4.7831">
        <ele>561.6</ele>
        <time>2011-11-01T08:42:32Z</time>
      </trkpt>
      <trkpt lat="45.84671" lon="4.78308">
        <ele>562</ele>
        <time>2011-11-01T08:42:33Z</time>
      </trkpt>
      <trkpt lat="45.84673" lon="4.78297">
        <ele>563</ele>
        <time>2011-11-01T08:42:37Z</time>
      </trkpt>
      <trkpt lat="45.84676" lon="4.78289">
        <ele>564.6</ele>
        <time>2011-11-01T08:42:42Z</time>
      </trkpt>
      <trkpt lat="45.84676" lon="4.78288">
        <ele>565</ele>
        <time>2011-11-01T08:42:43Z</time>
      </trkpt>
      <trkpt lat="45.84674" lon="4.78284">
        <ele>566</ele>
        <time>2011-11-01T08:42:45Z</time>
      </trkpt>
      <trkpt lat="45.84672" lon="4.78276">
        <ele>567</ele>
        <time>2011-11-01T08:42:48Z</time>
      </trkpt>
      <trkpt lat="45.84675" lon="4.78263">
        <ele>568.8</ele>
        <time>2011-11-01T08:42:54Z</time>
      </trkpt>
      <trkpt lat="45.84675" lon="4.78254">
        <ele>569.8</ele>
        <time>2011-11-01T08:42:58Z</time>
      </trkpt>
      <trkpt lat="45.84672" lon="4.78242">
        <ele>570.4</ele>
        <time>2011-11-01T08:43:03Z</time>
      </trkpt>
      <trkpt lat="45.84672" lon="4.78233">
        <ele>571.4</ele>
        <time>2011-11-01T08:43:07Z</time>
      </trkpt>
      <trkpt lat="45.84672" lon="4.78227">
        <ele>571.6</ele>
        <time>2011-11-01T08:43:09Z</time>
      </trkpt>
      <trkpt lat="45.84673" lon="4.78224">
        <ele>571.8</ele>
        <time>2011-11-01T08:43:10Z</time>
      </trkpt>
      <trkpt lat="45.84676" lon="4.78214">
        <ele>572.6</ele>
        <time>2011-11-01T08:43:14Z</time>
      </trkpt>
      <trkpt lat="45.84677" lon="4.78211">
        <ele>572.8</ele>
        <time>2011-11-01T08:43:15Z</time>
      </trkpt>
      <trkpt lat="45.84683" lon="4.78197">
        <ele>573</ele>
        <time>2011-11-01T08:43:20Z</time>
      </trkpt>
      <trkpt lat="45.84691" lon="4.78185">
        <ele>573.8</ele>
        <time>2011-11-01T08:43:27Z</time>
      </trkpt>
      <trkpt lat="45.8469" lon="4.7818">
        <ele>573.8</ele>
        <time>2011-11-01T08:43:29Z</time>
      </trkpt>
      <trkpt lat="45.84692" lon="4.78172">
        <ele>574.6</ele>
        <time>2011-11-01T08:43:33Z</time>
      </trkpt>
      <trkpt lat="45.84692" lon="4.78171">
        <ele>574.8</ele>
        <time>2011-11-01T08:43:34Z</time>
      </trkpt>
      <trkpt lat="45.84694" lon="4.78162">
        <ele>575</ele>
        <time>2011-11-01T08:43:38Z</time>
      </trkpt>
      <trkpt lat="45.84694" lon="4.78159">
        <ele>575.2</ele>
        <time>2011-11-01T08:43:39Z</time>
      </trkpt>
      <trkpt lat="45.84694" lon="4.78148">
        <ele>575.8</ele>
        <time>2011-11-01T08:43:43Z</time>
      </trkpt>
      <trkpt lat="45.84696" lon="4.78136">
        <ele>576.6</ele>
        <time>2011-11-01T08:43:47Z</time>
      </trkpt>
      <trkpt lat="45.84696" lon="4.78129">
        <ele>577</ele>
        <time>2011-11-01T08:43:50Z</time>
      </trkpt>
      <trkpt lat="45.84697" lon="4.78124">
        <ele>577.6</ele>
        <time>2011-11-01T08:43:52Z</time>
      </trkpt>
      <trkpt lat="45.84699" lon="4.78111">
        <ele>578.8</ele>
        <time>2011-11-01T08:43:57Z</time>
      </trkpt>
      <trkpt lat="45.84696" lon="4.781">
        <ele>580.4</ele>
        <time>2011-11-01T08:44:02Z</time>
      </trkpt>
      <trkpt lat="45.84696" lon="4.78091">
        <ele>581.6</ele>
        <time>2011-11-01T08:44:08Z</time>
      </trkpt>
      <trkpt lat="45.84694" lon="4.78082">
        <ele>583</ele>
        <time>2011-11-01T08:44:13Z</time>
      </trkpt>
      <trkpt lat="45.84694" lon="4.7808">
        <ele>583</ele>
        <time>2011-11-01T08:44:14Z</time>
      </trkpt>
      <trkpt lat="45.84695" lon="4.78076">
        <ele>583.4</ele>
        <time>2011-11-01T08:44:16Z</time>
      </trkpt>
      <trkpt lat="45.84696" lon="4.78074">
        <ele>583.6</ele>
        <time>2011-11-01T08:44:17Z</time>
      </trkpt>
      <trkpt lat="45.84696" lon="4.78066">
        <ele>583.8</ele>
        <time>2011-11-01T08:44:21Z</time>
      </trkpt>
      <trkpt lat="45.84693" lon="4.78059">
        <ele>583.8</ele>
        <time>2011-11-01T08:44:26Z</time>
      </trkpt>
      <trkpt lat="45.84689" lon="4.7805">
        <ele>583.8</ele>
        <time>2011-11-01T08:44:32Z</time>
      </trkpt>
      <trkpt lat="45.84688" lon="4.78038">
        <ele>583.4</ele>
        <time>2011-11-01T08:44:38Z</time>
      </trkpt>
      <trkpt lat="45.84687" lon="4.78034">
        <ele>584</ele>
        <time>2011-11-01T08:44:43Z</time>
      </trkpt>
      <trkpt lat="45.84688" lon="4.7803">
        <ele>585.2</ele>
        <time>2011-11-01T08:44:48Z</time>
      </trkpt>
      <trkpt lat="45.84692" lon="4.78029">
        <ele>586.4</ele>
        <time>2011-11-01T08:44:54Z</time>
      </trkpt>
      <trkpt lat="45.8469" lon="4.78033">
        <ele>588.6</ele>
        <time>2011-11-01T08:45:03Z</time>
      </trkpt>
      <trkpt lat="45.84688" lon="4.78035">
        <ele>589.2</ele>
        <time>2011-11-01T08:45:05Z</time>
      </trkpt>
      <trkpt lat="45.84688" lon="4.78035">
        <ele>589.6</ele>
        <time>2011-11-01T08:45:06Z</time>
      </trkpt>
      <trkpt lat="45.84685" lon="4.78037">
        <ele>591.2</ele>
        <time>2011-11-01T08:45:12Z</time>
      </trkpt>
      <trkpt lat="45.84683" lon="4.78039">
        <ele>592.4</ele>
        <time>2011-11-01T08:45:17Z</time>
      </trkpt>
      <trkpt lat="45.84683" lon="4.78043">
        <ele>593.2</ele>
        <time>2011-11-01T08:45:22Z</time>
      </trkpt>
      <trkpt lat="45.84692" lon="4.78048">
        <ele>598.2</ele>
        <time>2011-11-01T08:45:43Z</time>
      </trkpt>
      <trkpt lat="45.84688" lon="4.78045">
        <ele>598.8</ele>
        <time>2011-11-01T08:45:48Z</time>
      </trkpt>
      <trkpt lat="45.84682" lon="4.78038">
        <ele>599</ele>
        <time>2011-11-01T08:45:55Z</time>
      </trkpt>
      <trkpt lat="45.84676" lon="4.78029">
        <ele>599.6</ele>
        <time>2011-11-01T08:46:04Z</time>
      </trkpt>
      <trkpt lat="45.84673" lon="4.78025">
        <ele>613.2</ele>
        <time>2011-11-01T08:46:50Z</time>
      </trkpt>
      <trkpt lat="45.84674" lon="4.78018">
        <ele>613.6</ele>
        <time>2011-11-01T08:46:55Z</time>
      </trkpt>
      <trkpt lat="45.84674" lon="4.78015">
        <ele>613.6</ele>
        <time>2011-11-01T08:46:57Z</time>
      </trkpt>
      <trkpt lat="45.84676" lon="4.78002">
        <ele>613.4</ele>
        <time>2011-11-01T08:47:02Z</time>
      </trkpt>
      <trkpt lat="45.84675" lon="4.77986">
        <ele>612.8</ele>
        <time>2011-11-01T08:47:07Z</time>
      </trkpt>
      <trkpt lat="45.84678" lon="4.77967">
        <ele>612.2</ele>
        <time>2011-11-01T08:47:13Z</time>
      </trkpt>
      <trkpt lat="45.84688" lon="4.77949">
        <ele>611.2</ele>
        <time>2011-11-01T08:47:20Z</time>
      </trkpt>
      <trkpt lat="45.84693" lon="4.7794">
        <ele>610.6</ele>
        <time>2011-11-01T08:47:24Z</time>
      </trkpt>
      <trkpt lat="45.84697" lon="4.77932">
        <ele>610.2</ele>
        <time>2011-11-01T08:47:27Z</time>
      </trkpt>
      <trkpt lat="45.84705" lon="4.77913">
        <ele>609.4</ele>
        <time>2011-11-01T08:47:34Z</time>
      </trkpt>
      <trkpt lat="45.84712" lon="4.77896">
        <ele>609</ele>
        <time>2011-11-01T08:47:40Z</time>
      </trkpt>
      <trkpt lat="45.84713" lon="4.77893">
        <ele>609</ele>
        <time>2011-11-01T08:47:41Z</time>
      </trkpt>
      <trkpt lat="45.84719" lon="4.77877">
        <ele>609</ele>
        <time>2011-11-01T08:47:46Z</time>
      </trkpt>
      <trkpt lat="45.84727" lon="4.77854">
        <ele>609</ele>
        <time>2011-11-01T08:47:53Z</time>
      </trkpt>
      <trkpt lat="45.84727" lon="4.77848">
        <ele>609.2</ele>
        <time>2011-11-01T08:47:55Z</time>
      </trkpt>
      <trkpt lat="45.84727" lon="4.77839">
        <ele>608.8</ele>
        <time>2011-11-01T08:47:58Z</time>
      </trkpt>
      <trkpt lat="45.84721" lon="4.77827">
        <ele>608.4</ele>
        <time>2011-11-01T08:48:03Z</time>
      </trkpt>
      <trkpt lat="45.84709" lon="4.77823">
        <ele>607.6</ele>
        <time>2011-11-01T08:48:08Z</time>
      </trkpt>
      <trkpt lat="45.84703" lon="4.77828">
        <ele>607.4</ele>
        <time>2011-11-01T08:48:11Z</time>
      </trkpt>
      <trkpt lat="45.84699" lon="4.77833">
        <ele>607</ele>
        <time>2011-11-01T08:48:13Z</time>
      </trkpt>
      <trkpt lat="45.84691" lon="4.77852">
        <ele>606.4</ele>
        <time>2011-11-01T08:48:19Z</time>
      </trkpt>
      <trkpt lat="45.84688" lon="4.77867">
        <ele>605.8</ele>
        <time>2011-11-01T08:48:23Z</time>
      </trkpt>
      <trkpt lat="45.84686" lon="4.77873">
        <ele>605.6</ele>
        <time>2011-11-01T08:48:25Z</time>
      </trkpt>
      <trkpt lat="45.84683" lon="4.77884">
        <ele>605</ele>
        <time>2011-11-01T08:48:28Z</time>
      </trkpt>
      <trkpt lat="45.84678" lon="4.77897">
        <ele>604.6</ele>
        <time>2011-11-01T08:48:32Z</time>
      </trkpt>
      <trkpt lat="45.84671" lon="4.7791">
        <ele>604</ele>
        <time>2011-11-01T08:48:36Z</time>
      </trkpt>
      <trkpt lat="45.84667" lon="4.77917">
        <ele>603.6</ele>
        <time>2011-11-01T08:48:38Z</time>
      </trkpt>
      <trkpt lat="45.84661" lon="4.77926">
        <ele>603.2</ele>
        <time>2011-11-01T08:48:41Z</time>
      </trkpt>
      <trkpt lat="45.84652" lon="4.77931">
        <ele>602.4</ele>
        <time>2011-11-01T08:48:45Z</time>
      </trkpt>
      <trkpt lat="45.84644" lon="4.7793">
        <ele>602</ele>
        <time>2011-11-01T08:48:48Z</time>
      </trkpt>
      <trkpt lat="45.8464" lon="4.77925">
        <ele>601.6</ele>
        <time>2011-11-01T08:48:50Z</time>
      </trkpt>
      <trkpt lat="45.84637" lon="4.77919">
        <ele>601.2</ele>
        <time>2011-11-01T08:48:52Z</time>
      </trkpt>
      <trkpt lat="45.84636" lon="4.77912">
        <ele>600.8</ele>
        <time>2011-11-01T08:48:54Z</time>
      </trkpt>
      <trkpt lat="45.84635" lon="4.77898">
        <ele>600.2</ele>
        <time>2011-11-01T08:48:57Z</time>
      </trkpt>
      <trkpt lat="45.84636" lon="4.77894">
        <ele>600</ele>
        <time>2011-11-01T08:48:58Z</time>
      </trkpt>
      <trkpt lat="45.84644" lon="4.77879">
        <ele>599.4</ele>
        <time>2011-11-01T08:49:03Z</time>
      </trkpt>
      <trkpt lat="45.84646" lon="4.77876">
        <ele>599.4</ele>
        <time>2011-11-01T08:49:04Z</time>
      </trkpt>
      <trkpt lat="45.84648" lon="4.77874">
        <ele>599.2</ele>
        <time>2011-11-01T08:49:05Z</time>
      </trkpt>
      <trkpt lat="45.84653" lon="4.77867">
        <ele>599</ele>
        <time>2011-11-01T08:49:08Z</time>
      </trkpt>
      <trkpt lat="45.84664" lon="4.7785">
        <ele>599</ele>
        <time>2011-11-01T08:49:14Z</time>
      </trkpt>
      <trkpt lat="45.8467" lon="4.77834">
        <ele>599</ele>
        <time>2011-11-01T08:49:19Z</time>
      </trkpt>
      <trkpt lat="45.84677" lon="4.77814">
        <ele>599.4</ele>
        <time>2011-11-01T08:49:25Z</time>
      </trkpt>
      <trkpt lat="45.84683" lon="4.77793">
        <ele>599.8</ele>
        <time>2011-11-01T08:49:31Z</time>
      </trkpt>
      <trkpt lat="45.84684" lon="4.77784">
        <ele>600.2</ele>
        <time>2011-11-01T08:49:33Z</time>
      </trkpt>
      <trkpt lat="45.84689" lon="4.77769">
        <ele>600.6</ele>
        <time>2011-11-01T08:49:37Z</time>
      </trkpt>
      <trkpt lat="45.84697" lon="4.77751">
        <ele>600.6</ele>
        <time>2011-11-01T08:49:43Z</time>
      </trkpt>
      <trkpt lat="45.84706" lon="4.77739">
        <ele>600.2</ele>
        <time>2011-11-01T08:49:47Z</time>
      </trkpt>
      <trkpt lat="45.84709" lon="4.77732">
        <ele>600</ele>
        <time>2011-11-01T08:49:49Z</time>
      </trkpt>
      <trkpt lat="45.84715" lon="4.77715">
        <ele>599.2</ele>
        <time>2011-11-01T08:49:54Z</time>
      </trkpt>
      <trkpt lat="45.84721" lon="4.77689">
        <ele>598</ele>
        <time>2011-11-01T08:50:01Z</time>
      </trkpt>
      <trkpt lat="45.8472" lon="4.7767">
        <ele>597.4</ele>
        <time>2011-11-01T08:50:06Z</time>
      </trkpt>
      <trkpt lat="45.84713" lon="4.77647">
        <ele>596.4</ele>
        <time>2011-11-01T08:50:12Z</time>
      </trkpt>
      <trkpt lat="45.84711" lon="4.77641">
        <ele>596.2</ele>
        <time>2011-11-01T08:50:14Z</time>
      </trkpt>
      <trkpt lat="45.84706" lon="4.7763">
        <ele>595.6</ele>
        <time>2011-11-01T08:50:17Z</time>
      </trkpt>
      <trkpt lat="45.84701" lon="4.77614">
        <ele>594.8</ele>
        <time>2011-11-01T08:50:22Z</time>
      </trkpt>
      <trkpt lat="45.84694" lon="4.77593">
        <ele>593.6</ele>
        <time>2011-11-01T08:50:28Z</time>
      </trkpt>
      <trkpt lat="45.84693" lon="4.77591">
        <ele>593.4</ele>
        <time>2011-11-01T08:50:29Z</time>
      </trkpt>
      <trkpt lat="45.8469" lon="4.77582">
        <ele>592.8</ele>
        <time>2011-11-01T08:50:32Z</time>
      </trkpt>
      <trkpt lat="45.84692" lon="4.77574">
        <ele>591.8</ele>
        <time>2011-11-01T08:50:36Z</time>
      </trkpt>
      <trkpt lat="45.84701" lon="4.77584">
        <ele>590.6</ele>
        <time>2011-11-01T08:50:40Z</time>
      </trkpt>
      <trkpt lat="45.84707" lon="4.7759">
        <ele>590</ele>
        <time>2011-11-01T08:50:43Z</time>
      </trkpt>
      <trkpt lat="45.84709" lon="4.77592">
        <ele>589.8</ele>
        <time>2011-11-01T08:50:44Z</time>
      </trkpt>
      <trkpt lat="45.84712" lon="4.77594">
        <ele>589.4</ele>
        <time>2011-11-01T08:50:45Z</time>
      </trkpt>
      <trkpt lat="45.84718" lon="4.77601">
        <ele>588.6</ele>
        <time>2011-11-01T08:50:49Z</time>
      </trkpt>
      <trkpt lat="45.84728" lon="4.77607">
        <ele>587.6</ele>
        <time>2011-11-01T08:50:54Z</time>
      </trkpt>
      <trkpt lat="45.84743" lon="4.77613">
        <ele>586.6</ele>
        <time>2011-11-01T08:51:00Z</time>
      </trkpt>
      <trkpt lat="45.84756" lon="4.77617">
        <ele>585.8</ele>
        <time>2011-11-01T08:51:05Z</time>
      </trkpt>
      <trkpt lat="45.84769" lon="4.77619">
        <ele>585</ele>
        <time>2011-11-01T08:51:10Z</time>
      </trkpt>
      <trkpt lat="45.84773" lon="4.7762">
        <ele>584.8</ele>
        <time>2011-11-01T08:51:12Z</time>
      </trkpt>
      <trkpt lat="45.84775" lon="4.77621">
        <ele>584.6</ele>
        <time>2011-11-01T08:51:14Z</time>
      </trkpt>
      <trkpt lat="45.84779" lon="4.77623">
        <ele>584.4</ele>
        <time>2011-11-01T08:51:16Z</time>
      </trkpt>
      <trkpt lat="45.84782" lon="4.77623">
        <ele>584.2</ele>
        <time>2011-11-01T08:51:17Z</time>
      </trkpt>
      <trkpt lat="45.84784" lon="4.77624">
        <ele>584.2</ele>
        <time>2011-11-01T08:51:18Z</time>
      </trkpt>
      <trkpt lat="45.84796" lon="4.77625">
        <ele>583.8</ele>
        <time>2011-11-01T08:51:23Z</time>
      </trkpt>
      <trkpt lat="45.84808" lon="4.77622">
        <ele>583.4</ele>
        <time>2011-11-01T08:51:28Z</time>
      </trkpt>
      <trkpt lat="45.84816" lon="4.7762">
        <ele>583</ele>
        <time>2011-11-01T08:51:31Z</time>
      </trkpt>
      <trkpt lat="45.8482" lon="4.7762">
        <ele>582.8</ele>
        <time>2011-11-01T08:51:33Z</time>
      </trkpt>
      <trkpt lat="45.84832" lon="4.77619">
        <ele>582.6</ele>
        <time>2011-11-01T08:51:39Z</time>
      </trkpt>
      <trkpt lat="45.84834" lon="4.77618">
        <ele>582.6</ele>
        <time>2011-11-01T08:51:40Z</time>
      </trkpt>
      <trkpt lat="45.84841" lon="4.77615">
        <ele>582.2</ele>
        <time>2011-11-01T08:51:43Z</time>
      </trkpt>
      <trkpt lat="45.84842" lon="4.77615">
        <ele>582.2</ele>
        <time>2011-11-01T08:51:44Z</time>
      </trkpt>
      <trkpt lat="45.84853" lon="4.77615">
        <ele>581.6</ele>
        <time>2011-11-01T08:51:48Z</time>
      </trkpt>
      <trkpt lat="45.84856" lon="4.77615">
        <ele>581.4</ele>
        <time>2011-11-01T08:51:49Z</time>
      </trkpt>
      <trkpt lat="45.84872" lon="4.77616">
        <ele>580.6</ele>
        <time>2011-11-01T08:51:55Z</time>
      </trkpt>
      <trkpt lat="45.84884" lon="4.77616">
        <ele>579.8</ele>
        <time>2011-11-01T08:52:00Z</time>
      </trkpt>
      <trkpt lat="45.84892" lon="4.77617">
        <ele>579.4</ele>
        <time>2011-11-01T08:52:03Z</time>
      </trkpt>
      <trkpt lat="45.84894" lon="4.77616">
        <ele>579.2</ele>
        <time>2011-11-01T08:52:04Z</time>
      </trkpt>
      <trkpt lat="45.84903" lon="4.77617">
        <ele>578.6</ele>
        <time>2011-11-01T08:52:08Z</time>
      </trkpt>
      <trkpt lat="45.8491" lon="4.77617">
        <ele>578.4</ele>
        <time>2011-11-01T08:52:11Z</time>
      </trkpt>
      <trkpt lat="45.84912" lon="4.77616">
        <ele>578.2</ele>
        <time>2011-11-01T08:52:12Z</time>
      </trkpt>
      <trkpt lat="45.84914" lon="4.77616">
        <ele>578</ele>
        <time>2011-11-01T08:52:13Z</time>
      </trkpt>
      <trkpt lat="45.84928" lon="4.77613">
        <ele>577.2</ele>
        <time>2011-11-01T08:52:19Z</time>
      </trkpt>
      <trkpt lat="45.84933" lon="4.77614">
        <ele>577</ele>
        <time>2011-11-01T08:52:21Z</time>
      </trkpt>
      <trkpt lat="45.8495" lon="4.77616">
        <ele>576.2</ele>
        <time>2011-11-01T08:52:28Z</time>
      </trkpt>
      <trkpt lat="45.84962" lon="4.77618">
        <ele>575.8</ele>
        <time>2011-11-01T08:52:34Z</time>
      </trkpt>
      <trkpt lat="45.84964" lon="4.77618">
        <ele>575.8</ele>
        <time>2011-11-01T08:52:35Z</time>
      </trkpt>
      <trkpt lat="45.84973" lon="4.77621">
        <ele>575.6</ele>
        <time>2011-11-01T08:52:38Z</time>
      </trkpt>
      <trkpt lat="45.84984" lon="4.77623">
        <ele>575.2</ele>
        <time>2011-11-01T08:52:42Z</time>
      </trkpt>
      <trkpt lat="45.85001" lon="4.77625">
        <ele>575</ele>
        <time>2011-11-01T08:52:49Z</time>
      </trkpt>
      <trkpt lat="45.85014" lon="4.77629">
        <ele>575</ele>
        <time>2011-11-01T08:52:54Z</time>
      </trkpt>
      <trkpt lat="45.85016" lon="4.7763">
        <ele>575</ele>
        <time>2011-11-01T08:52:55Z</time>
      </trkpt>
      <trkpt lat="45.85026" lon="4.77635">
        <ele>575.6</ele>
        <time>2011-11-01T08:52:59Z</time>
      </trkpt>
      <trkpt lat="45.85037" lon="4.77641">
        <ele>576</ele>
        <time>2011-11-01T08:53:04Z</time>
      </trkpt>
      <trkpt lat="45.85039" lon="4.77642">
        <ele>576</ele>
        <time>2011-11-01T08:53:05Z</time>
      </trkpt>
      <trkpt lat="45.85051" lon="4.77642">
        <ele>576</ele>
        <time>2011-11-01T08:53:10Z</time>
      </trkpt>
      <trkpt lat="45.85057" lon="4.77641">
        <ele>575.6</ele>
        <time>2011-11-01T08:53:15Z</time>
      </trkpt>
      <trkpt lat="45.85068" lon="4.77637">
        <ele>575</ele>
        <time>2011-11-01T08:53:21Z</time>
      </trkpt>
      <trkpt lat="45.85073" lon="4.77635">
        <ele>574.8</ele>
        <time>2011-11-01T08:53:23Z</time>
      </trkpt>
      <trkpt lat="45.85083" lon="4.77635">
        <ele>574.4</ele>
        <time>2011-11-01T08:53:27Z</time>
      </trkpt>
      <trkpt lat="45.85094" lon="4.77632">
        <ele>573.6</ele>
        <time>2011-11-01T08:53:32Z</time>
      </trkpt>
      <trkpt lat="45.851" lon="4.77629">
        <ele>572.6</ele>
        <time>2011-11-01T08:53:37Z</time>
      </trkpt>
      <trkpt lat="45.85109" lon="4.77627">
        <ele>571.8</ele>
        <time>2011-11-01T08:53:41Z</time>
      </trkpt>
      <trkpt lat="45.85112" lon="4.77626">
        <ele>571.6</ele>
        <time>2011-11-01T08:53:42Z</time>
      </trkpt>
      <trkpt lat="45.85121" lon="4.77624">
        <ele>571</ele>
        <time>2011-11-01T08:53:45Z</time>
      </trkpt>
      <trkpt lat="45.85128" lon="4.77623">
        <ele>570.4</ele>
        <time>2011-11-01T08:53:48Z</time>
      </trkpt>
      <trkpt lat="45.85137" lon="4.77622">
        <ele>569.2</ele>
        <time>2011-11-01T08:53:53Z</time>
      </trkpt>
      <trkpt lat="45.85146" lon="4.77619">
        <ele>568</ele>
        <time>2011-11-01T08:53:58Z</time>
      </trkpt>
      <trkpt lat="45.85158" lon="4.77617">
        <ele>567</ele>
        <time>2011-11-01T08:54:03Z</time>
      </trkpt>
      <trkpt lat="45.85161" lon="4.77616">
        <ele>566.6</ele>
        <time>2011-11-01T08:54:04Z</time>
      </trkpt>
      <trkpt lat="45.85169" lon="4.77613">
        <ele>565.8</ele>
        <time>2011-11-01T08:54:08Z</time>
      </trkpt>
      <trkpt lat="45.85181" lon="4.77604">
        <ele>564.6</ele>
        <time>2011-11-01T08:54:13Z</time>
      </trkpt>
      <trkpt lat="45.85189" lon="4.77605">
        <ele>563.8</ele>
        <time>2011-11-01T08:54:16Z</time>
      </trkpt>
      <trkpt lat="45.85191" lon="4.77607">
        <ele>563.6</ele>
        <time>2011-11-01T08:54:17Z</time>
      </trkpt>
      <trkpt lat="45.852" lon="4.77619">
        <ele>562.4</ele>
        <time>2011-11-01T08:54:22Z</time>
      </trkpt>
      <trkpt lat="45.85207" lon="4.77627">
        <ele>561.4</ele>
        <time>2011-11-01T08:54:26Z</time>
      </trkpt>
      <trkpt lat="45.85211" lon="4.77632">
        <ele>560.8</ele>
        <time>2011-11-01T08:54:28Z</time>
      </trkpt>
      <trkpt lat="45.85219" lon="4.77641">
        <ele>559.8</ele>
        <time>2011-11-01T08:54:32Z</time>
      </trkpt>
      <trkpt lat="45.85223" lon="4.77645">
        <ele>559.2</ele>
        <time>2011-11-01T08:54:34Z</time>
      </trkpt>
      <trkpt lat="45.85228" lon="4.77651">
        <ele>558.8</ele>
        <time>2011-11-01T08:54:36Z</time>
      </trkpt>
      <trkpt lat="45.85237" lon="4.77663">
        <ele>557.6</ele>
        <time>2011-11-01T08:54:41Z</time>
      </trkpt>
      <trkpt lat="45.85239" lon="4.77665">
        <ele>557.2</ele>
        <time>2011-11-01T08:54:42Z</time>
      </trkpt>
      <trkpt lat="45.85247" lon="4.77674">
        <ele>556.2</ele>
        <time>2011-11-01T08:54:46Z</time>
      </trkpt>
      <trkpt lat="45.85257" lon="4.77687">
        <ele>555</ele>
        <time>2011-11-01T08:54:51Z</time>
      </trkpt>
      <trkpt lat="45.85267" lon="4.77697">
        <ele>553.6</ele>
        <time>2011-11-01T08:54:56Z</time>
      </trkpt>
      <trkpt lat="45.85269" lon="4.777">
        <ele>553.4</ele>
        <time>2011-11-01T08:54:57Z</time>
      </trkpt>
      <trkpt lat="45.85273" lon="4.77718">
        <ele>552.2</ele>
        <time>2011-11-01T08:55:02Z</time>
      </trkpt>
      <trkpt lat="45.85274" lon="4.77736">
        <ele>551</ele>
        <time>2011-11-01T08:55:07Z</time>
      </trkpt>
      <trkpt lat="45.85275" lon="4.77747">
        <ele>550.4</ele>
        <time>2011-11-01T08:55:10Z</time>
      </trkpt>
      <trkpt lat="45.85276" lon="4.77752">
        <ele>550</ele>
        <time>2011-11-01T08:55:12Z</time>
      </trkpt>
      <trkpt lat="45.85278" lon="4.77771">
        <ele>549</ele>
        <time>2011-11-01T08:55:17Z</time>
      </trkpt>
      <trkpt lat="45.85279" lon="4.77775">
        <ele>548.8</ele>
        <time>2011-11-01T08:55:18Z</time>
      </trkpt>
      <trkpt lat="45.8528" lon="4.77786">
        <ele>548.2</ele>
        <time>2011-11-01T08:55:21Z</time>
      </trkpt>
      <trkpt lat="45.85283" lon="4.77797">
        <ele>547.6</ele>
        <time>2011-11-01T08:55:24Z</time>
      </trkpt>
      <trkpt lat="45.85284" lon="4.77804">
        <ele>547.2</ele>
        <time>2011-11-01T08:55:26Z</time>
      </trkpt>
      <trkpt lat="45.85285" lon="4.77808">
        <ele>547</ele>
        <time>2011-11-01T08:55:27Z</time>
      </trkpt>
      <trkpt lat="45.85289" lon="4.77825">
        <ele>546.2</ele>
        <time>2011-11-01T08:55:32Z</time>
      </trkpt>
      <trkpt lat="45.85291" lon="4.7784">
        <ele>545.6</ele>
        <time>2011-11-01T08:55:36Z</time>
      </trkpt>
      <trkpt lat="45.85291" lon="4.77844">
        <ele>545.4</ele>
        <time>2011-11-01T08:55:37Z</time>
      </trkpt>
      <trkpt lat="45.85293" lon="4.77847">
        <ele>545.4</ele>
        <time>2011-11-01T08:55:38Z</time>
      </trkpt>
      <trkpt lat="45.85294" lon="4.7785">
        <ele>545.2</ele>
        <time>2011-11-01T08:55:39Z</time>
      </trkpt>
      <trkpt lat="45.85297" lon="4.77867">
        <ele>544.4</ele>
        <time>2011-11-01T08:55:44Z</time>
      </trkpt>
      <trkpt lat="45.85301" lon="4.77884">
        <ele>543.8</ele>
        <time>2011-11-01T08:55:49Z</time>
      </trkpt>
      <trkpt lat="45.85304" lon="4.77898">
        <ele>543.4</ele>
        <time>2011-11-01T08:55:53Z</time>
      </trkpt>
      <trkpt lat="45.85305" lon="4.77902">
        <ele>543.2</ele>
        <time>2011-11-01T08:55:54Z</time>
      </trkpt>
      <trkpt lat="45.85308" lon="4.7792">
        <ele>542.8</ele>
        <time>2011-11-01T08:55:59Z</time>
      </trkpt>
      <trkpt lat="45.85311" lon="4.77941">
        <ele>542.2</ele>
        <time>2011-11-01T08:56:05Z</time>
      </trkpt>
      <trkpt lat="45.85312" lon="4.77944">
        <ele>542</ele>
        <time>2011-11-01T08:56:06Z</time>
      </trkpt>
      <trkpt lat="45.85315" lon="4.77951">
        <ele>541.8</ele>
        <time>2011-11-01T08:56:08Z</time>
      </trkpt>
      <trkpt lat="45.85316" lon="4.77954">
        <ele>541.8</ele>
        <time>2011-11-01T08:56:09Z</time>
      </trkpt>
      <trkpt lat="45.85316" lon="4.77958">
        <ele>541.6</ele>
        <time>2011-11-01T08:56:10Z</time>
      </trkpt>
      <trkpt lat="45.8532" lon="4.77968">
        <ele>541.4</ele>
        <time>2011-11-01T08:56:14Z</time>
      </trkpt>
      <trkpt lat="45.85322" lon="4.77969">
        <ele>541</ele>
        <time>2011-11-01T08:56:17Z</time>
      </trkpt>
      <trkpt lat="45.85325" lon="4.77967">
        <ele>540.8</ele>
        <time>2011-11-01T08:56:19Z</time>
      </trkpt>
      <trkpt lat="45.85331" lon="4.77964">
        <ele>540.4</ele>
        <time>2011-11-01T08:56:22Z</time>
      </trkpt>
      <trkpt lat="45.85334" lon="4.7796">
        <ele>540.2</ele>
        <time>2011-11-01T08:56:24Z</time>
      </trkpt>
      <trkpt lat="45.8534" lon="4.77954">
        <ele>539.8</ele>
        <time>2011-11-01T08:56:27Z</time>
      </trkpt>
      <trkpt lat="45.85342" lon="4.77952">
        <ele>539.6</ele>
        <time>2011-11-01T08:56:28Z</time>
      </trkpt>
      <trkpt lat="45.85344" lon="4.77951">
        <ele>539.6</ele>
        <time>2011-11-01T08:56:29Z</time>
      </trkpt>
      <trkpt lat="45.85355" lon="4.77947">
        <ele>539</ele>
        <time>2011-11-01T08:56:34Z</time>
      </trkpt>
      <trkpt lat="45.85357" lon="4.77947">
        <ele>538.8</ele>
        <time>2011-11-01T08:56:35Z</time>
      </trkpt>
      <trkpt lat="45.85363" lon="4.77952">
        <ele>538.4</ele>
        <time>2011-11-01T08:56:38Z</time>
      </trkpt>
      <trkpt lat="45.8537" lon="4.77965">
        <ele>538</ele>
        <time>2011-11-01T08:56:42Z</time>
      </trkpt>
      <trkpt lat="45.85372" lon="4.77967">
        <ele>537.8</ele>
        <time>2011-11-01T08:56:43Z</time>
      </trkpt>
      <trkpt lat="45.85381" lon="4.77969">
        <ele>537.2</ele>
        <time>2011-11-01T08:56:47Z</time>
      </trkpt>
      <trkpt lat="45.85382" lon="4.77971">
        <ele>537</ele>
        <time>2011-11-01T08:56:48Z</time>
      </trkpt>
      <trkpt lat="45.8539" lon="4.77978">
        <ele>536.4</ele>
        <time>2011-11-01T08:56:52Z</time>
      </trkpt>
      <trkpt lat="45.854" lon="4.77989">
        <ele>536</ele>
        <time>2011-11-01T08:56:56Z</time>
      </trkpt>
      <trkpt lat="45.85401" lon="4.77991">
        <ele>535.8</ele>
        <time>2011-11-01T08:56:57Z</time>
      </trkpt>
      <trkpt lat="45.85411" lon="4.77999">
        <ele>535.4</ele>
        <time>2011-11-01T08:57:01Z</time>
      </trkpt>
      <trkpt lat="45.8542" lon="4.78011">
        <ele>534.6</ele>
        <time>2011-11-01T08:57:06Z</time>
      </trkpt>
      <trkpt lat="45.85431" lon="4.78022">
        <ele>534</ele>
        <time>2011-11-01T08:57:11Z</time>
      </trkpt>
      <trkpt lat="45.85441" lon="4.78034">
        <ele>533.4</ele>
        <time>2011-11-01T08:57:16Z</time>
      </trkpt>
      <trkpt lat="45.85451" lon="4.78045">
        <ele>532.6</ele>
        <time>2011-11-01T08:57:21Z</time>
      </trkpt>
      <trkpt lat="45.85459" lon="4.78055">
        <ele>532</ele>
        <time>2011-11-01T08:57:25Z</time>
      </trkpt>
      <trkpt lat="45.85463" lon="4.7806">
        <ele>531.6</ele>
        <time>2011-11-01T08:57:27Z</time>
      </trkpt>
      <trkpt lat="45.85473" lon="4.78068">
        <ele>531.2</ele>
        <time>2011-11-01T08:57:31Z</time>
      </trkpt>
      <trkpt lat="45.85485" lon="4.7808">
        <ele>530.2</ele>
        <time>2011-11-01T08:57:37Z</time>
      </trkpt>
      <trkpt lat="45.8549" lon="4.78083">
        <ele>530</ele>
        <time>2011-11-01T08:57:39Z</time>
      </trkpt>
      <trkpt lat="45.85498" lon="4.78087">
        <ele>529.6</ele>
        <time>2011-11-01T08:57:42Z</time>
      </trkpt>
      <trkpt lat="45.85512" lon="4.78097">
        <ele>528.8</ele>
        <time>2011-11-01T08:57:48Z</time>
      </trkpt>
      <trkpt lat="45.85523" lon="4.78108">
        <ele>528.2</ele>
        <time>2011-11-01T08:57:53Z</time>
      </trkpt>
      <trkpt lat="45.85537" lon="4.7812">
        <ele>527.4</ele>
        <time>2011-11-01T08:57:59Z</time>
      </trkpt>
      <trkpt lat="45.85545" lon="4.78129">
        <ele>526.8</ele>
        <time>2011-11-01T08:58:04Z</time>
      </trkpt>
      <trkpt lat="45.85551" lon="4.78136">
        <ele>526.4</ele>
        <time>2011-11-01T08:58:07Z</time>
      </trkpt>
      <trkpt lat="45.85555" lon="4.78139">
        <ele>526</ele>
        <time>2011-11-01T08:58:09Z</time>
      </trkpt>
      <trkpt lat="45.85567" lon="4.78144">
        <ele>525.4</ele>
        <time>2011-11-01T08:58:14Z</time>
      </trkpt>
      <trkpt lat="45.85576" lon="4.78149">
        <ele>525</ele>
        <time>2011-11-01T08:58:18Z</time>
      </trkpt>
      <trkpt lat="45.85577" lon="4.78151">
        <ele>524.8</ele>
        <time>2011-11-01T08:58:19Z</time>
      </trkpt>
      <trkpt lat="45.85584" lon="4.78157">
        <ele>524.6</ele>
        <time>2011-11-01T08:58:23Z</time>
      </trkpt>
      <trkpt lat="45.85587" lon="4.78161">
        <ele>524.4</ele>
        <time>2011-11-01T08:58:25Z</time>
      </trkpt>
      <trkpt lat="45.85592" lon="4.78165">
        <ele>524.4</ele>
        <time>2011-11-01T08:58:28Z</time>
      </trkpt>
      <trkpt lat="45.856" lon="4.78174">
        <ele>524.2</ele>
        <time>2011-11-01T08:58:33Z</time>
      </trkpt>
      <trkpt lat="45.85602" lon="4.78175">
        <ele>524.2</ele>
        <time>2011-11-01T08:58:34Z</time>
      </trkpt>
      <trkpt lat="45.85605" lon="4.78181">
        <ele>524</ele>
        <time>2011-11-01T08:58:37Z</time>
      </trkpt>
      <trkpt lat="45.85607" lon="4.78192">
        <ele>523.6</ele>
        <time>2011-11-01T08:58:42Z</time>
      </trkpt>
      <trkpt lat="45.85609" lon="4.78199">
        <ele>523.4</ele>
        <time>2011-11-01T08:58:45Z</time>
      </trkpt>
      <trkpt lat="45.85612" lon="4.78204">
        <ele>523.2</ele>
        <time>2011-11-01T08:58:47Z</time>
      </trkpt>
      <trkpt lat="45.85615" lon="4.78206">
        <ele>523</ele>
        <time>2011-11-01T08:58:49Z</time>
      </trkpt>
      <trkpt lat="45.8562" lon="4.78206">
        <ele>523</ele>
        <time>2011-11-01T08:58:51Z</time>
      </trkpt>
      <trkpt lat="45.85628" lon="4.78208">
        <ele>522.6</ele>
        <time>2011-11-01T08:58:55Z</time>
      </trkpt>
      <trkpt lat="45.85628" lon="4.78209">
        <ele>522.6</ele>
        <time>2011-11-01T08:58:56Z</time>
      </trkpt>
      <trkpt lat="45.85627" lon="4.78211">
        <ele>522.4</ele>
        <time>2011-11-01T08:58:58Z</time>
      </trkpt>
      <trkpt lat="45.85629" lon="4.78215">
        <ele>522.2</ele>
        <time>2011-11-01T08:59:00Z</time>
      </trkpt>
      <trkpt lat="45.85637" lon="4.78218">
        <ele>521.8</ele>
        <time>2011-11-01T08:59:05Z</time>
      </trkpt>
      <trkpt lat="45.85638" lon="4.78219">
        <ele>521.6</ele>
        <time>2011-11-01T08:59:06Z</time>
      </trkpt>
      <trkpt lat="45.85641" lon="4.78222">
        <ele>521.4</ele>
        <time>2011-11-01T08:59:08Z</time>
      </trkpt>
      <trkpt lat="45.85643" lon="4.78224">
        <ele>521.4</ele>
        <time>2011-11-01T08:59:09Z</time>
      </trkpt>
      <trkpt lat="45.85651" lon="4.78234">
        <ele>520.8</ele>
        <time>2011-11-01T08:59:14Z</time>
      </trkpt>
      <trkpt lat="45.85659" lon="4.78245">
        <ele>520.2</ele>
        <time>2011-11-01T08:59:18Z</time>
      </trkpt>
      <trkpt lat="45.85661" lon="4.78246">
        <ele>520.2</ele>
        <time>2011-11-01T08:59:19Z</time>
      </trkpt>
      <trkpt lat="45.85666" lon="4.78248">
        <ele>519.8</ele>
        <time>2011-11-01T08:59:21Z</time>
      </trkpt>
      <trkpt lat="45.8567" lon="4.78253">
        <ele>519.6</ele>
        <time>2011-11-01T08:59:23Z</time>
      </trkpt>
      <trkpt lat="45.85672" lon="4.78256">
        <ele>519.6</ele>
        <time>2011-11-01T08:59:24Z</time>
      </trkpt>
      <trkpt lat="45.85673" lon="4.78259">
        <ele>519.2</ele>
        <time>2011-11-01T08:59:27Z</time>
      </trkpt>
      <trkpt lat="45.8567" lon="4.78262">
        <ele>517.8</ele>
        <time>2011-11-01T08:59:40Z</time>
      </trkpt>
      <trkpt lat="45.85668" lon="4.78267">
        <ele>519</ele>
        <time>2011-11-01T09:00:06Z</time>
      </trkpt>
      <trkpt lat="45.85667" lon="4.78269">
        <ele>519</ele>
        <time>2011-11-01T09:00:07Z</time>
      </trkpt>
      <trkpt lat="45.85665" lon="4.78282">
        <ele>519.2</ele>
        <time>2011-11-01T09:00:15Z</time>
      </trkpt>
      <trkpt lat="45.85664" lon="4.78288">
        <ele>519.2</ele>
        <time>2011-11-01T09:00:19Z</time>
      </trkpt>
      <trkpt lat="45.85663" lon="4.7829">
        <ele>519.2</ele>
        <time>2011-11-01T09:00:20Z</time>
      </trkpt>
      <trkpt lat="45.85663" lon="4.78291">
        <ele>519</ele>
        <time>2011-11-01T09:00:21Z</time>
      </trkpt>
      <trkpt lat="45.85664" lon="4.78292">
        <ele>519</ele>
        <time>2011-11-01T09:00:22Z</time>
      </trkpt>
      <trkpt lat="45.85667" lon="4.78295">
        <ele>519</ele>
        <time>2011-11-01T09:00:25Z</time>
      </trkpt>
      <trkpt lat="45.85673" lon="4.783">
        <ele>518.6</ele>
        <time>2011-11-01T09:00:30Z</time>
      </trkpt>
      <trkpt lat="45.85675" lon="4.78307">
        <ele>518</ele>
        <time>2011-11-01T09:00:37Z</time>
      </trkpt>
      <trkpt lat="45.85679" lon="4.7831">
        <ele>517.4</ele>
        <time>2011-11-01T09:00:42Z</time>
      </trkpt>
      <trkpt lat="45.85682" lon="4.78304">
        <ele>516.8</ele>
        <time>2011-11-01T09:00:47Z</time>
      </trkpt>
      <trkpt lat="45.85683" lon="4.78298">
        <ele>516.4</ele>
        <time>2011-11-01T09:00:50Z</time>
      </trkpt>
      <trkpt lat="45.85683" lon="4.78295">
        <ele>516</ele>
        <time>2011-11-01T09:00:52Z</time>
      </trkpt>
      <trkpt lat="45.85683" lon="4.78294">
        <ele>515.8</ele>
        <time>2011-11-01T09:00:53Z</time>
      </trkpt>
      <trkpt lat="45.85683" lon="4.78286">
        <ele>515.2</ele>
        <time>2011-11-01T09:00:57Z</time>
      </trkpt>
      <trkpt lat="45.85683" lon="4.78275">
        <ele>514.8</ele>
        <time>2011-11-01T09:01:02Z</time>
      </trkpt>
      <trkpt lat="45.85683" lon="4.78273">
        <ele>514.6</ele>
        <time>2011-11-01T09:01:03Z</time>
      </trkpt>
      <trkpt lat="45.85686" lon="4.78267">
        <ele>514.6</ele>
        <time>2011-11-01T09:01:06Z</time>
      </trkpt>
      <trkpt lat="45.85689" lon="4.78257">
        <ele>514.4</ele>
        <time>2011-11-01T09:01:11Z</time>
      </trkpt>
      <trkpt lat="45.85689" lon="4.78254">
        <ele>514.4</ele>
        <time>2011-11-01T09:01:12Z</time>
      </trkpt>
      <trkpt lat="45.85693" lon="4.78247">
        <ele>514.6</ele>
        <time>2011-11-01T09:01:15Z</time>
      </trkpt>
      <trkpt lat="45.85695" lon="4.78241">
        <ele>514.6</ele>
        <time>2011-11-01T09:01:17Z</time>
      </trkpt>
      <trkpt lat="45.85693" lon="4.78229">
        <ele>514.4</ele>
        <time>2011-11-01T09:01:20Z</time>
      </trkpt>
      <trkpt lat="45.85691" lon="4.78222">
        <ele>514.4</ele>
        <time>2011-11-01T09:01:22Z</time>
      </trkpt>
      <trkpt lat="45.8568" lon="4.78205">
        <ele>514.4</ele>
        <time>2011-11-01T09:01:28Z</time>
      </trkpt>
      <trkpt lat="45.85679" lon="4.78202">
        <ele>514.4</ele>
        <time>2011-11-01T09:01:29Z</time>
      </trkpt>
      <trkpt lat="45.85671" lon="4.7819">
        <ele>514.2</ele>
        <time>2011-11-01T09:01:34Z</time>
      </trkpt>
      <trkpt lat="45.85664" lon="4.78174">
        <ele>513.8</ele>
        <time>2011-11-01T09:01:40Z</time>
      </trkpt>
      <trkpt lat="45.85663" lon="4.78171">
        <ele>513.8</ele>
        <time>2011-11-01T09:01:41Z</time>
      </trkpt>
      <trkpt lat="45.8566" lon="4.78161">
        <ele>513.4</ele>
        <time>2011-11-01T09:01:45Z</time>
      </trkpt>
      <trkpt lat="45.8566" lon="4.78158">
        <ele>513.4</ele>
        <time>2011-11-01T09:01:46Z</time>
      </trkpt>
      <trkpt lat="45.85657" lon="4.78145">
        <ele>513.4</ele>
        <time>2011-11-01T09:01:50Z</time>
      </trkpt>
      <trkpt lat="45.8565" lon="4.78131">
        <ele>513.2</ele>
        <time>2011-11-01T09:01:55Z</time>
      </trkpt>
      <trkpt lat="45.85643" lon="4.78115">
        <ele>513</ele>
        <time>2011-11-01T09:02:01Z</time>
      </trkpt>
      <trkpt lat="45.85642" lon="4.7811">
        <ele>513</ele>
        <time>2011-11-01T09:02:03Z</time>
      </trkpt>
      <trkpt lat="45.85638" lon="4.78102">
        <ele>513</ele>
        <time>2011-11-01T09:02:06Z</time>
      </trkpt>
      <trkpt lat="45.85629" lon="4.78087">
        <ele>512.6</ele>
        <time>2011-11-01T09:02:12Z</time>
      </trkpt>
      <trkpt lat="45.85628" lon="4.78086">
        <ele>512.6</ele>
        <time>2011-11-01T09:02:13Z</time>
      </trkpt>
      <trkpt lat="45.85625" lon="4.78077">
        <ele>512.2</ele>
        <time>2011-11-01T09:02:16Z</time>
      </trkpt>
      <trkpt lat="45.8562" lon="4.7807">
        <ele>512</ele>
        <time>2011-11-01T09:02:19Z</time>
      </trkpt>
      <trkpt lat="45.85617" lon="4.78064">
        <ele>511.8</ele>
        <time>2011-11-01T09:02:21Z</time>
      </trkpt>
      <trkpt lat="45.85606" lon="4.78049">
        <ele>511.2</ele>
        <time>2011-11-01T09:02:27Z</time>
      </trkpt>
      <trkpt lat="45.85604" lon="4.78047">
        <ele>511</ele>
        <time>2011-11-01T09:02:28Z</time>
      </trkpt>
      <trkpt lat="45.85601" lon="4.78041">
        <ele>510.8</ele>
        <time>2011-11-01T09:02:31Z</time>
      </trkpt>
      <trkpt lat="45.85597" lon="4.78029">
        <ele>510.2</ele>
        <time>2011-11-01T09:02:36Z</time>
      </trkpt>
      <trkpt lat="45.85596" lon="4.78027">
        <ele>510.2</ele>
        <time>2011-11-01T09:02:37Z</time>
      </trkpt>
      <trkpt lat="45.85594" lon="4.78015">
        <ele>509.8</ele>
        <time>2011-11-01T09:02:41Z</time>
      </trkpt>
      <trkpt lat="45.85592" lon="4.78">
        <ele>509.4</ele>
        <time>2011-11-01T09:02:46Z</time>
      </trkpt>
      <trkpt lat="45.85589" lon="4.77987">
        <ele>509.2</ele>
        <time>2011-11-01T09:02:50Z</time>
      </trkpt>
      <trkpt lat="45.8559" lon="4.77977">
        <ele>508.8</ele>
        <time>2011-11-01T09:02:54Z</time>
      </trkpt>
      <trkpt lat="45.85593" lon="4.7796">
        <ele>508.2</ele>
        <time>2011-11-01T09:02:59Z</time>
      </trkpt>
      <trkpt lat="45.85599" lon="4.77947">
        <ele>507.6</ele>
        <time>2011-11-01T09:03:03Z</time>
      </trkpt>
      <trkpt lat="45.85601" lon="4.77945">
        <ele>507.4</ele>
        <time>2011-11-01T09:03:04Z</time>
      </trkpt>
      <trkpt lat="45.85608" lon="4.77938">
        <ele>506.8</ele>
        <time>2011-11-01T09:03:08Z</time>
      </trkpt>
      <trkpt lat="45.85609" lon="4.77936">
        <ele>506.4</ele>
        <time>2011-11-01T09:03:09Z</time>
      </trkpt>
      <trkpt lat="45.85611" lon="4.77936">
        <ele>506.4</ele>
        <time>2011-11-01T09:03:10Z</time>
      </trkpt>
      <trkpt lat="45.85614" lon="4.77928">
        <ele>505.6</ele>
        <time>2011-11-01T09:03:14Z</time>
      </trkpt>
      <trkpt lat="45.85617" lon="4.77918">
        <ele>504.6</ele>
        <time>2011-11-01T09:03:19Z</time>
      </trkpt>
      <trkpt lat="45.85619" lon="4.77913">
        <ele>503.8</ele>
        <time>2011-11-01T09:03:22Z</time>
      </trkpt>
      <trkpt lat="45.8562" lon="4.7791">
        <ele>503.2</ele>
        <time>2011-11-01T09:03:24Z</time>
      </trkpt>
      <trkpt lat="45.85619" lon="4.77903">
        <ele>502.2</ele>
        <time>2011-11-01T09:03:28Z</time>
      </trkpt>
      <trkpt lat="45.85619" lon="4.77901">
        <ele>502</ele>
        <time>2011-11-01T09:03:29Z</time>
      </trkpt>
      <trkpt lat="45.85619" lon="4.77894">
        <ele>501</ele>
        <time>2011-11-01T09:03:32Z</time>
      </trkpt>
      <trkpt lat="45.85619" lon="4.77891">
        <ele>500.6</ele>
        <time>2011-11-01T09:03:34Z</time>
      </trkpt>
      <trkpt lat="45.85618" lon="4.77883">
        <ele>499.6</ele>
        <time>2011-11-01T09:03:38Z</time>
      </trkpt>
      <trkpt lat="45.85619" lon="4.7788">
        <ele>499</ele>
        <time>2011-11-01T09:03:40Z</time>
      </trkpt>
      <trkpt lat="45.8562" lon="4.77877">
        <ele>498.6</ele>
        <time>2011-11-01T09:03:42Z</time>
      </trkpt>
      <trkpt lat="45.85621" lon="4.77871">
        <ele>498</ele>
        <time>2011-11-01T09:03:45Z</time>
      </trkpt>
      <trkpt lat="45.85622" lon="4.77868">
        <ele>497.6</ele>
        <time>2011-11-01T09:03:47Z</time>
      </trkpt>
      <trkpt lat="45.85624" lon="4.77865">
        <ele>497.2</ele>
        <time>2011-11-01T09:03:49Z</time>
      </trkpt>
      <trkpt lat="45.85626" lon="4.7786">
        <ele>496.6</ele>
        <time>2011-11-01T09:03:52Z</time>
      </trkpt>
      <trkpt lat="45.85627" lon="4.77858">
        <ele>496</ele>
        <time>2011-11-01T09:03:55Z</time>
      </trkpt>
      <trkpt lat="45.85628" lon="4.77856">
        <ele>495.6</ele>
        <time>2011-11-01T09:03:57Z</time>
      </trkpt>
      <trkpt lat="45.85633" lon="4.77849">
        <ele>494.6</ele>
        <time>2011-11-01T09:04:03Z</time>
      </trkpt>
      <trkpt lat="45.85635" lon="4.77847">
        <ele>494.2</ele>
        <time>2011-11-01T09:04:05Z</time>
      </trkpt>
      <trkpt lat="45.85638" lon="4.77841">
        <ele>493.2</ele>
        <time>2011-11-01T09:04:10Z</time>
      </trkpt>
      <trkpt lat="45.85639" lon="4.77839">
        <ele>492.8</ele>
        <time>2011-11-01T09:04:12Z</time>
      </trkpt>
      <trkpt lat="45.85641" lon="4.77835">
        <ele>492.2</ele>
        <time>2011-11-01T09:04:16Z</time>
      </trkpt>
      <trkpt lat="45.85643" lon="4.77828">
        <ele>491.2</ele>
        <time>2011-11-01T09:04:21Z</time>
      </trkpt>
      <trkpt lat="45.85644" lon="4.77824">
        <ele>490.8</ele>
        <time>2011-11-01T09:04:24Z</time>
      </trkpt>
      <trkpt lat="45.85646" lon="4.77822">
        <ele>490.4</ele>
        <time>2011-11-01T09:04:26Z</time>
      </trkpt>
      <trkpt lat="45.85646" lon="4.7782">
        <ele>489.6</ele>
        <time>2011-11-01T09:04:31Z</time>
      </trkpt>
      <trkpt lat="45.85649" lon="4.77813">
        <ele>488.8</ele>
        <time>2011-11-01T09:04:38Z</time>
      </trkpt>
      <trkpt lat="45.85651" lon="4.77808">
        <ele>488.2</ele>
        <time>2011-11-01T09:04:43Z</time>
      </trkpt>
      <trkpt lat="45.85652" lon="4.77803">
        <ele>487.8</ele>
        <time>2011-11-01T09:04:46Z</time>
      </trkpt>
      <trkpt lat="45.85653" lon="4.77799">
        <ele>487.6</ele>
        <time>2011-11-01T09:04:49Z</time>
      </trkpt>
      <trkpt lat="45.85657" lon="4.77789">
        <ele>487</ele>
        <time>2011-11-01T09:04:55Z</time>
      </trkpt>
      <trkpt lat="45.85659" lon="4.77778">
        <ele>486.4</ele>
        <time>2011-11-01T09:05:01Z</time>
      </trkpt>
      <trkpt lat="45.85663" lon="4.77767">
        <ele>485.8</ele>
        <time>2011-11-01T09:05:08Z</time>
      </trkpt>
      <trkpt lat="45.85665" lon="4.77759">
        <ele>485.2</ele>
        <time>2011-11-01T09:05:13Z</time>
      </trkpt>
      <trkpt lat="45.85665" lon="4.77756">
        <ele>485</ele>
        <time>2011-11-01T09:05:15Z</time>
      </trkpt>
      <trkpt lat="45.85665" lon="4.77754">
        <ele>485</ele>
        <time>2011-11-01T09:05:16Z</time>
      </trkpt>
      <trkpt lat="45.85665" lon="4.77751">
        <ele>484.8</ele>
        <time>2011-11-01T09:05:18Z</time>
      </trkpt>
      <trkpt lat="45.85664" lon="4.77747">
        <ele>484.6</ele>
        <time>2011-11-01T09:05:20Z</time>
      </trkpt>
      <trkpt lat="45.85665" lon="4.77742">
        <ele>484.4</ele>
        <time>2011-11-01T09:05:23Z</time>
      </trkpt>
      <trkpt lat="45.85667" lon="4.77733">
        <ele>484.2</ele>
        <time>2011-11-01T09:05:30Z</time>
      </trkpt>
      <trkpt lat="45.85668" lon="4.77724">
        <ele>484.2</ele>
        <time>2011-11-01T09:05:36Z</time>
      </trkpt>
      <trkpt lat="45.85668" lon="4.77721">
        <ele>484.2</ele>
        <time>2011-11-01T09:05:37Z</time>
      </trkpt>
      <trkpt lat="45.85669" lon="4.77708">
        <ele>484.2</ele>
        <time>2011-11-01T09:05:44Z</time>
      </trkpt>
      <trkpt lat="45.85669" lon="4.77702">
        <ele>484.4</ele>
        <time>2011-11-01T09:05:47Z</time>
      </trkpt>
      <trkpt lat="45.8567" lon="4.77696">
        <ele>484.4</ele>
        <time>2011-11-01T09:05:50Z</time>
      </trkpt>
      <trkpt lat="45.8567" lon="4.77694">
        <ele>484.6</ele>
        <time>2011-11-01T09:05:51Z</time>
      </trkpt>
      <trkpt lat="45.85672" lon="4.77679">
        <ele>485</ele>
        <time>2011-11-01T09:05:59Z</time>
      </trkpt>
      <trkpt lat="45.85674" lon="4.77666">
        <ele>485.2</ele>
        <time>2011-11-01T09:06:06Z</time>
      </trkpt>
      <trkpt lat="45.85674" lon="4.77662">
        <ele>485.4</ele>
        <time>2011-11-01T09:06:08Z</time>
      </trkpt>
      <trkpt lat="45.85674" lon="4.77653">
        <ele>485.6</ele>
        <time>2011-11-01T09:06:11Z</time>
      </trkpt>
      <trkpt lat="45.85674" lon="4.7765">
        <ele>485.6</ele>
        <time>2011-11-01T09:06:12Z</time>
      </trkpt>
      <trkpt lat="45.85676" lon="4.77636">
        <ele>485.6</ele>
        <time>2011-11-01T09:06:16Z</time>
      </trkpt>
      <trkpt lat="45.85678" lon="4.77622">
        <ele>486</ele>
        <time>2011-11-01T09:06:21Z</time>
      </trkpt>
      <trkpt lat="45.85679" lon="4.77616">
        <ele>486.2</ele>
        <time>2011-11-01T09:06:23Z</time>
      </trkpt>
      <trkpt lat="45.8568" lon="4.7761">
        <ele>486.4</ele>
        <time>2011-11-01T09:06:25Z</time>
      </trkpt>
      <trkpt lat="45.8568" lon="4.77598">
        <ele>486.8</ele>
        <time>2011-11-01T09:06:29Z</time>
      </trkpt>
      <trkpt lat="45.85681" lon="4.77594">
        <ele>486.8</ele>
        <time>2011-11-01T09:06:30Z</time>
      </trkpt>
      <trkpt lat="45.85682" lon="4.77581">
        <ele>487</ele>
        <time>2011-11-01T09:06:34Z</time>
      </trkpt>
      <trkpt lat="45.85682" lon="4.77578">
        <ele>487.2</ele>
        <time>2011-11-01T09:06:35Z</time>
      </trkpt>
      <trkpt lat="45.85685" lon="4.77561">
        <ele>487.4</ele>
        <time>2011-11-01T09:06:41Z</time>
      </trkpt>
      <trkpt lat="45.85686" lon="4.77556">
        <ele>487.6</ele>
        <time>2011-11-01T09:06:45Z</time>
      </trkpt>
      <trkpt lat="45.85689" lon="4.77546">
        <ele>487.6</ele>
        <time>2011-11-01T09:06:49Z</time>
      </trkpt>
      <trkpt lat="45.8569" lon="4.77544">
        <ele>487.8</ele>
        <time>2011-11-01T09:06:50Z</time>
      </trkpt>
      <trkpt lat="45.85693" lon="4.77534">
        <ele>487.8</ele>
        <time>2011-11-01T09:06:54Z</time>
      </trkpt>
      <trkpt lat="45.85695" lon="4.77528">
        <ele>487.8</ele>
        <time>2011-11-01T09:06:56Z</time>
      </trkpt>
      <trkpt lat="45.857" lon="4.77517">
        <ele>488</ele>
        <time>2011-11-01T09:07:00Z</time>
      </trkpt>
      <trkpt lat="45.85701" lon="4.77515">
        <ele>488</ele>
        <time>2011-11-01T09:07:01Z</time>
      </trkpt>
      <trkpt lat="45.85703" lon="4.77503">
        <ele>488.4</ele>
        <time>2011-11-01T09:07:05Z</time>
      </trkpt>
      <trkpt lat="45.85703" lon="4.77499">
        <ele>488.2</ele>
        <time>2011-11-01T09:07:06Z</time>
      </trkpt>
      <trkpt lat="45.85706" lon="4.77483">
        <ele>488.2</ele>
        <time>2011-11-01T09:07:11Z</time>
      </trkpt>
      <trkpt lat="45.85712" lon="4.77469">
        <ele>488.2</ele>
        <time>2011-11-01T09:07:16Z</time>
      </trkpt>
      <trkpt lat="45.85716" lon="4.77457">
        <ele>488.4</ele>
        <time>2011-11-01T09:07:21Z</time>
      </trkpt>
      <trkpt lat="45.85718" lon="4.7745">
        <ele>488.4</ele>
        <time>2011-11-01T09:07:23Z</time>
      </trkpt>
      <trkpt lat="45.85717" lon="4.77441">
        <ele>488.4</ele>
        <time>2011-11-01T09:07:26Z</time>
      </trkpt>
      <trkpt lat="45.85716" lon="4.77431">
        <ele>488.6</ele>
        <time>2011-11-01T09:07:29Z</time>
      </trkpt>
      <trkpt lat="45.85717" lon="4.7743">
        <ele>488.8</ele>
        <time>2011-11-01T09:07:30Z</time>
      </trkpt>
      <trkpt lat="45.85718" lon="4.7743">
        <ele>489</ele>
        <time>2011-11-01T09:07:31Z</time>
      </trkpt>
      <trkpt lat="45.85723" lon="4.77431">
        <ele>489.8</ele>
        <time>2011-11-01T09:07:34Z</time>
      </trkpt>
      <trkpt lat="45.85733" lon="4.77431">
        <ele>491.4</ele>
        <time>2011-11-01T09:07:39Z</time>
      </trkpt>
      <trkpt lat="45.85739" lon="4.77432">
        <ele>492.4</ele>
        <time>2011-11-01T09:07:42Z</time>
      </trkpt>
      <trkpt lat="45.85741" lon="4.77432">
        <ele>492.8</ele>
        <time>2011-11-01T09:07:43Z</time>
      </trkpt>
      <trkpt lat="45.8575" lon="4.77436">
        <ele>495.2</ele>
        <time>2011-11-01T09:07:48Z</time>
      </trkpt>
      <trkpt lat="45.8576" lon="4.77438">
        <ele>496.8</ele>
        <time>2011-11-01T09:07:52Z</time>
      </trkpt>
      <trkpt lat="45.8577" lon="4.77442">
        <ele>499.8</ele>
        <time>2011-11-01T09:07:57Z</time>
      </trkpt>
      <trkpt lat="45.85773" lon="4.77442">
        <ele>500.4</ele>
        <time>2011-11-01T09:07:58Z</time>
      </trkpt>
      <trkpt lat="45.85776" lon="4.77441">
        <ele>500.8</ele>
        <time>2011-11-01T09:07:59Z</time>
      </trkpt>
      <trkpt lat="45.85782" lon="4.77442">
        <ele>502.6</ele>
        <time>2011-11-01T09:08:01Z</time>
      </trkpt>
      <trkpt lat="45.85802" lon="4.77448">
        <ele>505.4</ele>
        <time>2011-11-01T09:08:08Z</time>
      </trkpt>
      <trkpt lat="45.85811" lon="4.77458">
        <ele>505.4</ele>
        <time>2011-11-01T09:08:13Z</time>
      </trkpt>
      <trkpt lat="45.85813" lon="4.7746">
        <ele>505.4</ele>
        <time>2011-11-01T09:08:14Z</time>
      </trkpt>
      <trkpt lat="45.85819" lon="4.77465">
        <ele>505.2</ele>
        <time>2011-11-01T09:08:17Z</time>
      </trkpt>
      <trkpt lat="45.85821" lon="4.77465">
        <ele>505.2</ele>
        <time>2011-11-01T09:08:18Z</time>
      </trkpt>
      <trkpt lat="45.85833" lon="4.77466">
        <ele>505</ele>
        <time>2011-11-01T09:08:23Z</time>
      </trkpt>
      <trkpt lat="45.85835" lon="4.77465">
        <ele>504.8</ele>
        <time>2011-11-01T09:08:24Z</time>
      </trkpt>
      <trkpt lat="45.85844" lon="4.77463">
        <ele>504.4</ele>
        <time>2011-11-01T09:08:28Z</time>
      </trkpt>
      <trkpt lat="45.85847" lon="4.77464">
        <ele>504.2</ele>
        <time>2011-11-01T09:08:29Z</time>
      </trkpt>
      <trkpt lat="45.85856" lon="4.77465">
        <ele>503.8</ele>
        <time>2011-11-01T09:08:33Z</time>
      </trkpt>
      <trkpt lat="45.85867" lon="4.77465">
        <ele>503.4</ele>
        <time>2011-11-01T09:08:37Z</time>
      </trkpt>
      <trkpt lat="45.8588" lon="4.77467">
        <ele>502.8</ele>
        <time>2011-11-01T09:08:42Z</time>
      </trkpt>
      <trkpt lat="45.85885" lon="4.77469">
        <ele>502.4</ele>
        <time>2011-11-01T09:08:44Z</time>
      </trkpt>
      <trkpt lat="45.85897" lon="4.77472">
        <ele>502</ele>
        <time>2011-11-01T09:08:48Z</time>
      </trkpt>
      <trkpt lat="45.85905" lon="4.77469">
        <ele>501.6</ele>
        <time>2011-11-01T09:08:52Z</time>
      </trkpt>
      <trkpt lat="45.85907" lon="4.77469">
        <ele>501.4</ele>
        <time>2011-11-01T09:08:53Z</time>
      </trkpt>
      <trkpt lat="45.85916" lon="4.7747">
        <ele>500.8</ele>
        <time>2011-11-01T09:08:57Z</time>
      </trkpt>
      <trkpt lat="45.85922" lon="4.77473">
        <ele>500.2</ele>
        <time>2011-11-01T09:09:00Z</time>
      </trkpt>
      <trkpt lat="45.85925" lon="4.77475">
        <ele>499.8</ele>
        <time>2011-11-01T09:09:02Z</time>
      </trkpt>
      <trkpt lat="45.85934" lon="4.77474">
        <ele>498.8</ele>
        <time>2011-11-01T09:09:06Z</time>
      </trkpt>
      <trkpt lat="45.85936" lon="4.77473">
        <ele>498.6</ele>
        <time>2011-11-01T09:09:07Z</time>
      </trkpt>
      <trkpt lat="45.85945" lon="4.77476">
        <ele>497.6</ele>
        <time>2011-11-01T09:09:11Z</time>
      </trkpt>
      <trkpt lat="45.85947" lon="4.77477">
        <ele>497.4</ele>
        <time>2011-11-01T09:09:12Z</time>
      </trkpt>
      <trkpt lat="45.85953" lon="4.77479">
        <ele>496.2</ele>
        <time>2011-11-01T09:09:16Z</time>
      </trkpt>
      <trkpt lat="45.85956" lon="4.77482">
        <ele>495.8</ele>
        <time>2011-11-01T09:09:18Z</time>
      </trkpt>
      <trkpt lat="45.85963" lon="4.77481">
        <ele>494.6</ele>
        <time>2011-11-01T09:09:22Z</time>
      </trkpt>
      <trkpt lat="45.85965" lon="4.77481">
        <ele>494.4</ele>
        <time>2011-11-01T09:09:23Z</time>
      </trkpt>
      <trkpt lat="45.85967" lon="4.77481">
        <ele>494</ele>
        <time>2011-11-01T09:09:24Z</time>
      </trkpt>
      <trkpt lat="45.85972" lon="4.77485">
        <ele>493.2</ele>
        <time>2011-11-01T09:09:27Z</time>
      </trkpt>
      <trkpt lat="45.85979" lon="4.77492">
        <ele>492</ele>
        <time>2011-11-01T09:09:31Z</time>
      </trkpt>
      <trkpt lat="45.85986" lon="4.77493">
        <ele>490.6</ele>
        <time>2011-11-01T09:09:35Z</time>
      </trkpt>
      <trkpt lat="45.85993" lon="4.77493">
        <ele>490</ele>
        <time>2011-11-01T09:09:37Z</time>
      </trkpt>
      <trkpt lat="45.85998" lon="4.77492">
        <ele>489.4</ele>
        <time>2011-11-01T09:09:39Z</time>
      </trkpt>
      <trkpt lat="45.86" lon="4.77491">
        <ele>489</ele>
        <time>2011-11-01T09:09:40Z</time>
      </trkpt>
      <trkpt lat="45.86004" lon="4.7749">
        <ele>488.2</ele>
        <time>2011-11-01T09:09:42Z</time>
      </trkpt>
      <trkpt lat="45.86007" lon="4.77489">
        <ele>488</ele>
        <time>2011-11-01T09:09:43Z</time>
      </trkpt>
      <trkpt lat="45.86017" lon="4.77484">
        <ele>486.4</ele>
        <time>2011-11-01T09:09:48Z</time>
      </trkpt>
      <trkpt lat="45.86028" lon="4.77487">
        <ele>485.2</ele>
        <time>2011-11-01T09:09:52Z</time>
      </trkpt>
      <trkpt lat="45.86029" lon="4.77487">
        <ele>485</ele>
        <time>2011-11-01T09:09:53Z</time>
      </trkpt>
      <trkpt lat="45.86037" lon="4.77489">
        <ele>483.6</ele>
        <time>2011-11-01T09:09:57Z</time>
      </trkpt>
      <trkpt lat="45.86049" lon="4.77489">
        <ele>482</ele>
        <time>2011-11-01T09:10:02Z</time>
      </trkpt>
      <trkpt lat="45.86052" lon="4.77484">
        <ele>480.8</ele>
        <time>2011-11-01T09:10:05Z</time>
      </trkpt>
      <trkpt lat="45.86057" lon="4.77482">
        <ele>479.8</ele>
        <time>2011-11-01T09:10:08Z</time>
      </trkpt>
      <trkpt lat="45.86065" lon="4.77481">
        <ele>478.6</ele>
        <time>2011-11-01T09:10:11Z</time>
      </trkpt>
      <trkpt lat="45.86076" lon="4.77478">
        <ele>477</ele>
        <time>2011-11-01T09:10:15Z</time>
      </trkpt>
      <trkpt lat="45.86086" lon="4.7748">
        <ele>475.2</ele>
        <time>2011-11-01T09:10:19Z</time>
      </trkpt>
      <trkpt lat="45.86101" lon="4.77481">
        <ele>473.2</ele>
        <time>2011-11-01T09:10:24Z</time>
      </trkpt>
      <trkpt lat="45.86114" lon="4.77482">
        <ele>471</ele>
        <time>2011-11-01T09:10:29Z</time>
      </trkpt>
      <trkpt lat="45.86128" lon="4.77481">
        <ele>469</ele>
        <time>2011-11-01T09:10:34Z</time>
      </trkpt>
      <trkpt lat="45.8613" lon="4.77477">
        <ele>467.4</ele>
        <time>2011-11-01T09:10:38Z</time>
      </trkpt>
      <trkpt lat="45.86132" lon="4.77479">
        <ele>466</ele>
        <time>2011-11-01T09:10:42Z</time>
      </trkpt>
      <trkpt lat="45.86133" lon="4.77481">
        <ele>465.2</ele>
        <time>2011-11-01T09:10:44Z</time>
      </trkpt>
      <trkpt lat="45.86136" lon="4.77483">
        <ele>459.4</ele>
        <time>2011-11-01T09:11:00Z</time>
      </trkpt>
      <trkpt lat="45.8614" lon="4.77486">
        <ele>451.2</ele>
        <time>2011-11-01T09:11:26Z</time>
      </trkpt>
      <trkpt lat="45.86143" lon="4.77489">
        <ele>450</ele>
        <time>2011-11-01T09:11:31Z</time>
      </trkpt>
      <trkpt lat="45.86145" lon="4.77488">
        <ele>449.2</ele>
        <time>2011-11-01T09:11:34Z</time>
      </trkpt>
      <trkpt lat="45.86151" lon="4.77486">
        <ele>448.6</ele>
        <time>2011-11-01T09:11:37Z</time>
      </trkpt>
      <trkpt lat="45.86158" lon="4.77489">
        <ele>447.8</ele>
        <time>2011-11-01T09:11:41Z</time>
      </trkpt>
      <trkpt lat="45.86165" lon="4.77495">
        <ele>447.2</ele>
        <time>2011-11-01T09:11:45Z</time>
      </trkpt>
      <trkpt lat="45.86169" lon="4.77494">
        <ele>446.8</ele>
        <time>2011-11-01T09:11:47Z</time>
      </trkpt>
      <trkpt lat="45.86173" lon="4.77494">
        <ele>446.6</ele>
        <time>2011-11-01T09:11:49Z</time>
      </trkpt>
      <trkpt lat="45.86181" lon="4.7749">
        <ele>446.4</ele>
        <time>2011-11-01T09:11:53Z</time>
      </trkpt>
      <trkpt lat="45.86192" lon="4.77489">
        <ele>446</ele>
        <time>2011-11-01T09:11:59Z</time>
      </trkpt>
      <trkpt lat="45.86202" lon="4.77491">
        <ele>445.6</ele>
        <time>2011-11-01T09:12:04Z</time>
      </trkpt>
      <trkpt lat="45.86204" lon="4.77493">
        <ele>445.4</ele>
        <time>2011-11-01T09:12:05Z</time>
      </trkpt>
      <trkpt lat="45.86212" lon="4.77499">
        <ele>445</ele>
        <time>2011-11-01T09:12:08Z</time>
      </trkpt>
      <trkpt lat="45.86215" lon="4.775">
        <ele>444.8</ele>
        <time>2011-11-01T09:12:09Z</time>
      </trkpt>
      <trkpt lat="45.86219" lon="4.77503">
        <ele>444.6</ele>
        <time>2011-11-01T09:12:11Z</time>
      </trkpt>
      <trkpt lat="45.86221" lon="4.77507">
        <ele>444</ele>
        <time>2011-11-01T09:12:13Z</time>
      </trkpt>
      <trkpt lat="45.86224" lon="4.77509">
        <ele>443.2</ele>
        <time>2011-11-01T09:12:17Z</time>
      </trkpt>
      <trkpt lat="45.86234" lon="4.77507">
        <ele>442</ele>
        <time>2011-11-01T09:12:23Z</time>
      </trkpt>
      <trkpt lat="45.86237" lon="4.77507">
        <ele>441.6</ele>
        <time>2011-11-01T09:12:24Z</time>
      </trkpt>
      <trkpt lat="45.86247" lon="4.77508">
        <ele>440.6</ele>
        <time>2011-11-01T09:12:28Z</time>
      </trkpt>
      <trkpt lat="45.86254" lon="4.77509">
        <ele>439.4</ele>
        <time>2011-11-01T09:12:32Z</time>
      </trkpt>
      <trkpt lat="45.86263" lon="4.77508">
        <ele>438</ele>
        <time>2011-11-01T09:12:37Z</time>
      </trkpt>
      <trkpt lat="45.86273" lon="4.77508">
        <ele>436.8</ele>
        <time>2011-11-01T09:12:41Z</time>
      </trkpt>
      <trkpt lat="45.86277" lon="4.77508">
        <ele>436.2</ele>
        <time>2011-11-01T09:12:43Z</time>
      </trkpt>
      <trkpt lat="45.86288" lon="4.77507">
        <ele>435</ele>
        <time>2011-11-01T09:12:47Z</time>
      </trkpt>
      <trkpt lat="45.863" lon="4.77508">
        <ele>433.6</ele>
        <time>2011-11-01T09:12:52Z</time>
      </trkpt>
      <trkpt lat="45.86311" lon="4.77512">
        <ele>432.6</ele>
        <time>2011-11-01T09:12:56Z</time>
      </trkpt>
      <trkpt lat="45.86313" lon="4.77512">
        <ele>432.2</ele>
        <time>2011-11-01T09:12:57Z</time>
      </trkpt>
      <trkpt lat="45.86327" lon="4.77513">
        <ele>430.8</ele>
        <time>2011-11-01T09:13:02Z</time>
      </trkpt>
      <trkpt lat="45.8634" lon="4.77516">
        <ele>429.2</ele>
        <time>2011-11-01T09:13:08Z</time>
      </trkpt>
      <trkpt lat="45.86347" lon="4.7752">
        <ele>428.2</ele>
        <time>2011-11-01T09:13:11Z</time>
      </trkpt>
      <trkpt lat="45.86352" lon="4.77522">
        <ele>427.4</ele>
        <time>2011-11-01T09:13:14Z</time>
      </trkpt>
      <trkpt lat="45.86365" lon="4.77526">
        <ele>425.4</ele>
        <time>2011-11-01T09:13:20Z</time>
      </trkpt>
      <trkpt lat="45.86369" lon="4.77528">
        <ele>424.8</ele>
        <time>2011-11-01T09:13:22Z</time>
      </trkpt>
      <trkpt lat="45.86373" lon="4.77528">
        <ele>424.2</ele>
        <time>2011-11-01T09:13:24Z</time>
      </trkpt>
      <trkpt lat="45.86382" lon="4.77527">
        <ele>422.8</ele>
        <time>2011-11-01T09:13:28Z</time>
      </trkpt>
      <trkpt lat="45.86384" lon="4.77527">
        <ele>422.4</ele>
        <time>2011-11-01T09:13:29Z</time>
      </trkpt>
      <trkpt lat="45.86388" lon="4.77527">
        <ele>421.8</ele>
        <time>2011-11-01T09:13:31Z</time>
      </trkpt>
      <trkpt lat="45.86389" lon="4.77526">
        <ele>421.6</ele>
        <time>2011-11-01T09:13:32Z</time>
      </trkpt>
      <trkpt lat="45.86394" lon="4.77519">
        <ele>420.4</ele>
        <time>2011-11-01T09:13:36Z</time>
      </trkpt>
      <trkpt lat="45.86404" lon="4.77521">
        <ele>418.8</ele>
        <time>2011-11-01T09:13:41Z</time>
      </trkpt>
      <trkpt lat="45.86407" lon="4.77522">
        <ele>418.4</ele>
        <time>2011-11-01T09:13:42Z</time>
      </trkpt>
      <trkpt lat="45.86411" lon="4.77524">
        <ele>417.8</ele>
        <time>2011-11-01T09:13:44Z</time>
      </trkpt>
      <trkpt lat="45.86413" lon="4.77525">
        <ele>417.4</ele>
        <time>2011-11-01T09:13:45Z</time>
      </trkpt>
      <trkpt lat="45.86416" lon="4.77528">
        <ele>416.6</ele>
        <time>2011-11-01T09:13:47Z</time>
      </trkpt>
      <trkpt lat="45.86424" lon="4.77529">
        <ele>415.4</ele>
        <time>2011-11-01T09:13:51Z</time>
      </trkpt>
      <trkpt lat="45.86432" lon="4.77523">
        <ele>413.8</ele>
        <time>2011-11-01T09:13:56Z</time>
      </trkpt>
      <trkpt lat="45.86441" lon="4.77517">
        <ele>412.4</ele>
        <time>2011-11-01T09:14:01Z</time>
      </trkpt>
      <trkpt lat="45.86451" lon="4.77512">
        <ele>410.6</ele>
        <time>2011-11-01T09:14:07Z</time>
      </trkpt>
      <trkpt lat="45.86463" lon="4.77508">
        <ele>409.2</ele>
        <time>2011-11-01T09:14:13Z</time>
      </trkpt>
      <trkpt lat="45.86469" lon="4.77508">
        <ele>408.6</ele>
        <time>2011-11-01T09:14:15Z</time>
      </trkpt>
      <trkpt lat="45.86474" lon="4.77509">
        <ele>408.2</ele>
        <time>2011-11-01T09:14:17Z</time>
      </trkpt>
      <trkpt lat="45.86485" lon="4.77506">
        <ele>407</ele>
        <time>2011-11-01T09:14:22Z</time>
      </trkpt>
      <trkpt lat="45.86488" lon="4.77506">
        <ele>406.8</ele>
        <time>2011-11-01T09:14:23Z</time>
      </trkpt>
      <trkpt lat="45.86499" lon="4.77506">
        <ele>406</ele>
        <time>2011-11-01T09:14:27Z</time>
      </trkpt>
      <trkpt lat="45.86505" lon="4.77508">
        <ele>405.2</ele>
        <time>2011-11-01T09:14:30Z</time>
      </trkpt>
      <trkpt lat="45.86509" lon="4.77507">
        <ele>404.8</ele>
        <time>2011-11-01T09:14:32Z</time>
      </trkpt>
      <trkpt lat="45.86514" lon="4.77506">
        <ele>404.2</ele>
        <time>2011-11-01T09:14:35Z</time>
      </trkpt>
      <trkpt lat="45.86517" lon="4.77505">
        <ele>404</ele>
        <time>2011-11-01T09:14:36Z</time>
      </trkpt>
      <trkpt lat="45.86524" lon="4.77503">
        <ele>403.4</ele>
        <time>2011-11-01T09:14:39Z</time>
      </trkpt>
      <trkpt lat="45.86529" lon="4.77501">
        <ele>403</ele>
        <time>2011-11-01T09:14:41Z</time>
      </trkpt>
      <trkpt lat="45.86542" lon="4.77496">
        <ele>402.2</ele>
        <time>2011-11-01T09:14:46Z</time>
      </trkpt>
      <trkpt lat="45.86544" lon="4.77495">
        <ele>402</ele>
        <time>2011-11-01T09:14:47Z</time>
      </trkpt>
      <trkpt lat="45.86549" lon="4.77492">
        <ele>401.4</ele>
        <time>2011-11-01T09:14:50Z</time>
      </trkpt>
      <trkpt lat="45.8656" lon="4.77487">
        <ele>400.6</ele>
        <time>2011-11-01T09:14:55Z</time>
      </trkpt>
      <trkpt lat="45.86562" lon="4.77486">
        <ele>400.4</ele>
        <time>2011-11-01T09:14:56Z</time>
      </trkpt>
      <trkpt lat="45.86574" lon="4.77479">
        <ele>399.6</ele>
        <time>2011-11-01T09:15:01Z</time>
      </trkpt>
      <trkpt lat="45.8658" lon="4.77476">
        <ele>399</ele>
        <time>2011-11-01T09:15:05Z</time>
      </trkpt>
      <trkpt lat="45.86582" lon="4.77476">
        <ele>398.8</ele>
        <time>2011-11-01T09:15:07Z</time>
      </trkpt>
      <trkpt lat="45.86583" lon="4.77479">
        <ele>398.2</ele>
        <time>2011-11-01T09:15:09Z</time>
      </trkpt>
      <trkpt lat="45.86587" lon="4.77482">
        <ele>396.4</ele>
        <time>2011-11-01T09:15:16Z</time>
      </trkpt>
      <trkpt lat="45.86586" lon="4.77483">
        <ele>394.2</ele>
        <time>2011-11-01T09:15:24Z</time>
      </trkpt>
      <trkpt lat="45.86585" lon="4.77489">
        <ele>393.6</ele>
        <time>2011-11-01T09:15:26Z</time>
      </trkpt>
      <trkpt lat="45.86585" lon="4.77496">
        <ele>393</ele>
        <time>2011-11-01T09:15:28Z</time>
      </trkpt>
      <trkpt lat="45.86583" lon="4.77505">
        <ele>392</ele>
        <time>2011-11-01T09:15:31Z</time>
      </trkpt>
      <trkpt lat="45.86577" lon="4.77517">
        <ele>390.4</ele>
        <time>2011-11-01T09:15:35Z</time>
      </trkpt>
      <trkpt lat="45.86571" lon="4.77532">
        <ele>388.2</ele>
        <time>2011-11-01T09:15:40Z</time>
      </trkpt>
      <trkpt lat="45.86566" lon="4.77542">
        <ele>386.4</ele>
        <time>2011-11-01T09:15:44Z</time>
      </trkpt>
      <trkpt lat="45.86565" lon="4.77545">
        <ele>385.8</ele>
        <time>2011-11-01T09:15:45Z</time>
      </trkpt>
      <trkpt lat="45.86563" lon="4.7755">
        <ele>384.8</ele>
        <time>2011-11-01T09:15:47Z</time>
      </trkpt>
      <trkpt lat="45.8656" lon="4.77554">
        <ele>383.8</ele>
        <time>2011-11-01T09:15:49Z</time>
      </trkpt>
      <trkpt lat="45.86551" lon="4.7756">
        <ele>381.2</ele>
        <time>2011-11-01T09:15:54Z</time>
      </trkpt>
      <trkpt lat="45.86542" lon="4.77568">
        <ele>378.4</ele>
        <time>2011-11-01T09:15:59Z</time>
      </trkpt>
      <trkpt lat="45.86537" lon="4.77573">
        <ele>377</ele>
        <time>2011-11-01T09:16:02Z</time>
      </trkpt>
      <trkpt lat="45.86535" lon="4.77575">
        <ele>376.4</ele>
        <time>2011-11-01T09:16:03Z</time>
      </trkpt>
      <trkpt lat="45.86533" lon="4.77578">
        <ele>376</ele>
        <time>2011-11-01T09:16:04Z</time>
      </trkpt>
      <trkpt lat="45.86521" lon="4.7759">
        <ele>373</ele>
        <time>2011-11-01T09:16:10Z</time>
      </trkpt>
      <trkpt lat="45.86507" lon="4.776">
        <ele>370.2</ele>
        <time>2011-11-01T09:16:16Z</time>
      </trkpt>
      <trkpt lat="45.86504" lon="4.77601">
        <ele>369.6</ele>
        <time>2011-11-01T09:16:17Z</time>
      </trkpt>
      <trkpt lat="45.86495" lon="4.77607">
        <ele>367.8</ele>
        <time>2011-11-01T09:16:21Z</time>
      </trkpt>
      <trkpt lat="45.86483" lon="4.77612">
        <ele>365.8</ele>
        <time>2011-11-01T09:16:26Z</time>
      </trkpt>
      <trkpt lat="45.86476" lon="4.77614">
        <ele>364.6</ele>
        <time>2011-11-01T09:16:29Z</time>
      </trkpt>
      <trkpt lat="45.86474" lon="4.77613">
        <ele>364.2</ele>
        <time>2011-11-01T09:16:30Z</time>
      </trkpt>
      <trkpt lat="45.86469" lon="4.77614">
        <ele>363.4</ele>
        <time>2011-11-01T09:16:32Z</time>
      </trkpt>
      <trkpt lat="45.86462" lon="4.77615">
        <ele>362.4</ele>
        <time>2011-11-01T09:16:35Z</time>
      </trkpt>
      <trkpt lat="45.86456" lon="4.77617">
        <ele>361.8</ele>
        <time>2011-11-01T09:16:37Z</time>
      </trkpt>
      <trkpt lat="45.86452" lon="4.7762">
        <ele>361.2</ele>
        <time>2011-11-01T09:16:39Z</time>
      </trkpt>
      <trkpt lat="45.86441" lon="4.77624">
        <ele>359.8</ele>
        <time>2011-11-01T09:16:44Z</time>
      </trkpt>
      <trkpt lat="45.86434" lon="4.77626">
        <ele>359.2</ele>
        <time>2011-11-01T09:16:47Z</time>
      </trkpt>
      <trkpt lat="45.86427" lon="4.77628">
        <ele>358.8</ele>
        <time>2011-11-01T09:16:49Z</time>
      </trkpt>
      <trkpt lat="45.86414" lon="4.7763">
        <ele>358</ele>
        <time>2011-11-01T09:16:54Z</time>
      </trkpt>
      <trkpt lat="45.86397" lon="4.77634">
        <ele>357.6</ele>
        <time>2011-11-01T09:17:00Z</time>
      </trkpt>
      <trkpt lat="45.86383" lon="4.77637">
        <ele>357.8</ele>
        <time>2011-11-01T09:17:05Z</time>
      </trkpt>
      <trkpt lat="45.86369" lon="4.77641">
        <ele>358.6</ele>
        <time>2011-11-01T09:17:11Z</time>
      </trkpt>
      <trkpt lat="45.8636" lon="4.77642">
        <ele>359.2</ele>
        <time>2011-11-01T09:17:15Z</time>
      </trkpt>
      <trkpt lat="45.86357" lon="4.77642">
        <ele>359.2</ele>
        <time>2011-11-01T09:17:16Z</time>
      </trkpt>
      <trkpt lat="45.86346" lon="4.77645">
        <ele>359.4</ele>
        <time>2011-11-01T09:17:21Z</time>
      </trkpt>
      <trkpt lat="45.86332" lon="4.7765">
        <ele>359.2</ele>
        <time>2011-11-01T09:17:27Z</time>
      </trkpt>
      <trkpt lat="45.86324" lon="4.77651">
        <ele>359.4</ele>
        <time>2011-11-01T09:17:31Z</time>
      </trkpt>
      <trkpt lat="45.86315" lon="4.77653">
        <ele>359.4</ele>
        <time>2011-11-01T09:17:34Z</time>
      </trkpt>
      <trkpt lat="45.86303" lon="4.77654">
        <ele>359.2</ele>
        <time>2011-11-01T09:17:41Z</time>
      </trkpt>
      <trkpt lat="45.86301" lon="4.77656">
        <ele>359.2</ele>
        <time>2011-11-01T09:17:47Z</time>
      </trkpt>
      <trkpt lat="45.863" lon="4.77655">
        <ele>359</ele>
        <time>2011-11-01T09:17:51Z</time>
      </trkpt>
      <trkpt lat="45.86298" lon="4.77654">
        <ele>359</ele>
        <time>2011-11-01T09:17:54Z</time>
      </trkpt>
      <trkpt lat="45.86288" lon="4.77653">
        <ele>359</ele>
        <time>2011-11-01T09:17:58Z</time>
      </trkpt>
      <trkpt lat="45.86286" lon="4.77652">
        <ele>358.8</ele>
        <time>2011-11-01T09:17:59Z</time>
      </trkpt>
      <trkpt lat="45.8628" lon="4.7765">
        <ele>358.8</ele>
        <time>2011-11-01T09:18:02Z</time>
      </trkpt>
      <trkpt lat="45.86276" lon="4.7765">
        <ele>359.2</ele>
        <time>2011-11-01T09:18:04Z</time>
      </trkpt>
      <trkpt lat="45.86265" lon="4.77646">
        <ele>359.2</ele>
        <time>2011-11-01T09:18:09Z</time>
      </trkpt>
      <trkpt lat="45.86264" lon="4.77646">
        <ele>359.2</ele>
        <time>2011-11-01T09:18:11Z</time>
      </trkpt>
      <trkpt lat="45.86255" lon="4.77647">
        <ele>359.2</ele>
        <time>2011-11-01T09:18:14Z</time>
      </trkpt>
      <trkpt lat="45.86253" lon="4.77646">
        <ele>359.2</ele>
        <time>2011-11-01T09:18:15Z</time>
      </trkpt>
      <trkpt lat="45.86243" lon="4.77645">
        <ele>359.2</ele>
        <time>2011-11-01T09:18:20Z</time>
      </trkpt>
      <trkpt lat="45.86233" lon="4.77644">
        <ele>359.6</ele>
        <time>2011-11-01T09:18:24Z</time>
      </trkpt>
      <trkpt lat="45.86224" lon="4.77644">
        <ele>360.2</ele>
        <time>2011-11-01T09:18:28Z</time>
      </trkpt>
      <trkpt lat="45.86217" lon="4.77645">
        <ele>361.2</ele>
        <time>2011-11-01T09:18:31Z</time>
      </trkpt>
      <trkpt lat="45.86214" lon="4.77647">
        <ele>361.8</ele>
        <time>2011-11-01T09:18:32Z</time>
      </trkpt>
      <trkpt lat="45.86205" lon="4.77648">
        <ele>363</ele>
        <time>2011-11-01T09:18:37Z</time>
      </trkpt>
      <trkpt lat="45.86202" lon="4.77649">
        <ele>363.6</ele>
        <time>2011-11-01T09:18:39Z</time>
      </trkpt>
      <trkpt lat="45.86196" lon="4.77653">
        <ele>364.6</ele>
        <time>2011-11-01T09:18:42Z</time>
      </trkpt>
      <trkpt lat="45.86191" lon="4.77662">
        <ele>365.6</ele>
        <time>2011-11-01T09:18:46Z</time>
      </trkpt>
      <trkpt lat="45.86184" lon="4.77668">
        <ele>366.6</ele>
        <time>2011-11-01T09:18:51Z</time>
      </trkpt>
      <trkpt lat="45.86176" lon="4.77674">
        <ele>367.8</ele>
        <time>2011-11-01T09:18:55Z</time>
      </trkpt>
      <trkpt lat="45.86176" lon="4.77687">
        <ele>368.2</ele>
        <time>2011-11-01T09:19:01Z</time>
      </trkpt>
      <trkpt lat="45.86174" lon="4.77698">
        <ele>368.6</ele>
        <time>2011-11-01T09:19:04Z</time>
      </trkpt>
      <trkpt lat="45.86173" lon="4.777">
        <ele>368.8</ele>
        <time>2011-11-01T09:19:06Z</time>
      </trkpt>
      <trkpt lat="45.86173" lon="4.77708">
        <ele>368.4</ele>
        <time>2011-11-01T09:19:10Z</time>
      </trkpt>
      <trkpt lat="45.86175" lon="4.77708">
        <ele>368.4</ele>
        <time>2011-11-01T09:19:11Z</time>
      </trkpt>
      <trkpt lat="45.86177" lon="4.7771">
        <ele>368.4</ele>
        <time>2011-11-01T09:19:12Z</time>
      </trkpt>
      <trkpt lat="45.86179" lon="4.77711">
        <ele>368.2</ele>
        <time>2011-11-01T09:19:15Z</time>
      </trkpt>
      <trkpt lat="45.86181" lon="4.77712">
        <ele>368.2</ele>
        <time>2011-11-01T09:19:17Z</time>
      </trkpt>
      <trkpt lat="45.86182" lon="4.77711">
        <ele>368</ele>
        <time>2011-11-01T09:19:18Z</time>
      </trkpt>
      <trkpt lat="45.86187" lon="4.77714">
        <ele>367.8</ele>
        <time>2011-11-01T09:19:24Z</time>
      </trkpt>
      <trkpt lat="45.86187" lon="4.77712">
        <ele>367.8</ele>
        <time>2011-11-01T09:19:25Z</time>
      </trkpt>
      <trkpt lat="45.86188" lon="4.77711">
        <ele>368</ele>
        <time>2011-11-01T09:19:27Z</time>
      </trkpt>
      <trkpt lat="45.86192" lon="4.7771">
        <ele>368.8</ele>
        <time>2011-11-01T09:19:32Z</time>
      </trkpt>
      <trkpt lat="45.86196" lon="4.77711">
        <ele>370</ele>
        <time>2011-11-01T09:19:38Z</time>
      </trkpt>
      <trkpt lat="45.86204" lon="4.77713">
        <ele>371.8</ele>
        <time>2011-11-01T09:19:42Z</time>
      </trkpt>
      <trkpt lat="45.8621" lon="4.77715">
        <ele>373.2</ele>
        <time>2011-11-01T09:19:46Z</time>
      </trkpt>
      <trkpt lat="45.86212" lon="4.77714">
        <ele>374.6</ele>
        <time>2011-11-01T09:19:48Z</time>
      </trkpt>
      <trkpt lat="45.86212" lon="4.77712">
        <ele>375.2</ele>
        <time>2011-11-01T09:19:49Z</time>
      </trkpt>
      <trkpt lat="45.86211" lon="4.77709">
        <ele>377</ele>
        <time>2011-11-01T09:19:52Z</time>
      </trkpt>
      <trkpt lat="45.86205" lon="4.77715">
        <ele>383.6</ele>
        <time>2011-11-01T09:20:04Z</time>
      </trkpt>
      <trkpt lat="45.86201" lon="4.77715">
        <ele>385</ele>
        <time>2011-11-01T09:20:07Z</time>
      </trkpt>
      <trkpt lat="45.86198" lon="4.77716">
        <ele>386.6</ele>
        <time>2011-11-01T09:20:11Z</time>
      </trkpt>
      <trkpt lat="45.86189" lon="4.77718">
        <ele>389.2</ele>
        <time>2011-11-01T09:20:17Z</time>
      </trkpt>
      <trkpt lat="45.86189" lon="4.77718">
        <ele>389.4</ele>
        <time>2011-11-01T09:20:18Z</time>
      </trkpt>
      <trkpt lat="45.86185" lon="4.7772">
        <ele>391</ele>
        <time>2011-11-01T09:20:21Z</time>
      </trkpt>
      <trkpt lat="45.86175" lon="4.77719">
        <ele>393.2</ele>
        <time>2011-11-01T09:20:27Z</time>
      </trkpt>
      <trkpt lat="45.86174" lon="4.77718">
        <ele>393.4</ele>
        <time>2011-11-01T09:20:29Z</time>
      </trkpt>
      <trkpt lat="45.86175" lon="4.77719">
        <ele>393.4</ele>
        <time>2011-11-01T09:20:30Z</time>
      </trkpt>
      <trkpt lat="45.86172" lon="4.7772">
        <ele>394.8</ele>
        <time>2011-11-01T09:20:35Z</time>
      </trkpt>
      <trkpt lat="45.86172" lon="4.77721">
        <ele>395</ele>
        <time>2011-11-01T09:20:36Z</time>
      </trkpt>
      <trkpt lat="45.86171" lon="4.77722">
        <ele>395.2</ele>
        <time>2011-11-01T09:20:37Z</time>
      </trkpt>
      <trkpt lat="45.86164" lon="4.77729">
        <ele>395.8</ele>
        <time>2011-11-01T09:20:41Z</time>
      </trkpt>
      <trkpt lat="45.86156" lon="4.77732">
        <ele>396.2</ele>
        <time>2011-11-01T09:20:46Z</time>
      </trkpt>
      <trkpt lat="45.86151" lon="4.77737">
        <ele>397</ele>
        <time>2011-11-01T09:20:50Z</time>
      </trkpt>
      <trkpt lat="45.86146" lon="4.77741">
        <ele>397.2</ele>
        <time>2011-11-01T09:20:53Z</time>
      </trkpt>
      <trkpt lat="45.86143" lon="4.77742">
        <ele>397.4</ele>
        <time>2011-11-01T09:20:55Z</time>
      </trkpt>
      <trkpt lat="45.8614" lon="4.77744">
        <ele>397.6</ele>
        <time>2011-11-01T09:20:57Z</time>
      </trkpt>
      <trkpt lat="45.86136" lon="4.77745">
        <ele>398</ele>
        <time>2011-11-01T09:21:00Z</time>
      </trkpt>
      <trkpt lat="45.86129" lon="4.7775">
        <ele>398</ele>
        <time>2011-11-01T09:21:06Z</time>
      </trkpt>
      <trkpt lat="45.86127" lon="4.7775">
        <ele>398</ele>
        <time>2011-11-01T09:21:07Z</time>
      </trkpt>
      <trkpt lat="45.86125" lon="4.77753">
        <ele>398.2</ele>
        <time>2011-11-01T09:21:10Z</time>
      </trkpt>
      <trkpt lat="45.86123" lon="4.77757">
        <ele>398.2</ele>
        <time>2011-11-01T09:21:12Z</time>
      </trkpt>
      <trkpt lat="45.86121" lon="4.77761">
        <ele>398.2</ele>
        <time>2011-11-01T09:21:15Z</time>
      </trkpt>
      <trkpt lat="45.86119" lon="4.77765">
        <ele>398.2</ele>
        <time>2011-11-01T09:21:18Z</time>
      </trkpt>
      <trkpt lat="45.86118" lon="4.77765">
        <ele>398.4</ele>
        <time>2011-11-01T09:21:19Z</time>
      </trkpt>
      <trkpt lat="45.86116" lon="4.77769">
        <ele>398.4</ele>
        <time>2011-11-01T09:21:22Z</time>
      </trkpt>
      <trkpt lat="45.86117" lon="4.7777">
        <ele>398</ele>
        <time>2011-11-01T09:21:24Z</time>
      </trkpt>
      <trkpt lat="45.86117" lon="4.77773">
        <ele>397.6</ele>
        <time>2011-11-01T09:21:26Z</time>
      </trkpt>
      <trkpt lat="45.86117" lon="4.77775">
        <ele>397.6</ele>
        <time>2011-11-01T09:21:27Z</time>
      </trkpt>
      <trkpt lat="45.86114" lon="4.77782">
        <ele>397.2</ele>
        <time>2011-11-01T09:21:32Z</time>
      </trkpt>
      <trkpt lat="45.86111" lon="4.7779">
        <ele>395.8</ele>
        <time>2011-11-01T09:21:39Z</time>
      </trkpt>
      <trkpt lat="45.86109" lon="4.77795">
        <ele>395.2</ele>
        <time>2011-11-01T09:21:43Z</time>
      </trkpt>
      <trkpt lat="45.86106" lon="4.778">
        <ele>394.4</ele>
        <time>2011-11-01T09:21:47Z</time>
      </trkpt>
      <trkpt lat="45.86104" lon="4.77805">
        <ele>393.6</ele>
        <time>2011-11-01T09:21:52Z</time>
      </trkpt>
      <trkpt lat="45.861" lon="4.77816">
        <ele>391.6</ele>
        <time>2011-11-01T09:22:02Z</time>
      </trkpt>
      <trkpt lat="45.86099" lon="4.7782">
        <ele>391</ele>
        <time>2011-11-01T09:22:05Z</time>
      </trkpt>
      <trkpt lat="45.86095" lon="4.77823">
        <ele>390.2</ele>
        <time>2011-11-01T09:22:09Z</time>
      </trkpt>
      <trkpt lat="45.86091" lon="4.77827">
        <ele>389.4</ele>
        <time>2011-11-01T09:22:14Z</time>
      </trkpt>
      <trkpt lat="45.86089" lon="4.77834">
        <ele>388.4</ele>
        <time>2011-11-01T09:22:20Z</time>
      </trkpt>
      <trkpt lat="45.86087" lon="4.77843">
        <ele>387</ele>
        <time>2011-11-01T09:22:27Z</time>
      </trkpt>
      <trkpt lat="45.86091" lon="4.77844">
        <ele>386.4</ele>
        <time>2011-11-01T09:22:32Z</time>
      </trkpt>
      <trkpt lat="45.86093" lon="4.77841">
        <ele>386.2</ele>
        <time>2011-11-01T09:22:34Z</time>
      </trkpt>
      <trkpt lat="45.86099" lon="4.77838">
        <ele>386</ele>
        <time>2011-11-01T09:22:39Z</time>
      </trkpt>
      <trkpt lat="45.86101" lon="4.77838">
        <ele>386</ele>
        <time>2011-11-01T09:22:40Z</time>
      </trkpt>
      <trkpt lat="45.86103" lon="4.77838">
        <ele>386</ele>
        <time>2011-11-01T09:22:42Z</time>
      </trkpt>
      <trkpt lat="45.86105" lon="4.77837">
        <ele>385.8</ele>
        <time>2011-11-01T09:22:44Z</time>
      </trkpt>
      <trkpt lat="45.86107" lon="4.77838">
        <ele>385.8</ele>
        <time>2011-11-01T09:22:46Z</time>
      </trkpt>
      <trkpt lat="45.86113" lon="4.77838">
        <ele>385.6</ele>
        <time>2011-11-01T09:22:51Z</time>
      </trkpt>
      <trkpt lat="45.86115" lon="4.77838">
        <ele>385.4</ele>
        <time>2011-11-01T09:22:54Z</time>
      </trkpt>
      <trkpt lat="45.8612" lon="4.77837">
        <ele>385.4</ele>
        <time>2011-11-01T09:22:57Z</time>
      </trkpt>
      <trkpt lat="45.86129" lon="4.77829">
        <ele>387.2</ele>
        <time>2011-11-01T09:23:04Z</time>
      </trkpt>
      <trkpt lat="45.86133" lon="4.77827">
        <ele>388.8</ele>
        <time>2011-11-01T09:23:09Z</time>
      </trkpt>
      <trkpt lat="45.86135" lon="4.77828">
        <ele>389.2</ele>
        <time>2011-11-01T09:23:10Z</time>
      </trkpt>
      <trkpt lat="45.86139" lon="4.77829">
        <ele>390</ele>
        <time>2011-11-01T09:23:12Z</time>
      </trkpt>
      <trkpt lat="45.86142" lon="4.77829">
        <ele>392.6</ele>
        <time>2011-11-01T09:23:16Z</time>
      </trkpt>
      <trkpt lat="45.86147" lon="4.77831">
        <ele>397.8</ele>
        <time>2011-11-01T09:23:23Z</time>
      </trkpt>
      <trkpt lat="45.8615" lon="4.77835">
        <ele>402.8</ele>
        <time>2011-11-01T09:23:29Z</time>
      </trkpt>
      <trkpt lat="45.86145" lon="4.77838">
        <ele>407.6</ele>
        <time>2011-11-01T09:23:35Z</time>
      </trkpt>
      <trkpt lat="45.86144" lon="4.77839">
        <ele>408.6</ele>
        <time>2011-11-01T09:23:36Z</time>
      </trkpt>
      <trkpt lat="45.86139" lon="4.77843">
        <ele>410.6</ele>
        <time>2011-11-01T09:23:39Z</time>
      </trkpt>
      <trkpt lat="45.86137" lon="4.77844">
        <ele>411.4</ele>
        <time>2011-11-01T09:23:40Z</time>
      </trkpt>
      <trkpt lat="45.86129" lon="4.77852">
        <ele>415.4</ele>
        <time>2011-11-01T09:23:44Z</time>
      </trkpt>
      <trkpt lat="45.86127" lon="4.77855">
        <ele>416.4</ele>
        <time>2011-11-01T09:23:45Z</time>
      </trkpt>
      <trkpt lat="45.86119" lon="4.77864">
        <ele>420</ele>
        <time>2011-11-01T09:23:49Z</time>
      </trkpt>
      <trkpt lat="45.86115" lon="4.7787">
        <ele>422.2</ele>
        <time>2011-11-01T09:23:52Z</time>
      </trkpt>
      <trkpt lat="45.86112" lon="4.77872">
        <ele>423.4</ele>
        <time>2011-11-01T09:23:54Z</time>
      </trkpt>
      <trkpt lat="45.86104" lon="4.77881">
        <ele>426.6</ele>
        <time>2011-11-01T09:23:59Z</time>
      </trkpt>
      <trkpt lat="45.86101" lon="4.77885">
        <ele>428</ele>
        <time>2011-11-01T09:24:01Z</time>
      </trkpt>
      <trkpt lat="45.86099" lon="4.77887">
        <ele>428.6</ele>
        <time>2011-11-01T09:24:02Z</time>
      </trkpt>
      <trkpt lat="45.86096" lon="4.7789">
        <ele>430</ele>
        <time>2011-11-01T09:24:04Z</time>
      </trkpt>
      <trkpt lat="45.86095" lon="4.77891">
        <ele>430.2</ele>
        <time>2011-11-01T09:24:05Z</time>
      </trkpt>
      <trkpt lat="45.86092" lon="4.77891">
        <ele>430.6</ele>
        <time>2011-11-01T09:24:06Z</time>
      </trkpt>
      <trkpt lat="45.86086" lon="4.77894">
        <ele>431.8</ele>
        <time>2011-11-01T09:24:10Z</time>
      </trkpt>
      <trkpt lat="45.86079" lon="4.77899">
        <ele>433.4</ele>
        <time>2011-11-01T09:24:14Z</time>
      </trkpt>
      <trkpt lat="45.86076" lon="4.77901">
        <ele>433.6</ele>
        <time>2011-11-01T09:24:15Z</time>
      </trkpt>
      <trkpt lat="45.86068" lon="4.77906">
        <ele>433.6</ele>
        <time>2011-11-01T09:24:20Z</time>
      </trkpt>
      <trkpt lat="45.8606" lon="4.77909">
        <ele>433.2</ele>
        <time>2011-11-01T09:24:27Z</time>
      </trkpt>
      <trkpt lat="45.86055" lon="4.77913">
        <ele>432.4</ele>
        <time>2011-11-01T09:24:31Z</time>
      </trkpt>
      <trkpt lat="45.86044" lon="4.77918">
        <ele>430.8</ele>
        <time>2011-11-01T09:24:38Z</time>
      </trkpt>
      <trkpt lat="45.86041" lon="4.77919">
        <ele>430.2</ele>
        <time>2011-11-01T09:24:40Z</time>
      </trkpt>
      <trkpt lat="45.86037" lon="4.77921">
        <ele>429.4</ele>
        <time>2011-11-01T09:24:43Z</time>
      </trkpt>
      <trkpt lat="45.86034" lon="4.77924">
        <ele>428.8</ele>
        <time>2011-11-01T09:24:45Z</time>
      </trkpt>
      <trkpt lat="45.8603" lon="4.77927">
        <ele>428</ele>
        <time>2011-11-01T09:24:48Z</time>
      </trkpt>
      <trkpt lat="45.86026" lon="4.77932">
        <ele>426.8</ele>
        <time>2011-11-01T09:24:52Z</time>
      </trkpt>
      <trkpt lat="45.8602" lon="4.77939">
        <ele>425.6</ele>
        <time>2011-11-01T09:24:56Z</time>
      </trkpt>
      <trkpt lat="45.86016" lon="4.77945">
        <ele>424.4</ele>
        <time>2011-11-01T09:25:00Z</time>
      </trkpt>
      <trkpt lat="45.86015" lon="4.77947">
        <ele>424</ele>
        <time>2011-11-01T09:25:01Z</time>
      </trkpt>
      <trkpt lat="45.86006" lon="4.77953">
        <ele>422.2</ele>
        <time>2011-11-01T09:25:06Z</time>
      </trkpt>
      <trkpt lat="45.86001" lon="4.77955">
        <ele>421</ele>
        <time>2011-11-01T09:25:09Z</time>
      </trkpt>
      <trkpt lat="45.85996" lon="4.77956">
        <ele>419.8</ele>
        <time>2011-11-01T09:25:12Z</time>
      </trkpt>
      <trkpt lat="45.85987" lon="4.77958">
        <ele>417.2</ele>
        <time>2011-11-01T09:25:18Z</time>
      </trkpt>
      <trkpt lat="45.85978" lon="4.77957">
        <ele>414.4</ele>
        <time>2011-11-01T09:25:24Z</time>
      </trkpt>
      <trkpt lat="45.85975" lon="4.77958">
        <ele>412.6</ele>
        <time>2011-11-01T09:25:29Z</time>
      </trkpt>
      <trkpt lat="45.85971" lon="4.7796">
        <ele>410.2</ele>
        <time>2011-11-01T09:25:36Z</time>
      </trkpt>
      <trkpt lat="45.85969" lon="4.7796">
        <ele>410</ele>
        <time>2011-11-01T09:25:37Z</time>
      </trkpt>
      <trkpt lat="45.85959" lon="4.77964">
        <ele>408.6</ele>
        <time>2011-11-01T09:25:41Z</time>
      </trkpt>
      <trkpt lat="45.85956" lon="4.77964">
        <ele>408.2</ele>
        <time>2011-11-01T09:25:42Z</time>
      </trkpt>
      <trkpt lat="45.85951" lon="4.77966">
        <ele>407.8</ele>
        <time>2011-11-01T09:25:44Z</time>
      </trkpt>
      <trkpt lat="45.85943" lon="4.77967">
        <ele>407</ele>
        <time>2011-11-01T09:25:47Z</time>
      </trkpt>
      <trkpt lat="45.8594" lon="4.77967">
        <ele>406.8</ele>
        <time>2011-11-01T09:25:48Z</time>
      </trkpt>
      <trkpt lat="45.85935" lon="4.77966">
        <ele>406.4</ele>
        <time>2011-11-01T09:25:50Z</time>
      </trkpt>
      <trkpt lat="45.85931" lon="4.77964">
        <ele>406</ele>
        <time>2011-11-01T09:25:52Z</time>
      </trkpt>
      <trkpt lat="45.85919" lon="4.77962">
        <ele>404.8</ele>
        <time>2011-11-01T09:25:57Z</time>
      </trkpt>
      <trkpt lat="45.85909" lon="4.77961">
        <ele>403.4</ele>
        <time>2011-11-01T09:26:03Z</time>
      </trkpt>
      <trkpt lat="45.85904" lon="4.77963">
        <ele>402.2</ele>
        <time>2011-11-01T09:26:08Z</time>
      </trkpt>
      <trkpt lat="45.85898" lon="4.77965">
        <ele>401</ele>
        <time>2011-11-01T09:26:13Z</time>
      </trkpt>
      <trkpt lat="45.85897" lon="4.77965">
        <ele>400.8</ele>
        <time>2011-11-01T09:26:14Z</time>
      </trkpt>
      <trkpt lat="45.8589" lon="4.77969">
        <ele>399.8</ele>
        <time>2011-11-01T09:26:20Z</time>
      </trkpt>
      <trkpt lat="45.8588" lon="4.77972">
        <ele>398.6</ele>
        <time>2011-11-01T09:26:27Z</time>
      </trkpt>
      <trkpt lat="45.85873" lon="4.77975">
        <ele>397.4</ele>
        <time>2011-11-01T09:26:33Z</time>
      </trkpt>
      <trkpt lat="45.85872" lon="4.77976">
        <ele>397.4</ele>
        <time>2011-11-01T09:26:34Z</time>
      </trkpt>
      <trkpt lat="45.85872" lon="4.7798">
        <ele>397.2</ele>
        <time>2011-11-01T09:26:36Z</time>
      </trkpt>
      <trkpt lat="45.85873" lon="4.77981">
        <ele>397</ele>
        <time>2011-11-01T09:26:38Z</time>
      </trkpt>
      <trkpt lat="45.85874" lon="4.77984">
        <ele>397.4</ele>
        <time>2011-11-01T09:26:42Z</time>
      </trkpt>
      <trkpt lat="45.85877" lon="4.77989">
        <ele>398</ele>
        <time>2011-11-01T09:26:45Z</time>
      </trkpt>
      <trkpt lat="45.85878" lon="4.77991">
        <ele>398.6</ele>
        <time>2011-11-01T09:26:47Z</time>
      </trkpt>
      <trkpt lat="45.85879" lon="4.77992">
        <ele>399</ele>
        <time>2011-11-01T09:26:48Z</time>
      </trkpt>
      <trkpt lat="45.85884" lon="4.77992">
        <ele>400.2</ele>
        <time>2011-11-01T09:26:51Z</time>
      </trkpt>
      <trkpt lat="45.85894" lon="4.77997">
        <ele>402.2</ele>
        <time>2011-11-01T09:26:56Z</time>
      </trkpt>
      <trkpt lat="45.85897" lon="4.78">
        <ele>403</ele>
        <time>2011-11-01T09:26:58Z</time>
      </trkpt>
      <trkpt lat="45.85899" lon="4.78">
        <ele>403.6</ele>
        <time>2011-11-01T09:26:59Z</time>
      </trkpt>
      <trkpt lat="45.85903" lon="4.78002">
        <ele>404.8</ele>
        <time>2011-11-01T09:27:01Z</time>
      </trkpt>
      <trkpt lat="45.85909" lon="4.78006">
        <ele>406.2</ele>
        <time>2011-11-01T09:27:04Z</time>
      </trkpt>
      <trkpt lat="45.85914" lon="4.78009">
        <ele>407.4</ele>
        <time>2011-11-01T09:27:06Z</time>
      </trkpt>
      <trkpt lat="45.85917" lon="4.78012">
        <ele>408.6</ele>
        <time>2011-11-01T09:27:08Z</time>
      </trkpt>
      <trkpt lat="45.85923" lon="4.78014">
        <ele>410.8</ele>
        <time>2011-11-01T09:27:12Z</time>
      </trkpt>
      <trkpt lat="45.85937" lon="4.78016">
        <ele>415.2</ele>
        <time>2011-11-01T09:27:19Z</time>
      </trkpt>
      <trkpt lat="45.85945" lon="4.78013">
        <ele>417.6</ele>
        <time>2011-11-01T09:27:23Z</time>
      </trkpt>
      <trkpt lat="45.85954" lon="4.78011">
        <ele>420.6</ele>
        <time>2011-11-01T09:27:28Z</time>
      </trkpt>
      <trkpt lat="45.85963" lon="4.78014">
        <ele>423.6</ele>
        <time>2011-11-01T09:27:33Z</time>
      </trkpt>
      <trkpt lat="45.85972" lon="4.78018">
        <ele>426.4</ele>
        <time>2011-11-01T09:27:38Z</time>
      </trkpt>
      <trkpt lat="45.8598" lon="4.7802">
        <ele>429</ele>
        <time>2011-11-01T09:27:43Z</time>
      </trkpt>
      <trkpt lat="45.85982" lon="4.78019">
        <ele>429.6</ele>
        <time>2011-11-01T09:27:44Z</time>
      </trkpt>
      <trkpt lat="45.8599" lon="4.78018">
        <ele>431.8</ele>
        <time>2011-11-01T09:27:48Z</time>
      </trkpt>
      <trkpt lat="45.86001" lon="4.78025">
        <ele>434.2</ele>
        <time>2011-11-01T09:27:54Z</time>
      </trkpt>
      <trkpt lat="45.8601" lon="4.78022">
        <ele>436.6</ele>
        <time>2011-11-01T09:27:59Z</time>
      </trkpt>
      <trkpt lat="45.86017" lon="4.78019">
        <ele>439.2</ele>
        <time>2011-11-01T09:28:04Z</time>
      </trkpt>
      <trkpt lat="45.86019" lon="4.78019">
        <ele>439.6</ele>
        <time>2011-11-01T09:28:05Z</time>
      </trkpt>
      <trkpt lat="45.86022" lon="4.78027">
        <ele>441</ele>
        <time>2011-11-01T09:28:09Z</time>
      </trkpt>
      <trkpt lat="45.86021" lon="4.78029">
        <ele>441.2</ele>
        <time>2011-11-01T09:28:10Z</time>
      </trkpt>
      <trkpt lat="45.86019" lon="4.78038">
        <ele>442.2</ele>
        <time>2011-11-01T09:28:13Z</time>
      </trkpt>
      <trkpt lat="45.86013" lon="4.78043">
        <ele>443.6</ele>
        <time>2011-11-01T09:28:18Z</time>
      </trkpt>
      <trkpt lat="45.86011" lon="4.78043">
        <ele>444</ele>
        <time>2011-11-01T09:28:19Z</time>
      </trkpt>
      <trkpt lat="45.86003" lon="4.78044">
        <ele>445.8</ele>
        <time>2011-11-01T09:28:25Z</time>
      </trkpt>
      <trkpt lat="45.86001" lon="4.78043">
        <ele>446</ele>
        <time>2011-11-01T09:28:26Z</time>
      </trkpt>
      <trkpt lat="45.85994" lon="4.78044">
        <ele>447</ele>
        <time>2011-11-01T09:28:30Z</time>
      </trkpt>
      <trkpt lat="45.85986" lon="4.78049">
        <ele>448</ele>
        <time>2011-11-01T09:28:35Z</time>
      </trkpt>
      <trkpt lat="45.85979" lon="4.78054">
        <ele>448</ele>
        <time>2011-11-01T09:28:41Z</time>
      </trkpt>
      <trkpt lat="45.85971" lon="4.78055">
        <ele>448.4</ele>
        <time>2011-11-01T09:28:46Z</time>
      </trkpt>
      <trkpt lat="45.85966" lon="4.78058">
        <ele>448.2</ele>
        <time>2011-11-01T09:28:49Z</time>
      </trkpt>
      <trkpt lat="45.85961" lon="4.78062">
        <ele>448.2</ele>
        <time>2011-11-01T09:28:52Z</time>
      </trkpt>
      <trkpt lat="45.85952" lon="4.78069">
        <ele>448.4</ele>
        <time>2011-11-01T09:28:58Z</time>
      </trkpt>
      <trkpt lat="45.85946" lon="4.78071">
        <ele>448.8</ele>
        <time>2011-11-01T09:29:01Z</time>
      </trkpt>
      <trkpt lat="45.85943" lon="4.78073">
        <ele>449</ele>
        <time>2011-11-01T09:29:03Z</time>
      </trkpt>
      <trkpt lat="45.85941" lon="4.78075">
        <ele>449.2</ele>
        <time>2011-11-01T09:29:04Z</time>
      </trkpt>
      <trkpt lat="45.85936" lon="4.7808">
        <ele>449.6</ele>
        <time>2011-11-01T09:29:07Z</time>
      </trkpt>
      <trkpt lat="45.85934" lon="4.78083">
        <ele>449.8</ele>
        <time>2011-11-01T09:29:09Z</time>
      </trkpt>
      <trkpt lat="45.85932" lon="4.78085">
        <ele>449.8</ele>
        <time>2011-11-01T09:29:10Z</time>
      </trkpt>
      <trkpt lat="45.85927" lon="4.78089">
        <ele>450.4</ele>
        <time>2011-11-01T09:29:13Z</time>
      </trkpt>
      <trkpt lat="45.85916" lon="4.78094">
        <ele>452.2</ele>
        <time>2011-11-01T09:29:20Z</time>
      </trkpt>
      <trkpt lat="45.85908" lon="4.78101">
        <ele>453.4</ele>
        <time>2011-11-01T09:29:25Z</time>
      </trkpt>
      <trkpt lat="45.859" lon="4.78105">
        <ele>455</ele>
        <time>2011-11-01T09:29:30Z</time>
      </trkpt>
      <trkpt lat="45.85899" lon="4.78107">
        <ele>455.2</ele>
        <time>2011-11-01T09:29:31Z</time>
      </trkpt>
      <trkpt lat="45.85891" lon="4.7811">
        <ele>456.6</ele>
        <time>2011-11-01T09:29:36Z</time>
      </trkpt>
      <trkpt lat="45.85882" lon="4.78113">
        <ele>458</ele>
        <time>2011-11-01T09:29:41Z</time>
      </trkpt>
      <trkpt lat="45.85874" lon="4.78117">
        <ele>459.2</ele>
        <time>2011-11-01T09:29:46Z</time>
      </trkpt>
      <trkpt lat="45.8587" lon="4.78124">
        <ele>460</ele>
        <time>2011-11-01T09:29:52Z</time>
      </trkpt>
      <trkpt lat="45.85873" lon="4.78125">
        <ele>460.6</ele>
        <time>2011-11-01T09:29:55Z</time>
      </trkpt>
      <trkpt lat="45.85875" lon="4.78125">
        <ele>461.2</ele>
        <time>2011-11-01T09:29:57Z</time>
      </trkpt>
      <trkpt lat="45.85885" lon="4.78128">
        <ele>462.2</ele>
        <time>2011-11-01T09:30:02Z</time>
      </trkpt>
      <trkpt lat="45.85901" lon="4.78131">
        <ele>464</ele>
        <time>2011-11-01T09:30:08Z</time>
      </trkpt>
      <trkpt lat="45.85909" lon="4.78135">
        <ele>465</ele>
        <time>2011-11-01T09:30:12Z</time>
      </trkpt>
      <trkpt lat="45.85911" lon="4.78134">
        <ele>465.4</ele>
        <time>2011-11-01T09:30:13Z</time>
      </trkpt>
      <trkpt lat="45.8592" lon="4.78136">
        <ele>467.2</ele>
        <time>2011-11-01T09:30:18Z</time>
      </trkpt>
      <trkpt lat="45.85932" lon="4.78137">
        <ele>468.8</ele>
        <time>2011-11-01T09:30:24Z</time>
      </trkpt>
      <trkpt lat="45.8594" lon="4.78139">
        <ele>470</ele>
        <time>2011-11-01T09:30:28Z</time>
      </trkpt>
      <trkpt lat="45.85942" lon="4.78141">
        <ele>470.2</ele>
        <time>2011-11-01T09:30:29Z</time>
      </trkpt>
      <trkpt lat="45.85943" lon="4.78143">
        <ele>471.2</ele>
        <time>2011-11-01T09:30:32Z</time>
      </trkpt>
      <trkpt lat="45.85941" lon="4.78143">
        <ele>471.4</ele>
        <time>2011-11-01T09:30:33Z</time>
      </trkpt>
      <trkpt lat="45.85933" lon="4.78145">
        <ele>472.6</ele>
        <time>2011-11-01T09:30:37Z</time>
      </trkpt>
      <trkpt lat="45.85926" lon="4.78147">
        <ele>473.2</ele>
        <time>2011-11-01T09:30:40Z</time>
      </trkpt>
      <trkpt lat="45.85925" lon="4.7815">
        <ele>473.8</ele>
        <time>2011-11-01T09:30:42Z</time>
      </trkpt>
      <trkpt lat="45.85927" lon="4.78151">
        <ele>474.8</ele>
        <time>2011-11-01T09:30:45Z</time>
      </trkpt>
      <trkpt lat="45.85929" lon="4.78152">
        <ele>474.8</ele>
        <time>2011-11-01T09:30:46Z</time>
      </trkpt>
      <trkpt lat="45.8594" lon="4.78153">
        <ele>476</ele>
        <time>2011-11-01T09:30:51Z</time>
      </trkpt>
      <trkpt lat="45.85942" lon="4.78153">
        <ele>476.2</ele>
        <time>2011-11-01T09:30:52Z</time>
      </trkpt>
      <trkpt lat="45.85951" lon="4.78151">
        <ele>477.4</ele>
        <time>2011-11-01T09:30:56Z</time>
      </trkpt>
      <trkpt lat="45.85957" lon="4.78152">
        <ele>478.4</ele>
        <time>2011-11-01T09:31:00Z</time>
      </trkpt>
      <trkpt lat="45.85959" lon="4.78152">
        <ele>478.6</ele>
        <time>2011-11-01T09:31:01Z</time>
      </trkpt>
      <trkpt lat="45.85968" lon="4.78153">
        <ele>480</ele>
        <time>2011-11-01T09:31:05Z</time>
      </trkpt>
      <trkpt lat="45.85979" lon="4.78152">
        <ele>481.6</ele>
        <time>2011-11-01T09:31:09Z</time>
      </trkpt>
      <trkpt lat="45.85981" lon="4.78152">
        <ele>481.8</ele>
        <time>2011-11-01T09:31:10Z</time>
      </trkpt>
      <trkpt lat="45.85992" lon="4.78153">
        <ele>483.4</ele>
        <time>2011-11-01T09:31:15Z</time>
      </trkpt>
      <trkpt lat="45.86002" lon="4.78154">
        <ele>484.6</ele>
        <time>2011-11-01T09:31:20Z</time>
      </trkpt>
      <trkpt lat="45.86016" lon="4.78153">
        <ele>486.4</ele>
        <time>2011-11-01T09:31:26Z</time>
      </trkpt>
      <trkpt lat="45.86026" lon="4.7815">
        <ele>487.6</ele>
        <time>2011-11-01T09:31:30Z</time>
      </trkpt>
      <trkpt lat="45.86028" lon="4.78151">
        <ele>488</ele>
        <time>2011-11-01T09:31:31Z</time>
      </trkpt>
      <trkpt lat="45.86041" lon="4.78149">
        <ele>490.2</ele>
        <time>2011-11-01T09:31:37Z</time>
      </trkpt>
      <trkpt lat="45.86052" lon="4.78149">
        <ele>492.2</ele>
        <time>2011-11-01T09:31:42Z</time>
      </trkpt>
      <trkpt lat="45.86054" lon="4.78149">
        <ele>492.6</ele>
        <time>2011-11-01T09:31:43Z</time>
      </trkpt>
      <trkpt lat="45.86068" lon="4.7815">
        <ele>495.2</ele>
        <time>2011-11-01T09:31:49Z</time>
      </trkpt>
      <trkpt lat="45.86082" lon="4.78152">
        <ele>498.2</ele>
        <time>2011-11-01T09:31:55Z</time>
      </trkpt>
      <trkpt lat="45.86087" lon="4.78154">
        <ele>499.4</ele>
        <time>2011-11-01T09:31:57Z</time>
      </trkpt>
      <trkpt lat="45.86089" lon="4.78155">
        <ele>499.8</ele>
        <time>2011-11-01T09:31:58Z</time>
      </trkpt>
      <trkpt lat="45.86093" lon="4.78159">
        <ele>500.6</ele>
        <time>2011-11-01T09:32:00Z</time>
      </trkpt>
      <trkpt lat="45.86098" lon="4.7816">
        <ele>501.8</ele>
        <time>2011-11-01T09:32:02Z</time>
      </trkpt>
      <trkpt lat="45.86104" lon="4.78164">
        <ele>502.8</ele>
        <time>2011-11-01T09:32:04Z</time>
      </trkpt>
      <trkpt lat="45.86112" lon="4.78172">
        <ele>505</ele>
        <time>2011-11-01T09:32:08Z</time>
      </trkpt>
      <trkpt lat="45.86122" lon="4.78179">
        <ele>507.4</ele>
        <time>2011-11-01T09:32:13Z</time>
      </trkpt>
      <trkpt lat="45.86128" lon="4.78187">
        <ele>508.8</ele>
        <time>2011-11-01T09:32:17Z</time>
      </trkpt>
      <trkpt lat="45.86131" lon="4.78193">
        <ele>509.6</ele>
        <time>2011-11-01T09:32:19Z</time>
      </trkpt>
      <trkpt lat="45.86134" lon="4.78198">
        <ele>510.2</ele>
        <time>2011-11-01T09:32:21Z</time>
      </trkpt>
      <trkpt lat="45.86138" lon="4.78205">
        <ele>511</ele>
        <time>2011-11-01T09:32:24Z</time>
      </trkpt>
      <trkpt lat="45.86139" lon="4.78208">
        <ele>511</ele>
        <time>2011-11-01T09:32:25Z</time>
      </trkpt>
      <trkpt lat="45.86141" lon="4.78218">
        <ele>511.2</ele>
        <time>2011-11-01T09:32:28Z</time>
      </trkpt>
      <trkpt lat="45.86138" lon="4.78221">
        <ele>511.2</ele>
        <time>2011-11-01T09:32:30Z</time>
      </trkpt>
      <trkpt lat="45.86135" lon="4.78221">
        <ele>511.2</ele>
        <time>2011-11-01T09:32:31Z</time>
      </trkpt>
      <trkpt lat="45.86134" lon="4.78222">
        <ele>511.2</ele>
        <time>2011-11-01T09:32:32Z</time>
      </trkpt>
      <trkpt lat="45.86124" lon="4.78219">
        <ele>511</ele>
        <time>2011-11-01T09:32:37Z</time>
      </trkpt>
      <trkpt lat="45.86115" lon="4.78222">
        <ele>510.8</ele>
        <time>2011-11-01T09:32:42Z</time>
      </trkpt>
      <trkpt lat="45.86113" lon="4.78223">
        <ele>510.8</ele>
        <time>2011-11-01T09:32:43Z</time>
      </trkpt>
      <trkpt lat="45.86107" lon="4.78226">
        <ele>510.6</ele>
        <time>2011-11-01T09:32:46Z</time>
      </trkpt>
      <trkpt lat="45.86102" lon="4.78229">
        <ele>510.6</ele>
        <time>2011-11-01T09:32:49Z</time>
      </trkpt>
      <trkpt lat="45.86098" lon="4.7823">
        <ele>510.4</ele>
        <time>2011-11-01T09:32:51Z</time>
      </trkpt>
      <trkpt lat="45.86094" lon="4.78232">
        <ele>510.4</ele>
        <time>2011-11-01T09:32:53Z</time>
      </trkpt>
      <trkpt lat="45.8609" lon="4.78234">
        <ele>510.2</ele>
        <time>2011-11-01T09:32:55Z</time>
      </trkpt>
      <trkpt lat="45.86087" lon="4.78239">
        <ele>510.2</ele>
        <time>2011-11-01T09:32:57Z</time>
      </trkpt>
      <trkpt lat="45.86086" lon="4.78243">
        <ele>510.2</ele>
        <time>2011-11-01T09:32:59Z</time>
      </trkpt>
      <trkpt lat="45.86083" lon="4.78252">
        <ele>510</ele>
        <time>2011-11-01T09:33:03Z</time>
      </trkpt>
      <trkpt lat="45.86081" lon="4.7826">
        <ele>509.8</ele>
        <time>2011-11-01T09:33:07Z</time>
      </trkpt>
      <trkpt lat="45.86079" lon="4.78261">
        <ele>509.6</ele>
        <time>2011-11-01T09:33:08Z</time>
      </trkpt>
      <trkpt lat="45.86077" lon="4.78266">
        <ele>509.4</ele>
        <time>2011-11-01T09:33:11Z</time>
      </trkpt>
      <trkpt lat="45.86074" lon="4.78271">
        <ele>509</ele>
        <time>2011-11-01T09:33:17Z</time>
      </trkpt>
      <trkpt lat="45.86075" lon="4.78269">
        <ele>509</ele>
        <time>2011-11-01T09:33:22Z</time>
      </trkpt>
      <trkpt lat="45.86078" lon="4.78262">
        <ele>509</ele>
        <time>2011-11-01T09:33:27Z</time>
      </trkpt>
      <trkpt lat="45.8608" lon="4.78254">
        <ele>509.4</ele>
        <time>2011-11-01T09:33:31Z</time>
      </trkpt>
      <trkpt lat="45.86083" lon="4.78249">
        <ele>509.6</ele>
        <time>2011-11-01T09:33:33Z</time>
      </trkpt>
      <trkpt lat="45.86082" lon="4.78239">
        <ele>509.8</ele>
        <time>2011-11-01T09:33:37Z</time>
      </trkpt>
      <trkpt lat="45.86083" lon="4.78237">
        <ele>510</ele>
        <time>2011-11-01T09:33:38Z</time>
      </trkpt>
      <trkpt lat="45.86087" lon="4.78232">
        <ele>510.2</ele>
        <time>2011-11-01T09:33:41Z</time>
      </trkpt>
      <trkpt lat="45.86089" lon="4.7823">
        <ele>510.6</ele>
        <time>2011-11-01T09:33:42Z</time>
      </trkpt>
      <trkpt lat="45.86098" lon="4.78224">
        <ele>511.4</ele>
        <time>2011-11-01T09:33:46Z</time>
      </trkpt>
      <trkpt lat="45.86105" lon="4.78222">
        <ele>512.2</ele>
        <time>2011-11-01T09:33:50Z</time>
      </trkpt>
      <trkpt lat="45.86114" lon="4.78218">
        <ele>512.8</ele>
        <time>2011-11-01T09:33:54Z</time>
      </trkpt>
      <trkpt lat="45.86116" lon="4.78218">
        <ele>513</ele>
        <time>2011-11-01T09:33:55Z</time>
      </trkpt>
      <trkpt lat="45.8612" lon="4.78216">
        <ele>513.6</ele>
        <time>2011-11-01T09:33:57Z</time>
      </trkpt>
      <trkpt lat="45.86128" lon="4.78214">
        <ele>514.4</ele>
        <time>2011-11-01T09:34:00Z</time>
      </trkpt>
      <trkpt lat="45.8614" lon="4.78214">
        <ele>515.8</ele>
        <time>2011-11-01T09:34:06Z</time>
      </trkpt>
      <trkpt lat="45.86141" lon="4.78213">
        <ele>516</ele>
        <time>2011-11-01T09:34:07Z</time>
      </trkpt>
      <trkpt lat="45.86137" lon="4.78206">
        <ele>516.2</ele>
        <time>2011-11-01T09:34:10Z</time>
      </trkpt>
      <trkpt lat="45.86136" lon="4.78203">
        <ele>516.2</ele>
        <time>2011-11-01T09:34:11Z</time>
      </trkpt>
      <trkpt lat="45.86134" lon="4.78201">
        <ele>516.2</ele>
        <time>2011-11-01T09:34:12Z</time>
      </trkpt>
      <trkpt lat="45.86131" lon="4.78196">
        <ele>516.4</ele>
        <time>2011-11-01T09:34:14Z</time>
      </trkpt>
      <trkpt lat="45.86121" lon="4.78186">
        <ele>516.2</ele>
        <time>2011-11-01T09:34:19Z</time>
      </trkpt>
      <trkpt lat="45.86119" lon="4.78184">
        <ele>516.4</ele>
        <time>2011-11-01T09:34:20Z</time>
      </trkpt>
      <trkpt lat="45.86113" lon="4.78178">
        <ele>516.2</ele>
        <time>2011-11-01T09:34:24Z</time>
      </trkpt>
      <trkpt lat="45.86106" lon="4.78168">
        <ele>515.8</ele>
        <time>2011-11-01T09:34:29Z</time>
      </trkpt>
      <trkpt lat="45.86106" lon="4.78168">
        <ele>515.8</ele>
        <time>2011-11-01T09:34:31Z</time>
      </trkpt>
      <trkpt lat="45.8611" lon="4.7817">
        <ele>515.6</ele>
        <time>2011-11-01T09:34:35Z</time>
      </trkpt>
      <trkpt lat="45.86118" lon="4.78174">
        <ele>515.4</ele>
        <time>2011-11-01T09:34:41Z</time>
      </trkpt>
      <trkpt lat="45.86129" lon="4.78181">
        <ele>515.8</ele>
        <time>2011-11-01T09:34:47Z</time>
      </trkpt>
      <trkpt lat="45.86136" lon="4.7819">
        <ele>516.4</ele>
        <time>2011-11-01T09:34:52Z</time>
      </trkpt>
      <trkpt lat="45.86143" lon="4.78204">
        <ele>516</ele>
        <time>2011-11-01T09:34:57Z</time>
      </trkpt>
      <trkpt lat="45.86146" lon="4.78218">
        <ele>515.8</ele>
        <time>2011-11-01T09:35:02Z</time>
      </trkpt>
      <trkpt lat="45.8614" lon="4.78221">
        <ele>515.6</ele>
        <time>2011-11-01T09:35:06Z</time>
      </trkpt>
      <trkpt lat="45.86132" lon="4.78221">
        <ele>515.2</ele>
        <time>2011-11-01T09:35:10Z</time>
      </trkpt>
      <trkpt lat="45.8613" lon="4.7822">
        <ele>515.2</ele>
        <time>2011-11-01T09:35:11Z</time>
      </trkpt>
      <trkpt lat="45.8612" lon="4.78221">
        <ele>514.2</ele>
        <time>2011-11-01T09:35:17Z</time>
      </trkpt>
      <trkpt lat="45.86112" lon="4.78224">
        <ele>513.8</ele>
        <time>2011-11-01T09:35:22Z</time>
      </trkpt>
      <trkpt lat="45.86106" lon="4.78226">
        <ele>513</ele>
        <time>2011-11-01T09:35:27Z</time>
      </trkpt>
      <trkpt lat="45.86105" lon="4.78227">
        <ele>513</ele>
        <time>2011-11-01T09:35:28Z</time>
      </trkpt>
      <trkpt lat="45.861" lon="4.78228">
        <ele>512.6</ele>
        <time>2011-11-01T09:35:31Z</time>
      </trkpt>
      <trkpt lat="45.86097" lon="4.78229">
        <ele>512.4</ele>
        <time>2011-11-01T09:35:33Z</time>
      </trkpt>
      <trkpt lat="45.86092" lon="4.78231">
        <ele>512</ele>
        <time>2011-11-01T09:35:36Z</time>
      </trkpt>
      <trkpt lat="45.86089" lon="4.78234">
        <ele>511.6</ele>
        <time>2011-11-01T09:35:39Z</time>
      </trkpt>
      <trkpt lat="45.86088" lon="4.78237">
        <ele>511.2</ele>
        <time>2011-11-01T09:35:42Z</time>
      </trkpt>
      <trkpt lat="45.86088" lon="4.78238">
        <ele>511</ele>
        <time>2011-11-01T09:35:43Z</time>
      </trkpt>
      <trkpt lat="45.86089" lon="4.78241">
        <ele>510.8</ele>
        <time>2011-11-01T09:35:45Z</time>
      </trkpt>
      <trkpt lat="45.86087" lon="4.78244">
        <ele>510.6</ele>
        <time>2011-11-01T09:35:47Z</time>
      </trkpt>
      <trkpt lat="45.86083" lon="4.78251">
        <ele>509.8</ele>
        <time>2011-11-01T09:35:52Z</time>
      </trkpt>
      <trkpt lat="45.86081" lon="4.7826">
        <ele>509</ele>
        <time>2011-11-01T09:35:58Z</time>
      </trkpt>
      <trkpt lat="45.86079" lon="4.78264">
        <ele>508.4</ele>
        <time>2011-11-01T09:36:01Z</time>
      </trkpt>
      <trkpt lat="45.86079" lon="4.78267">
        <ele>508</ele>
        <time>2011-11-01T09:36:03Z</time>
      </trkpt>
      <trkpt lat="45.86079" lon="4.78268">
        <ele>507.8</ele>
        <time>2011-11-01T09:36:04Z</time>
      </trkpt>
      <trkpt lat="45.8608" lon="4.7827">
        <ele>507.4</ele>
        <time>2011-11-01T09:36:07Z</time>
      </trkpt>
      <trkpt lat="45.86079" lon="4.78275">
        <ele>506.8</ele>
        <time>2011-11-01T09:36:14Z</time>
      </trkpt>
      <trkpt lat="45.86077" lon="4.78278">
        <ele>506.6</ele>
        <time>2011-11-01T09:36:22Z</time>
      </trkpt>
      <trkpt lat="45.86076" lon="4.78278">
        <ele>507.4</ele>
        <time>2011-11-01T09:36:29Z</time>
      </trkpt>
      <trkpt lat="45.86072" lon="4.78276">
        <ele>517.6</ele>
        <time>2011-11-01T09:36:55Z</time>
      </trkpt>
      <trkpt lat="45.86069" lon="4.78275">
        <ele>528.6</ele>
        <time>2011-11-01T09:37:39Z</time>
      </trkpt>
      <trkpt lat="45.86072" lon="4.78281">
        <ele>528.6</ele>
        <time>2011-11-01T09:37:41Z</time>
      </trkpt>
      <trkpt lat="45.86085" lon="4.7829">
        <ele>529.2</ele>
        <time>2011-11-01T09:37:47Z</time>
      </trkpt>
      <trkpt lat="45.86089" lon="4.7829">
        <ele>529.4</ele>
        <time>2011-11-01T09:37:48Z</time>
      </trkpt>
      <trkpt lat="45.86101" lon="4.78298">
        <ele>529.6</ele>
        <time>2011-11-01T09:37:52Z</time>
      </trkpt>
      <trkpt lat="45.86111" lon="4.78308">
        <ele>529.6</ele>
        <time>2011-11-01T09:37:56Z</time>
      </trkpt>
      <trkpt lat="45.8612" lon="4.78319">
        <ele>529.4</ele>
        <time>2011-11-01T09:37:59Z</time>
      </trkpt>
      <trkpt lat="45.86123" lon="4.7833">
        <ele>529</ele>
        <time>2011-11-01T09:38:01Z</time>
      </trkpt>
      <trkpt lat="45.86128" lon="4.78348">
        <ele>527.8</ele>
        <time>2011-11-01T09:38:06Z</time>
      </trkpt>
      <trkpt lat="45.86127" lon="4.78357">
        <ele>527</ele>
        <time>2011-11-01T09:38:09Z</time>
      </trkpt>
      <trkpt lat="45.86125" lon="4.78365">
        <ele>526</ele>
        <time>2011-11-01T09:38:12Z</time>
      </trkpt>
      <trkpt lat="45.86126" lon="4.78369">
        <ele>525.6</ele>
        <time>2011-11-01T09:38:13Z</time>
      </trkpt>
      <trkpt lat="45.86127" lon="4.78383">
        <ele>524</ele>
        <time>2011-11-01T09:38:17Z</time>
      </trkpt>
      <trkpt lat="45.86131" lon="4.78401">
        <ele>521.6</ele>
        <time>2011-11-01T09:38:22Z</time>
      </trkpt>
      <trkpt lat="45.86132" lon="4.78418">
        <ele>519.2</ele>
        <time>2011-11-01T09:38:27Z</time>
      </trkpt>
      <trkpt lat="45.86133" lon="4.78422">
        <ele>518.8</ele>
        <time>2011-11-01T09:38:28Z</time>
      </trkpt>
      <trkpt lat="45.86133" lon="4.78434">
        <ele>516.8</ele>
        <time>2011-11-01T09:38:32Z</time>
      </trkpt>
      <trkpt lat="45.86133" lon="4.78449">
        <ele>514.2</ele>
        <time>2011-11-01T09:38:37Z</time>
      </trkpt>
      <trkpt lat="45.86128" lon="4.78466">
        <ele>511.6</ele>
        <time>2011-11-01T09:38:42Z</time>
      </trkpt>
      <trkpt lat="45.86127" lon="4.78468">
        <ele>511.2</ele>
        <time>2011-11-01T09:38:43Z</time>
      </trkpt>
      <trkpt lat="45.86124" lon="4.78472">
        <ele>510.2</ele>
        <time>2011-11-01T09:38:45Z</time>
      </trkpt>
      <trkpt lat="45.86123" lon="4.78474">
        <ele>509.6</ele>
        <time>2011-11-01T09:38:46Z</time>
      </trkpt>
      <trkpt lat="45.86111" lon="4.78482">
        <ele>507</ele>
        <time>2011-11-01T09:38:51Z</time>
      </trkpt>
      <trkpt lat="45.86098" lon="4.78489">
        <ele>503.8</ele>
        <time>2011-11-01T09:38:57Z</time>
      </trkpt>
      <trkpt lat="45.86098" lon="4.78497">
        <ele>501.2</ele>
        <time>2011-11-01T09:39:02Z</time>
      </trkpt>
      <trkpt lat="45.861" lon="4.78497">
        <ele>500.8</ele>
        <time>2011-11-01T09:39:03Z</time>
      </trkpt>
      <trkpt lat="45.86102" lon="4.78496">
        <ele>500.4</ele>
        <time>2011-11-01T09:39:04Z</time>
      </trkpt>
      <trkpt lat="45.86107" lon="4.78498">
        <ele>499.4</ele>
        <time>2011-11-01T09:39:06Z</time>
      </trkpt>
      <trkpt lat="45.86117" lon="4.78504">
        <ele>497.6</ele>
        <time>2011-11-01T09:39:11Z</time>
      </trkpt>
      <trkpt lat="45.86127" lon="4.7851">
        <ele>495.8</ele>
        <time>2011-11-01T09:39:16Z</time>
      </trkpt>
      <trkpt lat="45.86134" lon="4.78512">
        <ele>494.8</ele>
        <time>2011-11-01T09:39:19Z</time>
      </trkpt>
      <trkpt lat="45.86137" lon="4.78512">
        <ele>494.6</ele>
        <time>2011-11-01T09:39:20Z</time>
      </trkpt>
      <trkpt lat="45.86139" lon="4.78513">
        <ele>494.2</ele>
        <time>2011-11-01T09:39:21Z</time>
      </trkpt>
      <trkpt lat="45.86152" lon="4.78512">
        <ele>492.8</ele>
        <time>2011-11-01T09:39:26Z</time>
      </trkpt>
      <trkpt lat="45.86153" lon="4.78509">
        <ele>492.6</ele>
        <time>2011-11-01T09:39:27Z</time>
      </trkpt>
      <trkpt lat="45.86159" lon="4.78498">
        <ele>491.6</ele>
        <time>2011-11-01T09:39:31Z</time>
      </trkpt>
      <trkpt lat="45.86161" lon="4.78488">
        <ele>491.2</ele>
        <time>2011-11-01T09:39:34Z</time>
      </trkpt>
      <trkpt lat="45.86162" lon="4.78485">
        <ele>491</ele>
        <time>2011-11-01T09:39:35Z</time>
      </trkpt>
      <trkpt lat="45.86165" lon="4.78468">
        <ele>490.2</ele>
        <time>2011-11-01T09:39:40Z</time>
      </trkpt>
      <trkpt lat="45.86165" lon="4.78449">
        <ele>489.6</ele>
        <time>2011-11-01T09:39:45Z</time>
      </trkpt>
      <trkpt lat="45.86168" lon="4.78441">
        <ele>489.2</ele>
        <time>2011-11-01T09:39:49Z</time>
      </trkpt>
      <trkpt lat="45.8617" lon="4.78443">
        <ele>489</ele>
        <time>2011-11-01T09:39:50Z</time>
      </trkpt>
      <trkpt lat="45.86172" lon="4.78453">
        <ele>488.4</ele>
        <time>2011-11-01T09:39:53Z</time>
      </trkpt>
      <trkpt lat="45.86172" lon="4.78456">
        <ele>488.2</ele>
        <time>2011-11-01T09:39:54Z</time>
      </trkpt>
      <trkpt lat="45.86173" lon="4.78458">
        <ele>488</ele>
        <time>2011-11-01T09:39:55Z</time>
      </trkpt>
      <trkpt lat="45.86175" lon="4.78464">
        <ele>487.4</ele>
        <time>2011-11-01T09:39:58Z</time>
      </trkpt>
      <trkpt lat="45.86181" lon="4.78475">
        <ele>486.6</ele>
        <time>2011-11-01T09:40:02Z</time>
      </trkpt>
      <trkpt lat="45.86182" lon="4.78478">
        <ele>486.4</ele>
        <time>2011-11-01T09:40:03Z</time>
      </trkpt>
      <trkpt lat="45.86185" lon="4.78491">
        <ele>485.2</ele>
        <time>2011-11-01T09:40:07Z</time>
      </trkpt>
      <trkpt lat="45.86186" lon="4.78497">
        <ele>484.6</ele>
        <time>2011-11-01T09:40:09Z</time>
      </trkpt>
      <trkpt lat="45.86186" lon="4.78501">
        <ele>484.4</ele>
        <time>2011-11-01T09:40:10Z</time>
      </trkpt>
      <trkpt lat="45.86188" lon="4.78512">
        <ele>483.6</ele>
        <time>2011-11-01T09:40:13Z</time>
      </trkpt>
      <trkpt lat="45.86193" lon="4.78524">
        <ele>482.4</ele>
        <time>2011-11-01T09:40:17Z</time>
      </trkpt>
      <trkpt lat="45.86196" lon="4.78529">
        <ele>481.8</ele>
        <time>2011-11-01T09:40:19Z</time>
      </trkpt>
      <trkpt lat="45.862" lon="4.78532">
        <ele>481.4</ele>
        <time>2011-11-01T09:40:21Z</time>
      </trkpt>
      <trkpt lat="45.86202" lon="4.78534">
        <ele>481</ele>
        <time>2011-11-01T09:40:22Z</time>
      </trkpt>
      <trkpt lat="45.86204" lon="4.78537">
        <ele>480.8</ele>
        <time>2011-11-01T09:40:23Z</time>
      </trkpt>
      <trkpt lat="45.86213" lon="4.78543">
        <ele>480.2</ele>
        <time>2011-11-01T09:40:27Z</time>
      </trkpt>
      <trkpt lat="45.86219" lon="4.78553">
        <ele>479.6</ele>
        <time>2011-11-01T09:40:30Z</time>
      </trkpt>
      <trkpt lat="45.86224" lon="4.78558">
        <ele>479.2</ele>
        <time>2011-11-01T09:40:32Z</time>
      </trkpt>
      <trkpt lat="45.86232" lon="4.78568">
        <ele>478.8</ele>
        <time>2011-11-01T09:40:35Z</time>
      </trkpt>
      <trkpt lat="45.86238" lon="4.78576">
        <ele>478.2</ele>
        <time>2011-11-01T09:40:38Z</time>
      </trkpt>
      <trkpt lat="45.86244" lon="4.78586">
        <ele>477.4</ele>
        <time>2011-11-01T09:40:43Z</time>
      </trkpt>
      <trkpt lat="45.86253" lon="4.78594">
        <ele>476.8</ele>
        <time>2011-11-01T09:40:47Z</time>
      </trkpt>
      <trkpt lat="45.86262" lon="4.78602">
        <ele>476.4</ele>
        <time>2011-11-01T09:40:51Z</time>
      </trkpt>
      <trkpt lat="45.86265" lon="4.78604">
        <ele>476.4</ele>
        <time>2011-11-01T09:40:52Z</time>
      </trkpt>
      <trkpt lat="45.86278" lon="4.78611">
        <ele>475.6</ele>
        <time>2011-11-01T09:40:58Z</time>
      </trkpt>
      <trkpt lat="45.86283" lon="4.78613">
        <ele>475.4</ele>
        <time>2011-11-01T09:41:00Z</time>
      </trkpt>
      <trkpt lat="45.86293" lon="4.78617">
        <ele>475</ele>
        <time>2011-11-01T09:41:03Z</time>
      </trkpt>
      <trkpt lat="45.86298" lon="4.7862">
        <ele>474.8</ele>
        <time>2011-11-01T09:41:05Z</time>
      </trkpt>
      <trkpt lat="45.86303" lon="4.78624">
        <ele>474.6</ele>
        <time>2011-11-01T09:41:07Z</time>
      </trkpt>
      <trkpt lat="45.86315" lon="4.7863">
        <ele>474</ele>
        <time>2011-11-01T09:41:12Z</time>
      </trkpt>
      <trkpt lat="45.8633" lon="4.78642">
        <ele>473.6</ele>
        <time>2011-11-01T09:41:18Z</time>
      </trkpt>
      <trkpt lat="45.86332" lon="4.78644">
        <ele>473.4</ele>
        <time>2011-11-01T09:41:19Z</time>
      </trkpt>
      <trkpt lat="45.86341" lon="4.78648">
        <ele>473.4</ele>
        <time>2011-11-01T09:41:22Z</time>
      </trkpt>
      <trkpt lat="45.86351" lon="4.78656">
        <ele>473</ele>
        <time>2011-11-01T09:41:27Z</time>
      </trkpt>
      <trkpt lat="45.86363" lon="4.78655">
        <ele>472.8</ele>
        <time>2011-11-01T09:41:32Z</time>
      </trkpt>
      <trkpt lat="45.86369" lon="4.78655">
        <ele>472.8</ele>
        <time>2011-11-01T09:41:34Z</time>
      </trkpt>
      <trkpt lat="45.86378" lon="4.78654">
        <ele>472.6</ele>
        <time>2011-11-01T09:41:37Z</time>
      </trkpt>
      <trkpt lat="45.8639" lon="4.78652">
        <ele>472.6</ele>
        <time>2011-11-01T09:41:41Z</time>
      </trkpt>
      <trkpt lat="45.86401" lon="4.7865">
        <ele>472.6</ele>
        <time>2011-11-01T09:41:45Z</time>
      </trkpt>
      <trkpt lat="45.86404" lon="4.78648">
        <ele>472.6</ele>
        <time>2011-11-01T09:41:46Z</time>
      </trkpt>
      <trkpt lat="45.86413" lon="4.78646">
        <ele>472.6</ele>
        <time>2011-11-01T09:41:49Z</time>
      </trkpt>
      <trkpt lat="45.86427" lon="4.78648">
        <ele>472.4</ele>
        <time>2011-11-01T09:41:54Z</time>
      </trkpt>
      <trkpt lat="45.86438" lon="4.78651">
        <ele>472.4</ele>
        <time>2011-11-01T09:41:58Z</time>
      </trkpt>
      <trkpt lat="45.86441" lon="4.78652">
        <ele>472.4</ele>
        <time>2011-11-01T09:41:59Z</time>
      </trkpt>
      <trkpt lat="45.8645" lon="4.78654">
        <ele>472.2</ele>
        <time>2011-11-01T09:42:02Z</time>
      </trkpt>
      <trkpt lat="45.86465" lon="4.78651">
        <ele>472</ele>
        <time>2011-11-01T09:42:07Z</time>
      </trkpt>
      <trkpt lat="45.86478" lon="4.78653">
        <ele>471.8</ele>
        <time>2011-11-01T09:42:11Z</time>
      </trkpt>
      <trkpt lat="45.8648" lon="4.78654">
        <ele>471.8</ele>
        <time>2011-11-01T09:42:12Z</time>
      </trkpt>
      <trkpt lat="45.86493" lon="4.78664">
        <ele>471.6</ele>
        <time>2011-11-01T09:42:17Z</time>
      </trkpt>
      <trkpt lat="45.86503" lon="4.78675">
        <ele>471.6</ele>
        <time>2011-11-01T09:42:22Z</time>
      </trkpt>
      <trkpt lat="45.86508" lon="4.78683">
        <ele>471.6</ele>
        <time>2011-11-01T09:42:25Z</time>
      </trkpt>
      <trkpt lat="45.86511" lon="4.78686">
        <ele>471.4</ele>
        <time>2011-11-01T09:42:26Z</time>
      </trkpt>
      <trkpt lat="45.86523" lon="4.78703">
        <ele>470.8</ele>
        <time>2011-11-01T09:42:31Z</time>
      </trkpt>
      <trkpt lat="45.86535" lon="4.78719">
        <ele>470</ele>
        <time>2011-11-01T09:42:36Z</time>
      </trkpt>
      <trkpt lat="45.86538" lon="4.78723">
        <ele>469.8</ele>
        <time>2011-11-01T09:42:37Z</time>
      </trkpt>
      <trkpt lat="45.86546" lon="4.78739">
        <ele>468.8</ele>
        <time>2011-11-01T09:42:41Z</time>
      </trkpt>
      <trkpt lat="45.86558" lon="4.7876">
        <ele>467.2</ele>
        <time>2011-11-01T09:42:46Z</time>
      </trkpt>
      <trkpt lat="45.8656" lon="4.78764">
        <ele>467</ele>
        <time>2011-11-01T09:42:47Z</time>
      </trkpt>
      <trkpt lat="45.86577" lon="4.78782">
        <ele>464.8</ele>
        <time>2011-11-01T09:42:54Z</time>
      </trkpt>
      <trkpt lat="45.86587" lon="4.78792">
        <ele>463.6</ele>
        <time>2011-11-01T09:42:58Z</time>
      </trkpt>
      <trkpt lat="45.86591" lon="4.78795">
        <ele>463.4</ele>
        <time>2011-11-01T09:42:59Z</time>
      </trkpt>
      <trkpt lat="45.86596" lon="4.78808">
        <ele>462</ele>
        <time>2011-11-01T09:43:04Z</time>
      </trkpt>
      <trkpt lat="45.86605" lon="4.78819">
        <ele>460.6</ele>
        <time>2011-11-01T09:43:09Z</time>
      </trkpt>
      <trkpt lat="45.86615" lon="4.78826">
        <ele>459.2</ele>
        <time>2011-11-01T09:43:14Z</time>
      </trkpt>
      <trkpt lat="45.86617" lon="4.78828">
        <ele>459.2</ele>
        <time>2011-11-01T09:43:15Z</time>
      </trkpt>
      <trkpt lat="45.86632" lon="4.7883">
        <ele>458</ele>
        <time>2011-11-01T09:43:21Z</time>
      </trkpt>
      <trkpt lat="45.86646" lon="4.78832">
        <ele>457.4</ele>
        <time>2011-11-01T09:43:26Z</time>
      </trkpt>
      <trkpt lat="45.86651" lon="4.78835">
        <ele>457</ele>
        <time>2011-11-01T09:43:28Z</time>
      </trkpt>
      <trkpt lat="45.86659" lon="4.78837">
        <ele>456.6</ele>
        <time>2011-11-01T09:43:31Z</time>
      </trkpt>
      <trkpt lat="45.86671" lon="4.78842">
        <ele>456.2</ele>
        <time>2011-11-01T09:43:36Z</time>
      </trkpt>
      <trkpt lat="45.86682" lon="4.78847">
        <ele>455.6</ele>
        <time>2011-11-01T09:43:41Z</time>
      </trkpt>
      <trkpt lat="45.86689" lon="4.78849">
        <ele>455.2</ele>
        <time>2011-11-01T09:43:44Z</time>
      </trkpt>
      <trkpt lat="45.86695" lon="4.7885">
        <ele>455</ele>
        <time>2011-11-01T09:43:46Z</time>
      </trkpt>
      <trkpt lat="45.86709" lon="4.78853">
        <ele>454.6</ele>
        <time>2011-11-01T09:43:51Z</time>
      </trkpt>
      <trkpt lat="45.86722" lon="4.78862">
        <ele>454</ele>
        <time>2011-11-01T09:43:56Z</time>
      </trkpt>
      <trkpt lat="45.86724" lon="4.78864">
        <ele>454</ele>
        <time>2011-11-01T09:43:57Z</time>
      </trkpt>
      <trkpt lat="45.86734" lon="4.78872">
        <ele>453.6</ele>
        <time>2011-11-01T09:44:01Z</time>
      </trkpt>
      <trkpt lat="45.86743" lon="4.78881">
        <ele>453.2</ele>
        <time>2011-11-01T09:44:05Z</time>
      </trkpt>
      <trkpt lat="45.86749" lon="4.78891">
        <ele>453</ele>
        <time>2011-11-01T09:44:09Z</time>
      </trkpt>
      <trkpt lat="45.86753" lon="4.78897">
        <ele>453</ele>
        <time>2011-11-01T09:44:11Z</time>
      </trkpt>
      <trkpt lat="45.86759" lon="4.78905">
        <ele>452.4</ele>
        <time>2011-11-01T09:44:15Z</time>
      </trkpt>
      <trkpt lat="45.86763" lon="4.78911">
        <ele>452</ele>
        <time>2011-11-01T09:44:20Z</time>
      </trkpt>
      <trkpt lat="45.86764" lon="4.78912">
        <ele>451.8</ele>
        <time>2011-11-01T09:44:21Z</time>
      </trkpt>
      <trkpt lat="45.86764" lon="4.7891">
        <ele>450.8</ele>
        <time>2011-11-01T09:44:30Z</time>
      </trkpt>
      <trkpt lat="45.86767" lon="4.78915">
        <ele>447.2</ele>
        <time>2011-11-01T09:44:57Z</time>
      </trkpt>
      <trkpt lat="45.86766" lon="4.78922">
        <ele>446.2</ele>
        <time>2011-11-01T09:45:03Z</time>
      </trkpt>
      <trkpt lat="45.86764" lon="4.78928">
        <ele>445</ele>
        <time>2011-11-01T09:45:09Z</time>
      </trkpt>
      <trkpt lat="45.86761" lon="4.78934">
        <ele>443.8</ele>
        <time>2011-11-01T09:45:15Z</time>
      </trkpt>
      <trkpt lat="45.86759" lon="4.78938">
        <ele>443</ele>
        <time>2011-11-01T09:45:19Z</time>
      </trkpt>
      <trkpt lat="45.86757" lon="4.7894">
        <ele>442.6</ele>
        <time>2011-11-01T09:45:21Z</time>
      </trkpt>
      <trkpt lat="45.86753" lon="4.78948">
        <ele>441.2</ele>
        <time>2011-11-01T09:45:27Z</time>
      </trkpt>
      <trkpt lat="45.86752" lon="4.78955">
        <ele>440</ele>
        <time>2011-11-01T09:45:33Z</time>
      </trkpt>
      <trkpt lat="45.8675" lon="4.78966">
        <ele>438.6</ele>
        <time>2011-11-01T09:45:40Z</time>
      </trkpt>
      <trkpt lat="45.86749" lon="4.7897">
        <ele>438.2</ele>
        <time>2011-11-01T09:45:42Z</time>
      </trkpt>
      <trkpt lat="45.86747" lon="4.78976">
        <ele>437.6</ele>
        <time>2011-11-01T09:45:45Z</time>
      </trkpt>
      <trkpt lat="45.86747" lon="4.78983">
        <ele>436.6</ele>
        <time>2011-11-01T09:45:50Z</time>
      </trkpt>
      <trkpt lat="45.86747" lon="4.78985">
        <ele>436.4</ele>
        <time>2011-11-01T09:45:51Z</time>
      </trkpt>
      <trkpt lat="45.86748" lon="4.78987">
        <ele>436.4</ele>
        <time>2011-11-01T09:45:52Z</time>
      </trkpt>
      <trkpt lat="45.86747" lon="4.79002">
        <ele>435.2</ele>
        <time>2011-11-01T09:45:59Z</time>
      </trkpt>
      <trkpt lat="45.86744" lon="4.79014">
        <ele>434.4</ele>
        <time>2011-11-01T09:46:05Z</time>
      </trkpt>
      <trkpt lat="45.86743" lon="4.79017">
        <ele>434.4</ele>
        <time>2011-11-01T09:46:06Z</time>
      </trkpt>
      <trkpt lat="45.86738" lon="4.79027">
        <ele>433.8</ele>
        <time>2011-11-01T09:46:11Z</time>
      </trkpt>
      <trkpt lat="45.86735" lon="4.79033">
        <ele>433.6</ele>
        <time>2011-11-01T09:46:14Z</time>
      </trkpt>
      <trkpt lat="45.86732" lon="4.79039">
        <ele>433.4</ele>
        <time>2011-11-01T09:46:18Z</time>
      </trkpt>
      <trkpt lat="45.86725" lon="4.79047">
        <ele>432.8</ele>
        <time>2011-11-01T09:46:24Z</time>
      </trkpt>
      <trkpt lat="45.86718" lon="4.79059">
        <ele>432.2</ele>
        <time>2011-11-01T09:46:30Z</time>
      </trkpt>
      <trkpt lat="45.8671" lon="4.79072">
        <ele>432</ele>
        <time>2011-11-01T09:46:35Z</time>
      </trkpt>
      <trkpt lat="45.86703" lon="4.79084">
        <ele>431.6</ele>
        <time>2011-11-01T09:46:40Z</time>
      </trkpt>
      <trkpt lat="45.86695" lon="4.79098">
        <ele>431.4</ele>
        <time>2011-11-01T09:46:45Z</time>
      </trkpt>
      <trkpt lat="45.86688" lon="4.79115">
        <ele>431.2</ele>
        <time>2011-11-01T09:46:50Z</time>
      </trkpt>
      <trkpt lat="45.86687" lon="4.79119">
        <ele>431.4</ele>
        <time>2011-11-01T09:46:51Z</time>
      </trkpt>
      <trkpt lat="45.86681" lon="4.79137">
        <ele>431.4</ele>
        <time>2011-11-01T09:46:56Z</time>
      </trkpt>
      <trkpt lat="45.86675" lon="4.79154">
        <ele>431.6</ele>
        <time>2011-11-01T09:47:01Z</time>
      </trkpt>
      <trkpt lat="45.86673" lon="4.79165">
        <ele>432</ele>
        <time>2011-11-01T09:47:04Z</time>
      </trkpt>
      <trkpt lat="45.8667" lon="4.79171">
        <ele>432</ele>
        <time>2011-11-01T09:47:06Z</time>
      </trkpt>
      <trkpt lat="45.86666" lon="4.79186">
        <ele>432.2</ele>
        <time>2011-11-01T09:47:11Z</time>
      </trkpt>
      <trkpt lat="45.86662" lon="4.79205">
        <ele>432.6</ele>
        <time>2011-11-01T09:47:17Z</time>
      </trkpt>
      <trkpt lat="45.8666" lon="4.79216">
        <ele>433</ele>
        <time>2011-11-01T09:47:20Z</time>
      </trkpt>
      <trkpt lat="45.86659" lon="4.79223">
        <ele>433.4</ele>
        <time>2011-11-01T09:47:22Z</time>
      </trkpt>
      <trkpt lat="45.86658" lon="4.79245">
        <ele>434.4</ele>
        <time>2011-11-01T09:47:28Z</time>
      </trkpt>
      <trkpt lat="45.86657" lon="4.79262">
        <ele>435.4</ele>
        <time>2011-11-01T09:47:33Z</time>
      </trkpt>
      <trkpt lat="45.86657" lon="4.79269">
        <ele>435.8</ele>
        <time>2011-11-01T09:47:35Z</time>
      </trkpt>
      <trkpt lat="45.86657" lon="4.79283">
        <ele>436.4</ele>
        <time>2011-11-01T09:47:39Z</time>
      </trkpt>
      <trkpt lat="45.86654" lon="4.79302">
        <ele>436.8</ele>
        <time>2011-11-01T09:47:45Z</time>
      </trkpt>
      <trkpt lat="45.86654" lon="4.79322">
        <ele>437.2</ele>
        <time>2011-11-01T09:47:51Z</time>
      </trkpt>
      <trkpt lat="45.86654" lon="4.79346">
        <ele>437.8</ele>
        <time>2011-11-01T09:47:58Z</time>
      </trkpt>
      <trkpt lat="45.86654" lon="4.79363">
        <ele>438.6</ele>
        <time>2011-11-01T09:48:03Z</time>
      </trkpt>
      <trkpt lat="45.86654" lon="4.79375">
        <ele>439.2</ele>
        <time>2011-11-01T09:48:07Z</time>
      </trkpt>
      <trkpt lat="45.86655" lon="4.79384">
        <ele>439.6</ele>
        <time>2011-11-01T09:48:10Z</time>
      </trkpt>
      <trkpt lat="45.86653" lon="4.79399">
        <ele>440.4</ele>
        <time>2011-11-01T09:48:15Z</time>
      </trkpt>
      <trkpt lat="45.86653" lon="4.79409">
        <ele>441.4</ele>
        <time>2011-11-01T09:48:20Z</time>
      </trkpt>
      <trkpt lat="45.86652" lon="4.79418">
        <ele>442</ele>
        <time>2011-11-01T09:48:25Z</time>
      </trkpt>
      <trkpt lat="45.86653" lon="4.79423">
        <ele>442.6</ele>
        <time>2011-11-01T09:48:29Z</time>
      </trkpt>
      <trkpt lat="45.86652" lon="4.79424">
        <ele>442.6</ele>
        <time>2011-11-01T09:48:30Z</time>
      </trkpt>
      <trkpt lat="45.86653" lon="4.79425">
        <ele>442.8</ele>
        <time>2011-11-01T09:48:31Z</time>
      </trkpt>
      <trkpt lat="45.86653" lon="4.79426">
        <ele>443</ele>
        <time>2011-11-01T09:48:32Z</time>
      </trkpt>
      <trkpt lat="45.86651" lon="4.79436">
        <ele>443.4</ele>
        <time>2011-11-01T09:48:37Z</time>
      </trkpt>
      <trkpt lat="45.86651" lon="4.79445">
        <ele>444.2</ele>
        <time>2011-11-01T09:48:43Z</time>
      </trkpt>
      <trkpt lat="45.86653" lon="4.79455">
        <ele>444.8</ele>
        <time>2011-11-01T09:48:48Z</time>
      </trkpt>
      <trkpt lat="45.86651" lon="4.79468">
        <ele>445.2</ele>
        <time>2011-11-01T09:48:54Z</time>
      </trkpt>
      <trkpt lat="45.86651" lon="4.7947">
        <ele>445.2</ele>
        <time>2011-11-01T09:48:55Z</time>
      </trkpt>
      <trkpt lat="45.86651" lon="4.79474">
        <ele>445.4</ele>
        <time>2011-11-01T09:48:57Z</time>
      </trkpt>
      <trkpt lat="45.86652" lon="4.79481">
        <ele>445.6</ele>
        <time>2011-11-01T09:49:00Z</time>
      </trkpt>
      <trkpt lat="45.86652" lon="4.79488">
        <ele>445.6</ele>
        <time>2011-11-01T09:49:05Z</time>
      </trkpt>
      <trkpt lat="45.86652" lon="4.79503">
        <ele>446.2</ele>
        <time>2011-11-01T09:49:11Z</time>
      </trkpt>
      <trkpt lat="45.8665" lon="4.79518">
        <ele>447</ele>
        <time>2011-11-01T09:49:18Z</time>
      </trkpt>
      <trkpt lat="45.8665" lon="4.79527">
        <ele>447.4</ele>
        <time>2011-11-01T09:49:22Z</time>
      </trkpt>
      <trkpt lat="45.86649" lon="4.7953">
        <ele>447.6</ele>
        <time>2011-11-01T09:49:24Z</time>
      </trkpt>
      <trkpt lat="45.86648" lon="4.79532">
        <ele>447.8</ele>
        <time>2011-11-01T09:49:25Z</time>
      </trkpt>
      <trkpt lat="45.86649" lon="4.79546">
        <ele>448.8</ele>
        <time>2011-11-01T09:49:32Z</time>
      </trkpt>
      <trkpt lat="45.8665" lon="4.79563">
        <ele>449.8</ele>
        <time>2011-11-01T09:49:38Z</time>
      </trkpt>
      <trkpt lat="45.86651" lon="4.79577">
        <ele>450.4</ele>
        <time>2011-11-01T09:49:42Z</time>
      </trkpt>
      <trkpt lat="45.86651" lon="4.79581">
        <ele>450.6</ele>
        <time>2011-11-01T09:49:43Z</time>
      </trkpt>
      <trkpt lat="45.86653" lon="4.79595">
        <ele>451.2</ele>
        <time>2011-11-01T09:49:47Z</time>
      </trkpt>
      <trkpt lat="45.86654" lon="4.79598">
        <ele>451.4</ele>
        <time>2011-11-01T09:49:48Z</time>
      </trkpt>
      <trkpt lat="45.86654" lon="4.7962">
        <ele>452.2</ele>
        <time>2011-11-01T09:49:54Z</time>
      </trkpt>
      <trkpt lat="45.86653" lon="4.79626">
        <ele>452.2</ele>
        <time>2011-11-01T09:49:56Z</time>
      </trkpt>
      <trkpt lat="45.86653" lon="4.7963">
        <ele>452.2</ele>
        <time>2011-11-01T09:49:57Z</time>
      </trkpt>
      <trkpt lat="45.86655" lon="4.79637">
        <ele>452.6</ele>
        <time>2011-11-01T09:49:59Z</time>
      </trkpt>
      <trkpt lat="45.86659" lon="4.79648">
        <ele>453</ele>
        <time>2011-11-01T09:50:02Z</time>
      </trkpt>
      <trkpt lat="45.86661" lon="4.79656">
        <ele>453</ele>
        <time>2011-11-01T09:50:04Z</time>
      </trkpt>
      <trkpt lat="45.86666" lon="4.79676">
        <ele>453.4</ele>
        <time>2011-11-01T09:50:09Z</time>
      </trkpt>
      <trkpt lat="45.86666" lon="4.7968">
        <ele>453.6</ele>
        <time>2011-11-01T09:50:10Z</time>
      </trkpt>
      <trkpt lat="45.86669" lon="4.79696">
        <ele>453.8</ele>
        <time>2011-11-01T09:50:14Z</time>
      </trkpt>
      <trkpt lat="45.86672" lon="4.79726">
        <ele>455.2</ele>
        <time>2011-11-01T09:50:21Z</time>
      </trkpt>
      <trkpt lat="45.8667" lon="4.79733">
        <ele>455.2</ele>
        <time>2011-11-01T09:50:23Z</time>
      </trkpt>
      <trkpt lat="45.86668" lon="4.79741">
        <ele>455.6</ele>
        <time>2011-11-01T09:50:26Z</time>
      </trkpt>
      <trkpt lat="45.86661" lon="4.79754">
        <ele>455.6</ele>
        <time>2011-11-01T09:50:30Z</time>
      </trkpt>
      <trkpt lat="45.86655" lon="4.79768">
        <ele>455.8</ele>
        <time>2011-11-01T09:50:35Z</time>
      </trkpt>
      <trkpt lat="45.86651" lon="4.79778">
        <ele>455.8</ele>
        <time>2011-11-01T09:50:39Z</time>
      </trkpt>
      <trkpt lat="45.86649" lon="4.79783">
        <ele>455.8</ele>
        <time>2011-11-01T09:50:41Z</time>
      </trkpt>
      <trkpt lat="45.86645" lon="4.79798">
        <ele>455.6</ele>
        <time>2011-11-01T09:50:46Z</time>
      </trkpt>
      <trkpt lat="45.86639" lon="4.79815">
        <ele>455.6</ele>
        <time>2011-11-01T09:50:52Z</time>
      </trkpt>
      <trkpt lat="45.86634" lon="4.79827">
        <ele>455.6</ele>
        <time>2011-11-01T09:50:56Z</time>
      </trkpt>
      <trkpt lat="45.86633" lon="4.79831">
        <ele>455.8</ele>
        <time>2011-11-01T09:50:57Z</time>
      </trkpt>
      <trkpt lat="45.86626" lon="4.79848">
        <ele>456.4</ele>
        <time>2011-11-01T09:51:02Z</time>
      </trkpt>
      <trkpt lat="45.86618" lon="4.79861">
        <ele>456.6</ele>
        <time>2011-11-01T09:51:07Z</time>
      </trkpt>
      <trkpt lat="45.8661" lon="4.79867">
        <ele>456.6</ele>
        <time>2011-11-01T09:51:11Z</time>
      </trkpt>
      <trkpt lat="45.86606" lon="4.79874">
        <ele>456.4</ele>
        <time>2011-11-01T09:51:14Z</time>
      </trkpt>
      <trkpt lat="45.86593" lon="4.79889">
        <ele>456.4</ele>
        <time>2011-11-01T09:51:21Z</time>
      </trkpt>
      <trkpt lat="45.86581" lon="4.79897">
        <ele>456.2</ele>
        <time>2011-11-01T09:51:27Z</time>
      </trkpt>
      <trkpt lat="45.86568" lon="4.79905">
        <ele>456</ele>
        <time>2011-11-01T09:51:33Z</time>
      </trkpt>
      <trkpt lat="45.86553" lon="4.79907">
        <ele>455.8</ele>
        <time>2011-11-01T09:51:39Z</time>
      </trkpt>
      <trkpt lat="45.86545" lon="4.79908">
        <ele>455.6</ele>
        <time>2011-11-01T09:51:42Z</time>
      </trkpt>
      <trkpt lat="45.86535" lon="4.79909">
        <ele>455.4</ele>
        <time>2011-11-01T09:51:46Z</time>
      </trkpt>
      <trkpt lat="45.86518" lon="4.79909">
        <ele>455</ele>
        <time>2011-11-01T09:51:53Z</time>
      </trkpt>
      <trkpt lat="45.86508" lon="4.79907">
        <ele>454.8</ele>
        <time>2011-11-01T09:51:57Z</time>
      </trkpt>
      <trkpt lat="45.86505" lon="4.79906">
        <ele>454.8</ele>
        <time>2011-11-01T09:51:58Z</time>
      </trkpt>
      <trkpt lat="45.8649" lon="4.79901">
        <ele>454.4</ele>
        <time>2011-11-01T09:52:04Z</time>
      </trkpt>
      <trkpt lat="45.86475" lon="4.79895">
        <ele>454</ele>
        <time>2011-11-01T09:52:10Z</time>
      </trkpt>
      <trkpt lat="45.86473" lon="4.79895">
        <ele>454</ele>
        <time>2011-11-01T09:52:11Z</time>
      </trkpt>
      <trkpt lat="45.86463" lon="4.79892">
        <ele>453.8</ele>
        <time>2011-11-01T09:52:15Z</time>
      </trkpt>
      <trkpt lat="45.86446" lon="4.79885">
        <ele>453.4</ele>
        <time>2011-11-01T09:52:22Z</time>
      </trkpt>
      <trkpt lat="45.86437" lon="4.7988">
        <ele>453.2</ele>
        <time>2011-11-01T09:52:26Z</time>
      </trkpt>
      <trkpt lat="45.86432" lon="4.79878">
        <ele>453</ele>
        <time>2011-11-01T09:52:28Z</time>
      </trkpt>
      <trkpt lat="45.86416" lon="4.7987">
        <ele>452.8</ele>
        <time>2011-11-01T09:52:35Z</time>
      </trkpt>
      <trkpt lat="45.86401" lon="4.79864">
        <ele>452.6</ele>
        <time>2011-11-01T09:52:41Z</time>
      </trkpt>
      <trkpt lat="45.86388" lon="4.79861">
        <ele>452.4</ele>
        <time>2011-11-01T09:52:46Z</time>
      </trkpt>
      <trkpt lat="45.86375" lon="4.79861">
        <ele>452.4</ele>
        <time>2011-11-01T09:52:51Z</time>
      </trkpt>
      <trkpt lat="45.86362" lon="4.79859">
        <ele>452.2</ele>
        <time>2011-11-01T09:52:56Z</time>
      </trkpt>
      <trkpt lat="45.86347" lon="4.79857">
        <ele>452</ele>
        <time>2011-11-01T09:53:02Z</time>
      </trkpt>
      <trkpt lat="45.86344" lon="4.79857">
        <ele>452</ele>
        <time>2011-11-01T09:53:03Z</time>
      </trkpt>
      <trkpt lat="45.86337" lon="4.79857">
        <ele>452</ele>
        <time>2011-11-01T09:53:06Z</time>
      </trkpt>
      <trkpt lat="45.86328" lon="4.79857">
        <ele>451.8</ele>
        <time>2011-11-01T09:53:10Z</time>
      </trkpt>
      <trkpt lat="45.86325" lon="4.79857">
        <ele>451.8</ele>
        <time>2011-11-01T09:53:11Z</time>
      </trkpt>
      <trkpt lat="45.86313" lon="4.79861">
        <ele>451.6</ele>
        <time>2011-11-01T09:53:16Z</time>
      </trkpt>
      <trkpt lat="45.86303" lon="4.79863">
        <ele>451.4</ele>
        <time>2011-11-01T09:53:20Z</time>
      </trkpt>
      <trkpt lat="45.86301" lon="4.79864">
        <ele>451.4</ele>
        <time>2011-11-01T09:53:21Z</time>
      </trkpt>
      <trkpt lat="45.86289" lon="4.79872">
        <ele>451.2</ele>
        <time>2011-11-01T09:53:26Z</time>
      </trkpt>
      <trkpt lat="45.86287" lon="4.79873">
        <ele>451.2</ele>
        <time>2011-11-01T09:53:27Z</time>
      </trkpt>
      <trkpt lat="45.86274" lon="4.79885">
        <ele>451</ele>
        <time>2011-11-01T09:53:33Z</time>
      </trkpt>
      <trkpt lat="45.8626" lon="4.79897">
        <ele>451</ele>
        <time>2011-11-01T09:53:39Z</time>
      </trkpt>
      <trkpt lat="45.86259" lon="4.79899">
        <ele>450.8</ele>
        <time>2011-11-01T09:53:40Z</time>
      </trkpt>
      <trkpt lat="45.86251" lon="4.79905">
        <ele>450.8</ele>
        <time>2011-11-01T09:53:44Z</time>
      </trkpt>
      <trkpt lat="45.86236" lon="4.79913">
        <ele>450.8</ele>
        <time>2011-11-01T09:53:50Z</time>
      </trkpt>
      <trkpt lat="45.86224" lon="4.79919">
        <ele>450.6</ele>
        <time>2011-11-01T09:53:55Z</time>
      </trkpt>
      <trkpt lat="45.8622" lon="4.79924">
        <ele>450.4</ele>
        <time>2011-11-01T09:53:57Z</time>
      </trkpt>
      <trkpt lat="45.86215" lon="4.79945">
        <ele>450.2</ele>
        <time>2011-11-01T09:54:03Z</time>
      </trkpt>
      <trkpt lat="45.86213" lon="4.79965">
        <ele>449.8</ele>
        <time>2011-11-01T09:54:09Z</time>
      </trkpt>
      <trkpt lat="45.86213" lon="4.79968">
        <ele>449.8</ele>
        <time>2011-11-01T09:54:10Z</time>
      </trkpt>
      <trkpt lat="45.86212" lon="4.79972">
        <ele>449.6</ele>
        <time>2011-11-01T09:54:12Z</time>
      </trkpt>
      <trkpt lat="45.86209" lon="4.79975">
        <ele>449.6</ele>
        <time>2011-11-01T09:54:14Z</time>
      </trkpt>
      <trkpt lat="45.86199" lon="4.7998">
        <ele>449.2</ele>
        <time>2011-11-01T09:54:19Z</time>
      </trkpt>
      <trkpt lat="45.86185" lon="4.79983">
        <ele>448.8</ele>
        <time>2011-11-01T09:54:24Z</time>
      </trkpt>
      <trkpt lat="45.86179" lon="4.79985">
        <ele>448.6</ele>
        <time>2011-11-01T09:54:26Z</time>
      </trkpt>
      <trkpt lat="45.86171" lon="4.79988">
        <ele>448.4</ele>
        <time>2011-11-01T09:54:29Z</time>
      </trkpt>
      <trkpt lat="45.86159" lon="4.79985">
        <ele>448</ele>
        <time>2011-11-01T09:54:34Z</time>
      </trkpt>
      <trkpt lat="45.86146" lon="4.79986">
        <ele>447.4</ele>
        <time>2011-11-01T09:54:39Z</time>
      </trkpt>
      <trkpt lat="45.86143" lon="4.79988">
        <ele>447.4</ele>
        <time>2011-11-01T09:54:40Z</time>
      </trkpt>
      <trkpt lat="45.86136" lon="4.79992">
        <ele>447.2</ele>
        <time>2011-11-01T09:54:43Z</time>
      </trkpt>
      <trkpt lat="45.86122" lon="4.80003">
        <ele>446.8</ele>
        <time>2011-11-01T09:54:48Z</time>
      </trkpt>
      <trkpt lat="45.86112" lon="4.80013">
        <ele>446.4</ele>
        <time>2011-11-01T09:54:52Z</time>
      </trkpt>
      <trkpt lat="45.86107" lon="4.80016">
        <ele>446.2</ele>
        <time>2011-11-01T09:54:54Z</time>
      </trkpt>
      <trkpt lat="45.86096" lon="4.8002">
        <ele>445.4</ele>
        <time>2011-11-01T09:54:59Z</time>
      </trkpt>
      <trkpt lat="45.86084" lon="4.80025">
        <ele>444.8</ele>
        <time>2011-11-01T09:55:04Z</time>
      </trkpt>
      <trkpt lat="45.86077" lon="4.80029">
        <ele>444.4</ele>
        <time>2011-11-01T09:55:07Z</time>
      </trkpt>
      <trkpt lat="45.86072" lon="4.80031">
        <ele>444.2</ele>
        <time>2011-11-01T09:55:09Z</time>
      </trkpt>
      <trkpt lat="45.86058" lon="4.80039">
        <ele>443.8</ele>
        <time>2011-11-01T09:55:14Z</time>
      </trkpt>
      <trkpt lat="45.86045" lon="4.80042">
        <ele>443.6</ele>
        <time>2011-11-01T09:55:19Z</time>
      </trkpt>
      <trkpt lat="45.86043" lon="4.80042">
        <ele>443.6</ele>
        <time>2011-11-01T09:55:20Z</time>
      </trkpt>
      <trkpt lat="45.86035" lon="4.80045">
        <ele>443.8</ele>
        <time>2011-11-01T09:55:24Z</time>
      </trkpt>
      <trkpt lat="45.86039" lon="4.80045">
        <ele>444.8</ele>
        <time>2011-11-01T09:55:29Z</time>
      </trkpt>
      <trkpt lat="45.86045" lon="4.80064">
        <ele>444.2</ele>
        <time>2011-11-01T09:55:35Z</time>
      </trkpt>
      <trkpt lat="45.86048" lon="4.8008">
        <ele>444</ele>
        <time>2011-11-01T09:55:39Z</time>
      </trkpt>
      <trkpt lat="45.8605" lon="4.80082">
        <ele>443.8</ele>
        <time>2011-11-01T09:55:40Z</time>
      </trkpt>
      <trkpt lat="45.86053" lon="4.80089">
        <ele>443.6</ele>
        <time>2011-11-01T09:55:43Z</time>
      </trkpt>
      <trkpt lat="45.86051" lon="4.80095">
        <ele>443.4</ele>
        <time>2011-11-01T09:55:45Z</time>
      </trkpt>
      <trkpt lat="45.86049" lon="4.80106">
        <ele>443.2</ele>
        <time>2011-11-01T09:55:48Z</time>
      </trkpt>
      <trkpt lat="45.86048" lon="4.80115">
        <ele>442.8</ele>
        <time>2011-11-01T09:55:51Z</time>
      </trkpt>
      <trkpt lat="45.86045" lon="4.80127">
        <ele>442.4</ele>
        <time>2011-11-01T09:55:55Z</time>
      </trkpt>
      <trkpt lat="45.86044" lon="4.80129">
        <ele>442.2</ele>
        <time>2011-11-01T09:55:56Z</time>
      </trkpt>
      <trkpt lat="45.86043" lon="4.8014">
        <ele>441.6</ele>
        <time>2011-11-01T09:56:00Z</time>
      </trkpt>
      <trkpt lat="45.86042" lon="4.80144">
        <ele>441.4</ele>
        <time>2011-11-01T09:56:01Z</time>
      </trkpt>
      <trkpt lat="45.8604" lon="4.80158">
        <ele>440.6</ele>
        <time>2011-11-01T09:56:05Z</time>
      </trkpt>
      <trkpt lat="45.8604" lon="4.80175">
        <ele>439.8</ele>
        <time>2011-11-01T09:56:10Z</time>
      </trkpt>
      <trkpt lat="45.8604" lon="4.80178">
        <ele>439.6</ele>
        <time>2011-11-01T09:56:11Z</time>
      </trkpt>
      <trkpt lat="45.8604" lon="4.80194">
        <ele>438.6</ele>
        <time>2011-11-01T09:56:16Z</time>
      </trkpt>
      <trkpt lat="45.86036" lon="4.80208">
        <ele>437.4</ele>
        <time>2011-11-01T09:56:21Z</time>
      </trkpt>
      <trkpt lat="45.86027" lon="4.8021">
        <ele>436.8</ele>
        <time>2011-11-01T09:56:25Z</time>
      </trkpt>
      <trkpt lat="45.86021" lon="4.80208">
        <ele>436.2</ele>
        <time>2011-11-01T09:56:28Z</time>
      </trkpt>
      <trkpt lat="45.86016" lon="4.80209">
        <ele>435.8</ele>
        <time>2011-11-01T09:56:30Z</time>
      </trkpt>
      <trkpt lat="45.86009" lon="4.80214">
        <ele>435</ele>
        <time>2011-11-01T09:56:34Z</time>
      </trkpt>
      <trkpt lat="45.86" lon="4.8022">
        <ele>434.2</ele>
        <time>2011-11-01T09:56:38Z</time>
      </trkpt>
      <trkpt lat="45.85987" lon="4.80224">
        <ele>433</ele>
        <time>2011-11-01T09:56:43Z</time>
      </trkpt>
      <trkpt lat="45.85976" lon="4.80226">
        <ele>432</ele>
        <time>2011-11-01T09:56:48Z</time>
      </trkpt>
      <trkpt lat="45.85966" lon="4.80228">
        <ele>431</ele>
        <time>2011-11-01T09:56:53Z</time>
      </trkpt>
      <trkpt lat="45.8595" lon="4.80231">
        <ele>429.8</ele>
        <time>2011-11-01T09:56:59Z</time>
      </trkpt>
      <trkpt lat="45.85938" lon="4.80236">
        <ele>429</ele>
        <time>2011-11-01T09:57:03Z</time>
      </trkpt>
      <trkpt lat="45.85922" lon="4.8024">
        <ele>428</ele>
        <time>2011-11-01T09:57:09Z</time>
      </trkpt>
      <trkpt lat="45.85914" lon="4.80242">
        <ele>427.6</ele>
        <time>2011-11-01T09:57:12Z</time>
      </trkpt>
      <trkpt lat="45.85905" lon="4.80242">
        <ele>427</ele>
        <time>2011-11-01T09:57:15Z</time>
      </trkpt>
      <trkpt lat="45.8589" lon="4.80242">
        <ele>426</ele>
        <time>2011-11-01T09:57:20Z</time>
      </trkpt>
      <trkpt lat="45.85879" lon="4.80243">
        <ele>425.4</ele>
        <time>2011-11-01T09:57:24Z</time>
      </trkpt>
      <trkpt lat="45.85876" lon="4.80245">
        <ele>425.2</ele>
        <time>2011-11-01T09:57:25Z</time>
      </trkpt>
      <trkpt lat="45.85865" lon="4.80247">
        <ele>424.6</ele>
        <time>2011-11-01T09:57:29Z</time>
      </trkpt>
      <trkpt lat="45.85849" lon="4.80252">
        <ele>423.4</ele>
        <time>2011-11-01T09:57:35Z</time>
      </trkpt>
      <trkpt lat="45.85839" lon="4.80254">
        <ele>422.4</ele>
        <time>2011-11-01T09:57:39Z</time>
      </trkpt>
      <trkpt lat="45.85837" lon="4.80255">
        <ele>422.4</ele>
        <time>2011-11-01T09:57:40Z</time>
      </trkpt>
      <trkpt lat="45.8582" lon="4.80264">
        <ele>421.2</ele>
        <time>2011-11-01T09:57:46Z</time>
      </trkpt>
      <trkpt lat="45.85806" lon="4.80273">
        <ele>420.6</ele>
        <time>2011-11-01T09:57:51Z</time>
      </trkpt>
      <trkpt lat="45.85804" lon="4.80274">
        <ele>420.4</ele>
        <time>2011-11-01T09:57:52Z</time>
      </trkpt>
      <trkpt lat="45.8579" lon="4.80279">
        <ele>419.8</ele>
        <time>2011-11-01T09:57:57Z</time>
      </trkpt>
      <trkpt lat="45.85777" lon="4.80279">
        <ele>419.2</ele>
        <time>2011-11-01T09:58:02Z</time>
      </trkpt>
      <trkpt lat="45.85771" lon="4.80276">
        <ele>418.4</ele>
        <time>2011-11-01T09:58:06Z</time>
      </trkpt>
      <trkpt lat="45.8577" lon="4.80275">
        <ele>418.2</ele>
        <time>2011-11-01T09:58:07Z</time>
      </trkpt>
      <trkpt lat="45.85768" lon="4.80273">
        <ele>418</ele>
        <time>2011-11-01T09:58:09Z</time>
      </trkpt>
      <trkpt lat="45.85764" lon="4.8027">
        <ele>417.6</ele>
        <time>2011-11-01T09:58:12Z</time>
      </trkpt>
      <trkpt lat="45.85762" lon="4.80268">
        <ele>417.4</ele>
        <time>2011-11-01T09:58:13Z</time>
      </trkpt>
      <trkpt lat="45.85756" lon="4.8026">
        <ele>417</ele>
        <time>2011-11-01T09:58:16Z</time>
      </trkpt>
      <trkpt lat="45.85743" lon="4.80246">
        <ele>416.2</ele>
        <time>2011-11-01T09:58:22Z</time>
      </trkpt>
      <trkpt lat="45.85739" lon="4.80242">
        <ele>416</ele>
        <time>2011-11-01T09:58:24Z</time>
      </trkpt>
      <trkpt lat="45.85731" lon="4.80231">
        <ele>415.4</ele>
        <time>2011-11-01T09:58:28Z</time>
      </trkpt>
      <trkpt lat="45.8572" lon="4.80218">
        <ele>414.8</ele>
        <time>2011-11-01T09:58:33Z</time>
      </trkpt>
      <trkpt lat="45.85714" lon="4.80212">
        <ele>414.4</ele>
        <time>2011-11-01T09:58:36Z</time>
      </trkpt>
      <trkpt lat="45.8571" lon="4.80213">
        <ele>414.2</ele>
        <time>2011-11-01T09:58:38Z</time>
      </trkpt>
      <trkpt lat="45.85711" lon="4.80224">
        <ele>413.8</ele>
        <time>2011-11-01T09:58:41Z</time>
      </trkpt>
      <trkpt lat="45.85713" lon="4.80235">
        <ele>413.6</ele>
        <time>2011-11-01T09:58:43Z</time>
      </trkpt>
      <trkpt lat="45.85715" lon="4.80254">
        <ele>413.2</ele>
        <time>2011-11-01T09:58:47Z</time>
      </trkpt>
      <trkpt lat="45.85712" lon="4.80263">
        <ele>413</ele>
        <time>2011-11-01T09:58:50Z</time>
      </trkpt>
      <trkpt lat="45.85712" lon="4.80266">
        <ele>412.6</ele>
        <time>2011-11-01T09:58:52Z</time>
      </trkpt>
      <trkpt lat="45.85705" lon="4.80278">
        <ele>412</ele>
        <time>2011-11-01T09:58:57Z</time>
      </trkpt>
      <trkpt lat="45.85694" lon="4.80295">
        <ele>411.2</ele>
        <time>2011-11-01T09:59:02Z</time>
      </trkpt>
      <trkpt lat="45.8569" lon="4.80303">
        <ele>410.8</ele>
        <time>2011-11-01T09:59:04Z</time>
      </trkpt>
      <trkpt lat="45.85683" lon="4.80313">
        <ele>410.4</ele>
        <time>2011-11-01T09:59:07Z</time>
      </trkpt>
      <trkpt lat="45.85678" lon="4.80317">
        <ele>409.2</ele>
        <time>2011-11-01T09:59:12Z</time>
      </trkpt>
      <trkpt lat="45.8567" lon="4.80322">
        <ele>407</ele>
        <time>2011-11-01T09:59:19Z</time>
      </trkpt>
      <trkpt lat="45.85663" lon="4.80327">
        <ele>404.2</ele>
        <time>2011-11-01T09:59:26Z</time>
      </trkpt>
      <trkpt lat="45.85658" lon="4.80334">
        <ele>402.2</ele>
        <time>2011-11-01T09:59:31Z</time>
      </trkpt>
      <trkpt lat="45.85652" lon="4.80342">
        <ele>400.2</ele>
        <time>2011-11-01T09:59:36Z</time>
      </trkpt>
      <trkpt lat="45.85647" lon="4.80351">
        <ele>398.6</ele>
        <time>2011-11-01T09:59:40Z</time>
      </trkpt>
      <trkpt lat="45.85648" lon="4.80356">
        <ele>398.2</ele>
        <time>2011-11-01T09:59:41Z</time>
      </trkpt>
      <trkpt lat="45.85647" lon="4.80373">
        <ele>396.4</ele>
        <time>2011-11-01T09:59:45Z</time>
      </trkpt>
      <trkpt lat="45.85647" lon="4.80381">
        <ele>395.6</ele>
        <time>2011-11-01T09:59:47Z</time>
      </trkpt>
      <trkpt lat="45.85647" lon="4.80385">
        <ele>395.4</ele>
        <time>2011-11-01T09:59:48Z</time>
      </trkpt>
      <trkpt lat="45.85647" lon="4.80392">
        <ele>394.6</ele>
        <time>2011-11-01T09:59:50Z</time>
      </trkpt>
      <trkpt lat="45.85649" lon="4.80415">
        <ele>392.4</ele>
        <time>2011-11-01T09:59:56Z</time>
      </trkpt>
      <trkpt lat="45.85648" lon="4.80434">
        <ele>390.6</ele>
        <time>2011-11-01T10:00:02Z</time>
      </trkpt>
      <trkpt lat="45.85643" lon="4.80449">
        <ele>388.2</ele>
        <time>2011-11-01T10:00:09Z</time>
      </trkpt>
      <trkpt lat="45.8564" lon="4.80458">
        <ele>385.8</ele>
        <time>2011-11-01T10:00:15Z</time>
      </trkpt>
      <trkpt lat="45.85636" lon="4.80472">
        <ele>383</ele>
        <time>2011-11-01T10:00:22Z</time>
      </trkpt>
      <trkpt lat="45.85636" lon="4.80483">
        <ele>381</ele>
        <time>2011-11-01T10:00:27Z</time>
      </trkpt>
      <trkpt lat="45.85636" lon="4.80483">
        <ele>380.6</ele>
        <time>2011-11-01T10:00:28Z</time>
      </trkpt>
      <trkpt lat="45.85637" lon="4.80484">
        <ele>379.2</ele>
        <time>2011-11-01T10:00:31Z</time>
      </trkpt>
      <trkpt lat="45.85637" lon="4.80488">
        <ele>378.4</ele>
        <time>2011-11-01T10:00:33Z</time>
      </trkpt>
      <trkpt lat="45.85635" lon="4.80498">
        <ele>376.2</ele>
        <time>2011-11-01T10:00:38Z</time>
      </trkpt>
      <trkpt lat="45.85635" lon="4.805">
        <ele>375.8</ele>
        <time>2011-11-01T10:00:39Z</time>
      </trkpt>
      <trkpt lat="45.85637" lon="4.80509">
        <ele>374.4</ele>
        <time>2011-11-01T10:00:42Z</time>
      </trkpt>
      <trkpt lat="45.85641" lon="4.80517">
        <ele>372.4</ele>
        <time>2011-11-01T10:00:46Z</time>
      </trkpt>
      <trkpt lat="45.85642" lon="4.80519">
        <ele>371.8</ele>
        <time>2011-11-01T10:00:47Z</time>
      </trkpt>
      <trkpt lat="45.85641" lon="4.8053">
        <ele>369.8</ele>
        <time>2011-11-01T10:00:51Z</time>
      </trkpt>
      <trkpt lat="45.85639" lon="4.80539">
        <ele>368.2</ele>
        <time>2011-11-01T10:00:54Z</time>
      </trkpt>
      <trkpt lat="45.85638" lon="4.80545">
        <ele>366.6</ele>
        <time>2011-11-01T10:00:57Z</time>
      </trkpt>
      <trkpt lat="45.85635" lon="4.80549">
        <ele>365.6</ele>
        <time>2011-11-01T10:00:59Z</time>
      </trkpt>
      <trkpt lat="45.85631" lon="4.80553">
        <ele>364</ele>
        <time>2011-11-01T10:01:02Z</time>
      </trkpt>
      <trkpt lat="45.85631" lon="4.80552">
        <ele>363.6</ele>
        <time>2011-11-01T10:01:03Z</time>
      </trkpt>
      <trkpt lat="45.8563" lon="4.80552">
        <ele>363.2</ele>
        <time>2011-11-01T10:01:04Z</time>
      </trkpt>
      <trkpt lat="45.85627" lon="4.80549">
        <ele>361.2</ele>
        <time>2011-11-01T10:01:08Z</time>
      </trkpt>
      <trkpt lat="45.85625" lon="4.80552">
        <ele>358.8</ele>
        <time>2011-11-01T10:01:14Z</time>
      </trkpt>
      <trkpt lat="45.85616" lon="4.80569">
        <ele>347.8</ele>
        <time>2011-11-01T10:02:17Z</time>
      </trkpt>
      <trkpt lat="45.85612" lon="4.80567">
        <ele>347.4</ele>
        <time>2011-11-01T10:02:20Z</time>
      </trkpt>
      <trkpt lat="45.85609" lon="4.80565">
        <ele>347.2</ele>
        <time>2011-11-01T10:02:22Z</time>
      </trkpt>
      <trkpt lat="45.85602" lon="4.80563">
        <ele>346.6</ele>
        <time>2011-11-01T10:02:26Z</time>
      </trkpt>
      <trkpt lat="45.85592" lon="4.80569">
        <ele>345.8</ele>
        <time>2011-11-01T10:02:31Z</time>
      </trkpt>
      <trkpt lat="45.8559" lon="4.8057">
        <ele>345.6</ele>
        <time>2011-11-01T10:02:32Z</time>
      </trkpt>
      <trkpt lat="45.8558" lon="4.80581">
        <ele>344.2</ele>
        <time>2011-11-01T10:02:39Z</time>
      </trkpt>
      <trkpt lat="45.85576" lon="4.80584">
        <ele>343.8</ele>
        <time>2011-11-01T10:02:41Z</time>
      </trkpt>
      <trkpt lat="45.85572" lon="4.8059">
        <ele>343</ele>
        <time>2011-11-01T10:02:44Z</time>
      </trkpt>
      <trkpt lat="45.85568" lon="4.80594">
        <ele>341.8</ele>
        <time>2011-11-01T10:02:48Z</time>
      </trkpt>
      <trkpt lat="45.85566" lon="4.80598">
        <ele>341.2</ele>
        <time>2011-11-01T10:02:50Z</time>
      </trkpt>
      <trkpt lat="45.85566" lon="4.80607">
        <ele>340.2</ele>
        <time>2011-11-01T10:02:53Z</time>
      </trkpt>
      <trkpt lat="45.85566" lon="4.8061">
        <ele>340</ele>
        <time>2011-11-01T10:02:54Z</time>
      </trkpt>
      <trkpt lat="45.85565" lon="4.80626">
        <ele>338.6</ele>
        <time>2011-11-01T10:02:59Z</time>
      </trkpt>
      <trkpt lat="45.85564" lon="4.80629">
        <ele>338.2</ele>
        <time>2011-11-01T10:03:00Z</time>
      </trkpt>
      <trkpt lat="45.85562" lon="4.80641">
        <ele>337.2</ele>
        <time>2011-11-01T10:03:04Z</time>
      </trkpt>
      <trkpt lat="45.85559" lon="4.80651">
        <ele>335.6</ele>
        <time>2011-11-01T10:03:09Z</time>
      </trkpt>
      <trkpt lat="45.85558" lon="4.80651">
        <ele>335.4</ele>
        <time>2011-11-01T10:03:10Z</time>
      </trkpt>
      <trkpt lat="45.85554" lon="4.80652">
        <ele>334.2</ele>
        <time>2011-11-01T10:03:14Z</time>
      </trkpt>
      <trkpt lat="45.85546" lon="4.80652">
        <ele>332.6</ele>
        <time>2011-11-01T10:03:20Z</time>
      </trkpt>
      <trkpt lat="45.85538" lon="4.80651">
        <ele>331.4</ele>
        <time>2011-11-01T10:03:25Z</time>
      </trkpt>
      <trkpt lat="45.85533" lon="4.80651">
        <ele>330.4</ele>
        <time>2011-11-01T10:03:29Z</time>
      </trkpt>
      <trkpt lat="45.85523" lon="4.8065">
        <ele>329</ele>
        <time>2011-11-01T10:03:37Z</time>
      </trkpt>
      <trkpt lat="45.85514" lon="4.8065">
        <ele>328.2</ele>
        <time>2011-11-01T10:03:43Z</time>
      </trkpt>
      <trkpt lat="45.85507" lon="4.80649">
        <ele>327.2</ele>
        <time>2011-11-01T10:03:49Z</time>
      </trkpt>
      <trkpt lat="45.85502" lon="4.80649">
        <ele>326.8</ele>
        <time>2011-11-01T10:03:53Z</time>
      </trkpt>
      <trkpt lat="45.85501" lon="4.80648">
        <ele>326.6</ele>
        <time>2011-11-01T10:03:54Z</time>
      </trkpt>
      <trkpt lat="45.85494" lon="4.80649">
        <ele>326.4</ele>
        <time>2011-11-01T10:04:00Z</time>
      </trkpt>
      <trkpt lat="45.85492" lon="4.80651">
        <ele>326.2</ele>
        <time>2011-11-01T10:04:04Z</time>
      </trkpt>
      <trkpt lat="45.85492" lon="4.80653">
        <ele>326.2</ele>
        <time>2011-11-01T10:04:05Z</time>
      </trkpt>
      <trkpt lat="45.85494" lon="4.8067">
        <ele>326.2</ele>
        <time>2011-11-01T10:04:11Z</time>
      </trkpt>
      <trkpt lat="45.85495" lon="4.80681">
        <ele>326.2</ele>
        <time>2011-11-01T10:04:16Z</time>
      </trkpt>
      <trkpt lat="45.85499" lon="4.80685">
        <ele>326</ele>
        <time>2011-11-01T10:04:20Z</time>
      </trkpt>
      <trkpt lat="45.85498" lon="4.80688">
        <ele>326</ele>
        <time>2011-11-01T10:04:22Z</time>
      </trkpt>
      <trkpt lat="45.85497" lon="4.80693">
        <ele>325.8</ele>
        <time>2011-11-01T10:04:26Z</time>
      </trkpt>
      <trkpt lat="45.85495" lon="4.80692">
        <ele>325.8</ele>
        <time>2011-11-01T10:04:28Z</time>
      </trkpt>
      <trkpt lat="45.85493" lon="4.80689">
        <ele>325.8</ele>
        <time>2011-11-01T10:04:30Z</time>
      </trkpt>
      <trkpt lat="45.85492" lon="4.80686">
        <ele>326.2</ele>
        <time>2011-11-01T10:04:33Z</time>
      </trkpt>
      <trkpt lat="45.85492" lon="4.80686">
        <ele>326.4</ele>
        <time>2011-11-01T10:04:34Z</time>
      </trkpt>
      <trkpt lat="45.85485" lon="4.80689">
        <ele>326.8</ele>
        <time>2011-11-01T10:04:40Z</time>
      </trkpt>
      <trkpt lat="45.85476" lon="4.80693">
        <ele>326.6</ele>
        <time>2011-11-01T10:04:45Z</time>
      </trkpt>
      <trkpt lat="45.85475" lon="4.80693">
        <ele>326.6</ele>
        <time>2011-11-01T10:04:46Z</time>
      </trkpt>
      <trkpt lat="45.85471" lon="4.80696">
        <ele>326.6</ele>
        <time>2011-11-01T10:04:49Z</time>
      </trkpt>
      <trkpt lat="45.85469" lon="4.80701">
        <ele>326.4</ele>
        <time>2011-11-01T10:04:53Z</time>
      </trkpt>
      <trkpt lat="45.85469" lon="4.80711">
        <ele>326.4</ele>
        <time>2011-11-01T10:04:59Z</time>
      </trkpt>
      <trkpt lat="45.85472" lon="4.80713">
        <ele>326.6</ele>
        <time>2011-11-01T10:05:01Z</time>
      </trkpt>
      <trkpt lat="45.85475" lon="4.80717">
        <ele>326.4</ele>
        <time>2011-11-01T10:05:04Z</time>
      </trkpt>
      <trkpt lat="45.8548" lon="4.80716">
        <ele>326.4</ele>
        <time>2011-11-01T10:05:09Z</time>
      </trkpt>
      <trkpt lat="45.85485" lon="4.80722">
        <ele>326.2</ele>
        <time>2011-11-01T10:05:14Z</time>
      </trkpt>
      <trkpt lat="45.85491" lon="4.80726">
        <ele>326.2</ele>
        <time>2011-11-01T10:05:18Z</time>
      </trkpt>
      <trkpt lat="45.85492" lon="4.80728">
        <ele>326.4</ele>
        <time>2011-11-01T10:05:19Z</time>
      </trkpt>
      <trkpt lat="45.85493" lon="4.80729">
        <ele>326.6</ele>
        <time>2011-11-01T10:05:20Z</time>
      </trkpt>
      <trkpt lat="45.85494" lon="4.80732">
        <ele>326.8</ele>
        <time>2011-11-01T10:05:23Z</time>
      </trkpt>
      <trkpt lat="45.85495" lon="4.80736">
        <ele>326.8</ele>
        <time>2011-11-01T10:05:25Z</time>
      </trkpt>
      <trkpt lat="45.85494" lon="4.80738">
        <ele>327</ele>
        <time>2011-11-01T10:05:27Z</time>
      </trkpt>
      <trkpt lat="45.85488" lon="4.80732">
        <ele>328</ele>
        <time>2011-11-01T10:05:33Z</time>
      </trkpt>
      <trkpt lat="45.85484" lon="4.80729">
        <ele>329.2</ele>
        <time>2011-11-01T10:05:40Z</time>
      </trkpt>
      <trkpt lat="45.85479" lon="4.8073">
        <ele>329.4</ele>
        <time>2011-11-01T10:05:45Z</time>
      </trkpt>
      <trkpt lat="45.85475" lon="4.8073">
        <ele>329.8</ele>
        <time>2011-11-01T10:05:50Z</time>
      </trkpt>
      <trkpt lat="45.85472" lon="4.80732">
        <ele>330.2</ele>
        <time>2011-11-01T10:05:54Z</time>
      </trkpt>
      <trkpt lat="45.85467" lon="4.80733">
        <ele>330.8</ele>
        <time>2011-11-01T10:05:59Z</time>
      </trkpt>
      <trkpt lat="45.85466" lon="4.80734">
        <ele>331</ele>
        <time>2011-11-01T10:06:01Z</time>
      </trkpt>
      <trkpt lat="45.85459" lon="4.80737">
        <ele>331.6</ele>
        <time>2011-11-01T10:06:07Z</time>
      </trkpt>
      <trkpt lat="45.85454" lon="4.80741">
        <ele>333.2</ele>
        <time>2011-11-01T10:06:14Z</time>
      </trkpt>
      <trkpt lat="45.85448" lon="4.80749">
        <ele>335.8</ele>
        <time>2011-11-01T10:06:22Z</time>
      </trkpt>
      <trkpt lat="45.85442" lon="4.80754">
        <ele>337.4</ele>
        <time>2011-11-01T10:06:28Z</time>
      </trkpt>
      <trkpt lat="45.85441" lon="4.80754">
        <ele>337.4</ele>
        <time>2011-11-01T10:06:29Z</time>
      </trkpt>
      <trkpt lat="45.85438" lon="4.80755">
        <ele>338.6</ele>
        <time>2011-11-01T10:06:33Z</time>
      </trkpt>
      <trkpt lat="45.85435" lon="4.80753">
        <ele>339.2</ele>
        <time>2011-11-01T10:06:37Z</time>
      </trkpt>
      <trkpt lat="45.85434" lon="4.80753">
        <ele>339.2</ele>
        <time>2011-11-01T10:06:38Z</time>
      </trkpt>
      <trkpt lat="45.85432" lon="4.80754">
        <ele>340</ele>
        <time>2011-11-01T10:06:43Z</time>
      </trkpt>
      <trkpt lat="45.85428" lon="4.80753">
        <ele>340.2</ele>
        <time>2011-11-01T10:06:45Z</time>
      </trkpt>
      <trkpt lat="45.85424" lon="4.80753">
        <ele>340.8</ele>
        <time>2011-11-01T10:06:49Z</time>
      </trkpt>
      <trkpt lat="45.8542" lon="4.80755">
        <ele>340.8</ele>
        <time>2011-11-01T10:06:53Z</time>
      </trkpt>
      <trkpt lat="45.85413" lon="4.80756">
        <ele>341.2</ele>
        <time>2011-11-01T10:06:59Z</time>
      </trkpt>
      <trkpt lat="45.85409" lon="4.80758">
        <ele>341.4</ele>
        <time>2011-11-01T10:07:02Z</time>
      </trkpt>
      <trkpt lat="45.85405" lon="4.8076">
        <ele>341.2</ele>
        <time>2011-11-01T10:07:05Z</time>
      </trkpt>
      <trkpt lat="45.85401" lon="4.80764">
        <ele>341.4</ele>
        <time>2011-11-01T10:07:11Z</time>
      </trkpt>
      <trkpt lat="45.85401" lon="4.80765">
        <ele>341.4</ele>
        <time>2011-11-01T10:07:13Z</time>
      </trkpt>
      <trkpt lat="45.85398" lon="4.80772">
        <ele>341.6</ele>
        <time>2011-11-01T10:07:21Z</time>
      </trkpt>
      <trkpt lat="45.85394" lon="4.80778">
        <ele>342.8</ele>
        <time>2011-11-01T10:07:27Z</time>
      </trkpt>
      <trkpt lat="45.85386" lon="4.80788">
        <ele>344.8</ele>
        <time>2011-11-01T10:07:34Z</time>
      </trkpt>
      <trkpt lat="45.85383" lon="4.8079">
        <ele>345.8</ele>
        <time>2011-11-01T10:07:38Z</time>
      </trkpt>
      <trkpt lat="45.85382" lon="4.80791">
        <ele>346.2</ele>
        <time>2011-11-01T10:07:39Z</time>
      </trkpt>
      <trkpt lat="45.85379" lon="4.80793">
        <ele>348</ele>
        <time>2011-11-01T10:07:44Z</time>
      </trkpt>
      <trkpt lat="45.85376" lon="4.80796">
        <ele>350.4</ele>
        <time>2011-11-01T10:07:50Z</time>
      </trkpt>
      <trkpt lat="45.85374" lon="4.80797">
        <ele>350.6</ele>
        <time>2011-11-01T10:07:51Z</time>
      </trkpt>
      <trkpt lat="45.85368" lon="4.80803">
        <ele>351.6</ele>
        <time>2011-11-01T10:07:56Z</time>
      </trkpt>
      <trkpt lat="45.85364" lon="4.80807">
        <ele>353.2</ele>
        <time>2011-11-01T10:08:03Z</time>
      </trkpt>
      <trkpt lat="45.85362" lon="4.80809">
        <ele>353.8</ele>
        <time>2011-11-01T10:08:07Z</time>
      </trkpt>
      <trkpt lat="45.85359" lon="4.80813">
        <ele>354.8</ele>
        <time>2011-11-01T10:08:13Z</time>
      </trkpt>
      <trkpt lat="45.85358" lon="4.80815">
        <ele>354.8</ele>
        <time>2011-11-01T10:08:14Z</time>
      </trkpt>
      <trkpt lat="45.85356" lon="4.80817">
        <ele>355</ele>
        <time>2011-11-01T10:08:17Z</time>
      </trkpt>
      <trkpt lat="45.85353" lon="4.80822">
        <ele>355.6</ele>
        <time>2011-11-01T10:08:21Z</time>
      </trkpt>
      <trkpt lat="45.85352" lon="4.80825">
        <ele>356</ele>
        <time>2011-11-01T10:08:25Z</time>
      </trkpt>
      <trkpt lat="45.8535" lon="4.80833">
        <ele>356.2</ele>
        <time>2011-11-01T10:08:30Z</time>
      </trkpt>
      <trkpt lat="45.8535" lon="4.80835">
        <ele>356</ele>
        <time>2011-11-01T10:08:31Z</time>
      </trkpt>
      <trkpt lat="45.85348" lon="4.80842">
        <ele>356.4</ele>
        <time>2011-11-01T10:08:36Z</time>
      </trkpt>
      <trkpt lat="45.85345" lon="4.80852">
        <ele>357.8</ele>
        <time>2011-11-01T10:08:43Z</time>
      </trkpt>
      <trkpt lat="45.85345" lon="4.80857">
        <ele>358.8</ele>
        <time>2011-11-01T10:08:48Z</time>
      </trkpt>
      <trkpt lat="45.85344" lon="4.80862">
        <ele>359.4</ele>
        <time>2011-11-01T10:08:51Z</time>
      </trkpt>
      <trkpt lat="45.85344" lon="4.80864">
        <ele>360</ele>
        <time>2011-11-01T10:08:52Z</time>
      </trkpt>
      <trkpt lat="45.85347" lon="4.80867">
        <ele>361.8</ele>
        <time>2011-11-01T10:08:58Z</time>
      </trkpt>
      <trkpt lat="45.85347" lon="4.8087">
        <ele>362.4</ele>
        <time>2011-11-01T10:09:00Z</time>
      </trkpt>
      <trkpt lat="45.85347" lon="4.80873">
        <ele>363</ele>
        <time>2011-11-01T10:09:02Z</time>
      </trkpt>
      <trkpt lat="45.85348" lon="4.80876">
        <ele>364</ele>
        <time>2011-11-01T10:09:06Z</time>
      </trkpt>
      <trkpt lat="45.8535" lon="4.80882">
        <ele>366</ele>
        <time>2011-11-01T10:09:10Z</time>
      </trkpt>
      <trkpt lat="45.85351" lon="4.80888">
        <ele>367.8</ele>
        <time>2011-11-01T10:09:15Z</time>
      </trkpt>
      <trkpt lat="45.85353" lon="4.80894">
        <ele>370.2</ele>
        <time>2011-11-01T10:09:20Z</time>
      </trkpt>
      <trkpt lat="45.85352" lon="4.80904">
        <ele>373</ele>
        <time>2011-11-01T10:09:30Z</time>
      </trkpt>
      <trkpt lat="45.85352" lon="4.80914">
        <ele>374.6</ele>
        <time>2011-11-01T10:09:36Z</time>
      </trkpt>
      <trkpt lat="45.85353" lon="4.80924">
        <ele>375.4</ele>
        <time>2011-11-01T10:09:43Z</time>
      </trkpt>
      <trkpt lat="45.85355" lon="4.80928">
        <ele>376</ele>
        <time>2011-11-01T10:09:46Z</time>
      </trkpt>
      <trkpt lat="45.85356" lon="4.80929">
        <ele>376.2</ele>
        <time>2011-11-01T10:09:47Z</time>
      </trkpt>
      <trkpt lat="45.85357" lon="4.80934">
        <ele>377</ele>
        <time>2011-11-01T10:09:50Z</time>
      </trkpt>
      <trkpt lat="45.85353" lon="4.80941">
        <ele>377.4</ele>
        <time>2011-11-01T10:09:54Z</time>
      </trkpt>
      <trkpt lat="45.85356" lon="4.80949">
        <ele>378.8</ele>
        <time>2011-11-01T10:10:01Z</time>
      </trkpt>
      <trkpt lat="45.8534" lon="4.80966">
        <ele>384</ele>
        <time>2011-11-01T10:10:30Z</time>
      </trkpt>
      <trkpt lat="45.85338" lon="4.80965">
        <ele>384.4</ele>
        <time>2011-11-01T10:10:39Z</time>
      </trkpt>
      <trkpt lat="45.85334" lon="4.80966">
        <ele>386</ele>
        <time>2011-11-01T10:10:46Z</time>
      </trkpt>
      <trkpt lat="45.85332" lon="4.80965">
        <ele>386.2</ele>
        <time>2011-11-01T10:10:48Z</time>
      </trkpt>
      <trkpt lat="45.8533" lon="4.80965">
        <ele>386.2</ele>
        <time>2011-11-01T10:10:49Z</time>
      </trkpt>
      <trkpt lat="45.85328" lon="4.80964">
        <ele>386.4</ele>
        <time>2011-11-01T10:10:51Z</time>
      </trkpt>
      <trkpt lat="45.85327" lon="4.80965">
        <ele>386.6</ele>
        <time>2011-11-01T10:10:52Z</time>
      </trkpt>
      <trkpt lat="45.85322" lon="4.80964">
        <ele>386.6</ele>
        <time>2011-11-01T10:10:56Z</time>
      </trkpt>
      <trkpt lat="45.85316" lon="4.8096">
        <ele>387.4</ele>
        <time>2011-11-01T10:11:02Z</time>
      </trkpt>
      <trkpt lat="45.85315" lon="4.8096">
        <ele>387.4</ele>
        <time>2011-11-01T10:11:03Z</time>
      </trkpt>
      <trkpt lat="45.85314" lon="4.8096">
        <ele>387.6</ele>
        <time>2011-11-01T10:11:04Z</time>
      </trkpt>
      <trkpt lat="45.85311" lon="4.80955">
        <ele>388.4</ele>
        <time>2011-11-01T10:11:08Z</time>
      </trkpt>
      <trkpt lat="45.85305" lon="4.80951">
        <ele>389.6</ele>
        <time>2011-11-01T10:11:14Z</time>
      </trkpt>
      <trkpt lat="45.85297" lon="4.80953">
        <ele>390.6</ele>
        <time>2011-11-01T10:11:19Z</time>
      </trkpt>
      <trkpt lat="45.85296" lon="4.80952">
        <ele>391</ele>
        <time>2011-11-01T10:11:20Z</time>
      </trkpt>
      <trkpt lat="45.85293" lon="4.80949">
        <ele>392.2</ele>
        <time>2011-11-01T10:11:24Z</time>
      </trkpt>
      <trkpt lat="45.85291" lon="4.80948">
        <ele>392.8</ele>
        <time>2011-11-01T10:11:26Z</time>
      </trkpt>
      <trkpt lat="45.85287" lon="4.80946">
        <ele>393.8</ele>
        <time>2011-11-01T10:11:29Z</time>
      </trkpt>
      <trkpt lat="45.85284" lon="4.80941">
        <ele>396</ele>
        <time>2011-11-01T10:11:34Z</time>
      </trkpt>
      <trkpt lat="45.85281" lon="4.80938">
        <ele>398</ele>
        <time>2011-11-01T10:11:38Z</time>
      </trkpt>
      <trkpt lat="45.85274" lon="4.80929">
        <ele>401.4</ele>
        <time>2011-11-01T10:11:46Z</time>
      </trkpt>
      <trkpt lat="45.85269" lon="4.80921">
        <ele>404.2</ele>
        <time>2011-11-01T10:11:51Z</time>
      </trkpt>
      <trkpt lat="45.85267" lon="4.80919">
        <ele>404.8</ele>
        <time>2011-11-01T10:11:52Z</time>
      </trkpt>
      <trkpt lat="45.85256" lon="4.80916">
        <ele>407.6</ele>
        <time>2011-11-01T10:11:59Z</time>
      </trkpt>
      <trkpt lat="45.85245" lon="4.80917">
        <ele>408.4</ele>
        <time>2011-11-01T10:12:07Z</time>
      </trkpt>
      <trkpt lat="45.85247" lon="4.80905">
        <ele>413.6</ele>
        <time>2011-11-01T10:12:24Z</time>
      </trkpt>
      <trkpt lat="45.85247" lon="4.80903">
        <ele>415</ele>
        <time>2011-11-01T10:12:29Z</time>
      </trkpt>
      <trkpt lat="45.85256" lon="4.80897">
        <ele>421.8</ele>
        <time>2011-11-01T10:12:52Z</time>
      </trkpt>
      <trkpt lat="45.85251" lon="4.80902">
        <ele>421.4</ele>
        <time>2011-11-01T10:13:04Z</time>
      </trkpt>
      <trkpt lat="45.8524" lon="4.80904">
        <ele>420.2</ele>
        <time>2011-11-01T10:13:11Z</time>
      </trkpt>
      <trkpt lat="45.85233" lon="4.80903">
        <ele>419.2</ele>
        <time>2011-11-01T10:13:17Z</time>
      </trkpt>
      <trkpt lat="45.85227" lon="4.80898">
        <ele>418.4</ele>
        <time>2011-11-01T10:13:22Z</time>
      </trkpt>
      <trkpt lat="45.85222" lon="4.80896">
        <ele>417.6</ele>
        <time>2011-11-01T10:13:26Z</time>
      </trkpt>
      <trkpt lat="45.8522" lon="4.80896">
        <ele>417.2</ele>
        <time>2011-11-01T10:13:28Z</time>
      </trkpt>
      <trkpt lat="45.85212" lon="4.80896">
        <ele>416</ele>
        <time>2011-11-01T10:13:35Z</time>
      </trkpt>
      <trkpt lat="45.85208" lon="4.80896">
        <ele>415.6</ele>
        <time>2011-11-01T10:13:41Z</time>
      </trkpt>
      <trkpt lat="45.85205" lon="4.80893">
        <ele>415.2</ele>
        <time>2011-11-01T10:13:47Z</time>
      </trkpt>
      <trkpt lat="45.85203" lon="4.80891">
        <ele>415.2</ele>
        <time>2011-11-01T10:13:52Z</time>
      </trkpt>
      <trkpt lat="45.852" lon="4.8089">
        <ele>415.4</ele>
        <time>2011-11-01T10:13:57Z</time>
      </trkpt>
      <trkpt lat="45.85194" lon="4.80888">
        <ele>415.6</ele>
        <time>2011-11-01T10:14:03Z</time>
      </trkpt>
      <trkpt lat="45.85188" lon="4.80888">
        <ele>416.8</ele>
        <time>2011-11-01T10:14:10Z</time>
      </trkpt>
      <trkpt lat="45.85187" lon="4.80888">
        <ele>417.2</ele>
        <time>2011-11-01T10:14:13Z</time>
      </trkpt>
      <trkpt lat="45.85182" lon="4.80889">
        <ele>417.4</ele>
        <time>2011-11-01T10:14:16Z</time>
      </trkpt>
      <trkpt lat="45.85177" lon="4.8089">
        <ele>418.4</ele>
        <time>2011-11-01T10:14:22Z</time>
      </trkpt>
      <trkpt lat="45.8517" lon="4.80888">
        <ele>420.6</ele>
        <time>2011-11-01T10:14:29Z</time>
      </trkpt>
      <trkpt lat="45.85166" lon="4.80884">
        <ele>422.4</ele>
        <time>2011-11-01T10:14:34Z</time>
      </trkpt>
      <trkpt lat="45.85161" lon="4.80882">
        <ele>423.8</ele>
        <time>2011-11-01T10:14:38Z</time>
      </trkpt>
      <trkpt lat="45.85156" lon="4.80882">
        <ele>425.8</ele>
        <time>2011-11-01T10:14:42Z</time>
      </trkpt>
      <trkpt lat="45.85151" lon="4.80886">
        <ele>427.2</ele>
        <time>2011-11-01T10:14:47Z</time>
      </trkpt>
      <trkpt lat="45.8515" lon="4.80885">
        <ele>427.8</ele>
        <time>2011-11-01T10:14:48Z</time>
      </trkpt>
      <trkpt lat="45.85144" lon="4.80887">
        <ele>429.2</ele>
        <time>2011-11-01T10:14:53Z</time>
      </trkpt>
      <trkpt lat="45.85141" lon="4.80886">
        <ele>430.4</ele>
        <time>2011-11-01T10:14:58Z</time>
      </trkpt>
      <trkpt lat="45.85136" lon="4.80885">
        <ele>432.2</ele>
        <time>2011-11-01T10:15:05Z</time>
      </trkpt>
      <trkpt lat="45.85133" lon="4.80878">
        <ele>433.8</ele>
        <time>2011-11-01T10:15:11Z</time>
      </trkpt>
      <trkpt lat="45.85129" lon="4.80872">
        <ele>435.8</ele>
        <time>2011-11-01T10:15:16Z</time>
      </trkpt>
      <trkpt lat="45.85128" lon="4.80869">
        <ele>436.4</ele>
        <time>2011-11-01T10:15:17Z</time>
      </trkpt>
      <trkpt lat="45.85123" lon="4.80865">
        <ele>438.8</ele>
        <time>2011-11-01T10:15:24Z</time>
      </trkpt>
      <trkpt lat="45.85121" lon="4.80861">
        <ele>440.2</ele>
        <time>2011-11-01T10:15:28Z</time>
      </trkpt>
      <trkpt lat="45.85119" lon="4.8086">
        <ele>441</ele>
        <time>2011-11-01T10:15:30Z</time>
      </trkpt>
      <trkpt lat="45.85111" lon="4.80852">
        <ele>443.6</ele>
        <time>2011-11-01T10:15:37Z</time>
      </trkpt>
      <trkpt lat="45.85102" lon="4.80845">
        <ele>446</ele>
        <time>2011-11-01T10:15:45Z</time>
      </trkpt>
      <trkpt lat="45.85097" lon="4.80839">
        <ele>448</ele>
        <time>2011-11-01T10:15:52Z</time>
      </trkpt>
      <trkpt lat="45.85092" lon="4.80835">
        <ele>449</ele>
        <time>2011-11-01T10:15:57Z</time>
      </trkpt>
      <trkpt lat="45.85089" lon="4.80834">
        <ele>449.2</ele>
        <time>2011-11-01T10:16:00Z</time>
      </trkpt>
      <trkpt lat="45.85087" lon="4.80831">
        <ele>449.6</ele>
        <time>2011-11-01T10:16:02Z</time>
      </trkpt>
      <trkpt lat="45.85079" lon="4.80823">
        <ele>450.2</ele>
        <time>2011-11-01T10:16:09Z</time>
      </trkpt>
      <trkpt lat="45.85073" lon="4.80817">
        <ele>450.8</ele>
        <time>2011-11-01T10:16:14Z</time>
      </trkpt>
      <trkpt lat="45.85071" lon="4.80814">
        <ele>451.2</ele>
        <time>2011-11-01T10:16:16Z</time>
      </trkpt>
      <trkpt lat="45.85067" lon="4.80813">
        <ele>451.6</ele>
        <time>2011-11-01T10:16:19Z</time>
      </trkpt>
      <trkpt lat="45.85062" lon="4.8081">
        <ele>451.8</ele>
        <time>2011-11-01T10:16:23Z</time>
      </trkpt>
      <trkpt lat="45.85058" lon="4.80806">
        <ele>452.4</ele>
        <time>2011-11-01T10:16:26Z</time>
      </trkpt>
      <trkpt lat="45.85057" lon="4.80805">
        <ele>452.6</ele>
        <time>2011-11-01T10:16:27Z</time>
      </trkpt>
      <trkpt lat="45.85052" lon="4.80802">
        <ele>453.2</ele>
        <time>2011-11-01T10:16:32Z</time>
      </trkpt>
      <trkpt lat="45.85049" lon="4.80793">
        <ele>454.8</ele>
        <time>2011-11-01T10:16:37Z</time>
      </trkpt>
      <trkpt lat="45.85048" lon="4.80792">
        <ele>455</ele>
        <time>2011-11-01T10:16:38Z</time>
      </trkpt>
      <trkpt lat="45.85043" lon="4.80786">
        <ele>456.2</ele>
        <time>2011-11-01T10:16:43Z</time>
      </trkpt>
      <trkpt lat="45.85032" lon="4.80777">
        <ele>458.2</ele>
        <time>2011-11-01T10:16:51Z</time>
      </trkpt>
      <trkpt lat="45.85028" lon="4.80774">
        <ele>458.6</ele>
        <time>2011-11-01T10:16:54Z</time>
      </trkpt>
      <trkpt lat="45.85026" lon="4.80772">
        <ele>459.2</ele>
        <time>2011-11-01T10:16:56Z</time>
      </trkpt>
      <trkpt lat="45.85018" lon="4.80764">
        <ele>460.8</ele>
        <time>2011-11-01T10:17:03Z</time>
      </trkpt>
      <trkpt lat="45.85015" lon="4.80761">
        <ele>461.2</ele>
        <time>2011-11-01T10:17:05Z</time>
      </trkpt>
      <trkpt lat="45.85012" lon="4.80754">
        <ele>462.8</ele>
        <time>2011-11-01T10:17:09Z</time>
      </trkpt>
      <trkpt lat="45.85006" lon="4.80749">
        <ele>465</ele>
        <time>2011-11-01T10:17:15Z</time>
      </trkpt>
      <trkpt lat="45.84999" lon="4.8074">
        <ele>468.2</ele>
        <time>2011-11-01T10:17:21Z</time>
      </trkpt>
      <trkpt lat="45.84998" lon="4.80739">
        <ele>468.6</ele>
        <time>2011-11-01T10:17:22Z</time>
      </trkpt>
      <trkpt lat="45.8499" lon="4.80733">
        <ele>472</ele>
        <time>2011-11-01T10:17:28Z</time>
      </trkpt>
      <trkpt lat="45.84981" lon="4.80728">
        <ele>474.6</ele>
        <time>2011-11-01T10:17:35Z</time>
      </trkpt>
      <trkpt lat="45.84977" lon="4.80724">
        <ele>476.4</ele>
        <time>2011-11-01T10:17:41Z</time>
      </trkpt>
      <trkpt lat="45.8498" lon="4.80726">
        <ele>477.8</ele>
        <time>2011-11-01T10:17:46Z</time>
      </trkpt>
      <trkpt lat="45.84985" lon="4.80731">
        <ele>478.8</ele>
        <time>2011-11-01T10:17:49Z</time>
      </trkpt>
      <trkpt lat="45.8499" lon="4.80734">
        <ele>479.2</ele>
        <time>2011-11-01T10:17:52Z</time>
      </trkpt>
      <trkpt lat="45.85001" lon="4.8074">
        <ele>480.8</ele>
        <time>2011-11-01T10:17:58Z</time>
      </trkpt>
      <trkpt lat="45.85009" lon="4.80746">
        <ele>481.6</ele>
        <time>2011-11-01T10:18:02Z</time>
      </trkpt>
      <trkpt lat="45.85017" lon="4.80752">
        <ele>482.4</ele>
        <time>2011-11-01T10:18:06Z</time>
      </trkpt>
      <trkpt lat="45.8502" lon="4.80754">
        <ele>482.6</ele>
        <time>2011-11-01T10:18:07Z</time>
      </trkpt>
      <trkpt lat="45.85029" lon="4.80763">
        <ele>482.8</ele>
        <time>2011-11-01T10:18:12Z</time>
      </trkpt>
      <trkpt lat="45.85035" lon="4.8077">
        <ele>482.8</ele>
        <time>2011-11-01T10:18:16Z</time>
      </trkpt>
      <trkpt lat="45.85037" lon="4.80772">
        <ele>482.6</ele>
        <time>2011-11-01T10:18:18Z</time>
      </trkpt>
      <trkpt lat="45.85035" lon="4.80771">
        <ele>482.6</ele>
        <time>2011-11-01T10:18:23Z</time>
      </trkpt>
      <trkpt lat="45.85033" lon="4.80769">
        <ele>482.6</ele>
        <time>2011-11-01T10:18:28Z</time>
      </trkpt>
      <trkpt lat="45.85032" lon="4.80768">
        <ele>482.6</ele>
        <time>2011-11-01T10:18:29Z</time>
      </trkpt>
      <trkpt lat="45.85026" lon="4.80767">
        <ele>482.4</ele>
        <time>2011-11-01T10:18:35Z</time>
      </trkpt>
      <trkpt lat="45.85025" lon="4.80768">
        <ele>482.4</ele>
        <time>2011-11-01T10:18:36Z</time>
      </trkpt>
      <trkpt lat="45.85019" lon="4.80763">
        <ele>482.2</ele>
        <time>2011-11-01T10:18:42Z</time>
      </trkpt>
      <trkpt lat="45.85014" lon="4.80759">
        <ele>481.6</ele>
        <time>2011-11-01T10:18:49Z</time>
      </trkpt>
      <trkpt lat="45.85008" lon="4.80754">
        <ele>481.2</ele>
        <time>2011-11-01T10:18:56Z</time>
      </trkpt>
      <trkpt lat="45.85007" lon="4.80753">
        <ele>481.2</ele>
        <time>2011-11-01T10:18:57Z</time>
      </trkpt>
      <trkpt lat="45.85003" lon="4.80749">
        <ele>480.8</ele>
        <time>2011-11-01T10:19:02Z</time>
      </trkpt>
      <trkpt lat="45.84999" lon="4.80744">
        <ele>480.8</ele>
        <time>2011-11-01T10:19:07Z</time>
      </trkpt>
      <trkpt lat="45.84997" lon="4.80742">
        <ele>480.6</ele>
        <time>2011-11-01T10:19:09Z</time>
      </trkpt>
      <trkpt lat="45.84993" lon="4.80739">
        <ele>480.6</ele>
        <time>2011-11-01T10:19:13Z</time>
      </trkpt>
      <trkpt lat="45.8499" lon="4.80738">
        <ele>480.6</ele>
        <time>2011-11-01T10:19:17Z</time>
      </trkpt>
      <trkpt lat="45.84984" lon="4.80734">
        <ele>480.4</ele>
        <time>2011-11-01T10:19:23Z</time>
      </trkpt>
      <trkpt lat="45.84981" lon="4.80729">
        <ele>480.4</ele>
        <time>2011-11-01T10:19:28Z</time>
      </trkpt>
      <trkpt lat="45.84977" lon="4.80726">
        <ele>480.8</ele>
        <time>2011-11-01T10:19:33Z</time>
      </trkpt>
      <trkpt lat="45.84976" lon="4.80726">
        <ele>481</ele>
        <time>2011-11-01T10:19:34Z</time>
      </trkpt>
      <trkpt lat="45.84973" lon="4.80726">
        <ele>481.4</ele>
        <time>2011-11-01T10:19:38Z</time>
      </trkpt>
      <trkpt lat="45.84971" lon="4.80723">
        <ele>481.4</ele>
        <time>2011-11-01T10:19:40Z</time>
      </trkpt>
      <trkpt lat="45.84965" lon="4.80719">
        <ele>482</ele>
        <time>2011-11-01T10:19:46Z</time>
      </trkpt>
      <trkpt lat="45.84965" lon="4.80718">
        <ele>483</ele>
        <time>2011-11-01T10:19:52Z</time>
      </trkpt>
      <trkpt lat="45.84964" lon="4.80715">
        <ele>483.8</ele>
        <time>2011-11-01T10:19:59Z</time>
      </trkpt>
      <trkpt lat="45.84963" lon="4.80712">
        <ele>484.2</ele>
        <time>2011-11-01T10:20:03Z</time>
      </trkpt>
      <trkpt lat="45.84961" lon="4.80707">
        <ele>484.6</ele>
        <time>2011-11-01T10:20:08Z</time>
      </trkpt>
      <trkpt lat="45.84962" lon="4.80705">
        <ele>484.6</ele>
        <time>2011-11-01T10:20:14Z</time>
      </trkpt>
      <trkpt lat="45.84961" lon="4.80704">
        <ele>484.6</ele>
        <time>2011-11-01T10:20:18Z</time>
      </trkpt>
      <trkpt lat="45.8496" lon="4.807">
        <ele>484.6</ele>
        <time>2011-11-01T10:20:21Z</time>
      </trkpt>
      <trkpt lat="45.84959" lon="4.80697">
        <ele>484.8</ele>
        <time>2011-11-01T10:20:23Z</time>
      </trkpt>
      <trkpt lat="45.84956" lon="4.80691">
        <ele>484.8</ele>
        <time>2011-11-01T10:20:27Z</time>
      </trkpt>
      <trkpt lat="45.84954" lon="4.80687">
        <ele>484.8</ele>
        <time>2011-11-01T10:20:30Z</time>
      </trkpt>
      <trkpt lat="45.84952" lon="4.80682">
        <ele>484.8</ele>
        <time>2011-11-01T10:20:33Z</time>
      </trkpt>
      <trkpt lat="45.84949" lon="4.8068">
        <ele>484.8</ele>
        <time>2011-11-01T10:20:35Z</time>
      </trkpt>
      <trkpt lat="45.84944" lon="4.80676">
        <ele>485</ele>
        <time>2011-11-01T10:20:39Z</time>
      </trkpt>
      <trkpt lat="45.84942" lon="4.80675">
        <ele>485</ele>
        <time>2011-11-01T10:20:40Z</time>
      </trkpt>
      <trkpt lat="45.84932" lon="4.80672">
        <ele>485.2</ele>
        <time>2011-11-01T10:20:44Z</time>
      </trkpt>
      <trkpt lat="45.8493" lon="4.80671">
        <ele>485.4</ele>
        <time>2011-11-01T10:20:45Z</time>
      </trkpt>
      <trkpt lat="45.84914" lon="4.80667">
        <ele>485.8</ele>
        <time>2011-11-01T10:20:52Z</time>
      </trkpt>
      <trkpt lat="45.84908" lon="4.80667">
        <ele>486</ele>
        <time>2011-11-01T10:20:54Z</time>
      </trkpt>
      <trkpt lat="45.84898" lon="4.80664">
        <ele>486.4</ele>
        <time>2011-11-01T10:20:58Z</time>
      </trkpt>
      <trkpt lat="45.84887" lon="4.80658">
        <ele>486.6</ele>
        <time>2011-11-01T10:21:03Z</time>
      </trkpt>
      <trkpt lat="45.84877" lon="4.80654">
        <ele>487</ele>
        <time>2011-11-01T10:21:08Z</time>
      </trkpt>
      <trkpt lat="45.84872" lon="4.80652">
        <ele>487.2</ele>
        <time>2011-11-01T10:21:10Z</time>
      </trkpt>
      <trkpt lat="45.84862" lon="4.80648">
        <ele>487.2</ele>
        <time>2011-11-01T10:21:15Z</time>
      </trkpt>
      <trkpt lat="45.84852" lon="4.80645">
        <ele>487.2</ele>
        <time>2011-11-01T10:21:20Z</time>
      </trkpt>
      <trkpt lat="45.84839" lon="4.80641">
        <ele>487.2</ele>
        <time>2011-11-01T10:21:26Z</time>
      </trkpt>
      <trkpt lat="45.84837" lon="4.8064">
        <ele>487.2</ele>
        <time>2011-11-01T10:21:27Z</time>
      </trkpt>
      <trkpt lat="45.84826" lon="4.80637">
        <ele>487</ele>
        <time>2011-11-01T10:21:32Z</time>
      </trkpt>
      <trkpt lat="45.84814" lon="4.80634">
        <ele>487</ele>
        <time>2011-11-01T10:21:37Z</time>
      </trkpt>
      <trkpt lat="45.84805" lon="4.80631">
        <ele>486.8</ele>
        <time>2011-11-01T10:21:42Z</time>
      </trkpt>
      <trkpt lat="45.84801" lon="4.8063">
        <ele>486.6</ele>
        <time>2011-11-01T10:21:44Z</time>
      </trkpt>
      <trkpt lat="45.84791" lon="4.80631">
        <ele>486.6</ele>
        <time>2011-11-01T10:21:48Z</time>
      </trkpt>
      <trkpt lat="45.84779" lon="4.80631">
        <ele>486.4</ele>
        <time>2011-11-01T10:21:53Z</time>
      </trkpt>
      <trkpt lat="45.84765" lon="4.80632">
        <ele>486.6</ele>
        <time>2011-11-01T10:21:59Z</time>
      </trkpt>
      <trkpt lat="45.84763" lon="4.80632">
        <ele>486.6</ele>
        <time>2011-11-01T10:22:00Z</time>
      </trkpt>
      <trkpt lat="45.84753" lon="4.80636">
        <ele>487.4</ele>
        <time>2011-11-01T10:22:04Z</time>
      </trkpt>
      <trkpt lat="45.84743" lon="4.80642">
        <ele>488.2</ele>
        <time>2011-11-01T10:22:09Z</time>
      </trkpt>
      <trkpt lat="45.84731" lon="4.80649">
        <ele>488.6</ele>
        <time>2011-11-01T10:22:14Z</time>
      </trkpt>
      <trkpt lat="45.84728" lon="4.8065">
        <ele>488.8</ele>
        <time>2011-11-01T10:22:15Z</time>
      </trkpt>
      <trkpt lat="45.84722" lon="4.80651">
        <ele>488.8</ele>
        <time>2011-11-01T10:22:18Z</time>
      </trkpt>
      <trkpt lat="45.84708" lon="4.80652">
        <ele>489.4</ele>
        <time>2011-11-01T10:22:24Z</time>
      </trkpt>
      <trkpt lat="45.84696" lon="4.80652">
        <ele>489.8</ele>
        <time>2011-11-01T10:22:29Z</time>
      </trkpt>
      <trkpt lat="45.84691" lon="4.80653">
        <ele>490.2</ele>
        <time>2011-11-01T10:22:31Z</time>
      </trkpt>
      <trkpt lat="45.84682" lon="4.80651">
        <ele>490.6</ele>
        <time>2011-11-01T10:22:36Z</time>
      </trkpt>
      <trkpt lat="45.84681" lon="4.8065">
        <ele>490.8</ele>
        <time>2011-11-01T10:22:37Z</time>
      </trkpt>
      <trkpt lat="45.84678" lon="4.80644">
        <ele>491.2</ele>
        <time>2011-11-01T10:22:41Z</time>
      </trkpt>
      <trkpt lat="45.84674" lon="4.80637">
        <ele>491.4</ele>
        <time>2011-11-01T10:22:44Z</time>
      </trkpt>
      <trkpt lat="45.84673" lon="4.80633">
        <ele>491.4</ele>
        <time>2011-11-01T10:22:45Z</time>
      </trkpt>
      <trkpt lat="45.84668" lon="4.80618">
        <ele>492</ele>
        <time>2011-11-01T10:22:50Z</time>
      </trkpt>
      <trkpt lat="45.84667" lon="4.80616">
        <ele>492.2</ele>
        <time>2011-11-01T10:22:51Z</time>
      </trkpt>
      <trkpt lat="45.84662" lon="4.806">
        <ele>493.8</ele>
        <time>2011-11-01T10:22:57Z</time>
      </trkpt>
      <trkpt lat="45.84656" lon="4.80587">
        <ele>494.8</ele>
        <time>2011-11-01T10:23:02Z</time>
      </trkpt>
      <trkpt lat="45.84651" lon="4.80573">
        <ele>496</ele>
        <time>2011-11-01T10:23:07Z</time>
      </trkpt>
      <trkpt lat="45.8465" lon="4.8057">
        <ele>496.2</ele>
        <time>2011-11-01T10:23:08Z</time>
      </trkpt>
      <trkpt lat="45.84644" lon="4.80559">
        <ele>497.4</ele>
        <time>2011-11-01T10:23:13Z</time>
      </trkpt>
      <trkpt lat="45.84638" lon="4.80545">
        <ele>498.8</ele>
        <time>2011-11-01T10:23:19Z</time>
      </trkpt>
      <trkpt lat="45.8463" lon="4.80529">
        <ele>500.6</ele>
        <time>2011-11-01T10:23:26Z</time>
      </trkpt>
      <trkpt lat="45.84624" lon="4.80513">
        <ele>502</ele>
        <time>2011-11-01T10:23:32Z</time>
      </trkpt>
      <trkpt lat="45.84617" lon="4.8049">
        <ele>503.4</ele>
        <time>2011-11-01T10:23:40Z</time>
      </trkpt>
      <trkpt lat="45.84614" lon="4.80481">
        <ele>504</ele>
        <time>2011-11-01T10:23:43Z</time>
      </trkpt>
      <trkpt lat="45.84609" lon="4.8047">
        <ele>504.6</ele>
        <time>2011-11-01T10:23:47Z</time>
      </trkpt>
      <trkpt lat="45.84603" lon="4.80455">
        <ele>505.6</ele>
        <time>2011-11-01T10:23:53Z</time>
      </trkpt>
      <trkpt lat="45.84597" lon="4.80444">
        <ele>506.2</ele>
        <time>2011-11-01T10:23:58Z</time>
      </trkpt>
      <trkpt lat="45.84593" lon="4.80438">
        <ele>506.6</ele>
        <time>2011-11-01T10:24:01Z</time>
      </trkpt>
      <trkpt lat="45.84591" lon="4.80433">
        <ele>506.8</ele>
        <time>2011-11-01T10:24:03Z</time>
      </trkpt>
      <trkpt lat="45.8459" lon="4.80425">
        <ele>507.2</ele>
        <time>2011-11-01T10:24:07Z</time>
      </trkpt>
      <trkpt lat="45.84589" lon="4.80411">
        <ele>508</ele>
        <time>2011-11-01T10:24:15Z</time>
      </trkpt>
      <trkpt lat="45.84589" lon="4.80394">
        <ele>509.2</ele>
        <time>2011-11-01T10:24:25Z</time>
      </trkpt>
      <trkpt lat="45.84589" lon="4.80385">
        <ele>510</ele>
        <time>2011-11-01T10:24:30Z</time>
      </trkpt>
      <trkpt lat="45.84588" lon="4.8038">
        <ele>510.4</ele>
        <time>2011-11-01T10:24:33Z</time>
      </trkpt>
      <trkpt lat="45.84587" lon="4.80375">
        <ele>510.8</ele>
        <time>2011-11-01T10:24:36Z</time>
      </trkpt>
      <trkpt lat="45.84586" lon="4.8037">
        <ele>511.2</ele>
        <time>2011-11-01T10:24:39Z</time>
      </trkpt>
      <trkpt lat="45.84586" lon="4.80368">
        <ele>511.4</ele>
        <time>2011-11-01T10:24:40Z</time>
      </trkpt>
      <trkpt lat="45.84583" lon="4.80352">
        <ele>512.8</ele>
        <time>2011-11-01T10:24:48Z</time>
      </trkpt>
      <trkpt lat="45.84579" lon="4.80335">
        <ele>514.6</ele>
        <time>2011-11-01T10:24:56Z</time>
      </trkpt>
      <trkpt lat="45.84578" lon="4.80333">
        <ele>514.8</ele>
        <time>2011-11-01T10:24:57Z</time>
      </trkpt>
      <trkpt lat="45.84569" lon="4.80317">
        <ele>517</ele>
        <time>2011-11-01T10:25:02Z</time>
      </trkpt>
      <trkpt lat="45.84557" lon="4.8031">
        <ele>518.8</ele>
        <time>2011-11-01T10:25:07Z</time>
      </trkpt>
      <trkpt lat="45.8455" lon="4.80306">
        <ele>520</ele>
        <time>2011-11-01T10:25:10Z</time>
      </trkpt>
      <trkpt lat="45.84544" lon="4.80301">
        <ele>521</ele>
        <time>2011-11-01T10:25:13Z</time>
      </trkpt>
      <trkpt lat="45.84543" lon="4.803">
        <ele>521.4</ele>
        <time>2011-11-01T10:25:14Z</time>
      </trkpt>
      <trkpt lat="45.84534" lon="4.80291">
        <ele>523.2</ele>
        <time>2011-11-01T10:25:20Z</time>
      </trkpt>
      <trkpt lat="45.8452" lon="4.80291">
        <ele>525</ele>
        <time>2011-11-01T10:25:26Z</time>
      </trkpt>
      <trkpt lat="45.84517" lon="4.80291">
        <ele>525.4</ele>
        <time>2011-11-01T10:25:27Z</time>
      </trkpt>
      <trkpt lat="45.84504" lon="4.80284">
        <ele>527.2</ele>
        <time>2011-11-01T10:25:33Z</time>
      </trkpt>
      <trkpt lat="45.84491" lon="4.80272">
        <ele>529</ele>
        <time>2011-11-01T10:25:39Z</time>
      </trkpt>
      <trkpt lat="45.84486" lon="4.80264">
        <ele>530</ele>
        <time>2011-11-01T10:25:42Z</time>
      </trkpt>
      <trkpt lat="45.84481" lon="4.80257">
        <ele>530.8</ele>
        <time>2011-11-01T10:25:45Z</time>
      </trkpt>
      <trkpt lat="45.84471" lon="4.80249">
        <ele>532.2</ele>
        <time>2011-11-01T10:25:50Z</time>
      </trkpt>
      <trkpt lat="45.84462" lon="4.80237">
        <ele>533.4</ele>
        <time>2011-11-01T10:25:55Z</time>
      </trkpt>
      <trkpt lat="45.84457" lon="4.8023">
        <ele>534</ele>
        <time>2011-11-01T10:25:58Z</time>
      </trkpt>
      <trkpt lat="45.84455" lon="4.80227">
        <ele>534.4</ele>
        <time>2011-11-01T10:25:59Z</time>
      </trkpt>
      <trkpt lat="45.84449" lon="4.80217">
        <ele>535.4</ele>
        <time>2011-11-01T10:26:03Z</time>
      </trkpt>
      <trkpt lat="45.84439" lon="4.80199">
        <ele>537.4</ele>
        <time>2011-11-01T10:26:10Z</time>
      </trkpt>
      <trkpt lat="45.84433" lon="4.80188">
        <ele>538.4</ele>
        <time>2011-11-01T10:26:14Z</time>
      </trkpt>
      <trkpt lat="45.84432" lon="4.80185">
        <ele>538.6</ele>
        <time>2011-11-01T10:26:15Z</time>
      </trkpt>
      <trkpt lat="45.84423" lon="4.80171">
        <ele>540.2</ele>
        <time>2011-11-01T10:26:21Z</time>
      </trkpt>
      <trkpt lat="45.84413" lon="4.80161">
        <ele>541.4</ele>
        <time>2011-11-01T10:26:26Z</time>
      </trkpt>
      <trkpt lat="45.84405" lon="4.80153">
        <ele>542.6</ele>
        <time>2011-11-01T10:26:30Z</time>
      </trkpt>
      <trkpt lat="45.84403" lon="4.80151">
        <ele>542.8</ele>
        <time>2011-11-01T10:26:31Z</time>
      </trkpt>
      <trkpt lat="45.8439" lon="4.80136">
        <ele>544.8</ele>
        <time>2011-11-01T10:26:38Z</time>
      </trkpt>
      <trkpt lat="45.84376" lon="4.80121">
        <ele>547</ele>
        <time>2011-11-01T10:26:45Z</time>
      </trkpt>
      <trkpt lat="45.84366" lon="4.80109">
        <ele>548.6</ele>
        <time>2011-11-01T10:26:50Z</time>
      </trkpt>
      <trkpt lat="45.84357" lon="4.80099">
        <ele>550</ele>
        <time>2011-11-01T10:26:55Z</time>
      </trkpt>
      <trkpt lat="45.8435" lon="4.80086">
        <ele>551.2</ele>
        <time>2011-11-01T10:27:00Z</time>
      </trkpt>
      <trkpt lat="45.84348" lon="4.80084">
        <ele>551.6</ele>
        <time>2011-11-01T10:27:01Z</time>
      </trkpt>
      <trkpt lat="45.84344" lon="4.80073">
        <ele>553</ele>
        <time>2011-11-01T10:27:06Z</time>
      </trkpt>
      <trkpt lat="45.8434" lon="4.80058">
        <ele>554.6</ele>
        <time>2011-11-01T10:27:12Z</time>
      </trkpt>
      <trkpt lat="45.84338" lon="4.80047">
        <ele>555.8</ele>
        <time>2011-11-01T10:27:17Z</time>
      </trkpt>
      <trkpt lat="45.84336" lon="4.80034">
        <ele>557.4</ele>
        <time>2011-11-01T10:27:22Z</time>
      </trkpt>
      <trkpt lat="45.84335" lon="4.80031">
        <ele>557.6</ele>
        <time>2011-11-01T10:27:23Z</time>
      </trkpt>
      <trkpt lat="45.84331" lon="4.80021">
        <ele>558.8</ele>
        <time>2011-11-01T10:27:27Z</time>
      </trkpt>
      <trkpt lat="45.8433" lon="4.80019">
        <ele>559</ele>
        <time>2011-11-01T10:27:28Z</time>
      </trkpt>
      <trkpt lat="45.84324" lon="4.80006">
        <ele>560.8</ele>
        <time>2011-11-01T10:27:33Z</time>
      </trkpt>
      <trkpt lat="45.84315" lon="4.79989">
        <ele>563.8</ele>
        <time>2011-11-01T10:27:40Z</time>
      </trkpt>
      <trkpt lat="45.84306" lon="4.79974">
        <ele>566.4</ele>
        <time>2011-11-01T10:27:46Z</time>
      </trkpt>
      <trkpt lat="45.84299" lon="4.79957">
        <ele>569.4</ele>
        <time>2011-11-01T10:27:53Z</time>
      </trkpt>
      <trkpt lat="45.84294" lon="4.79947">
        <ele>571.2</ele>
        <time>2011-11-01T10:27:57Z</time>
      </trkpt>
      <trkpt lat="45.8429" lon="4.7994">
        <ele>572.4</ele>
        <time>2011-11-01T10:28:00Z</time>
      </trkpt>
      <trkpt lat="45.84281" lon="4.79927">
        <ele>575</ele>
        <time>2011-11-01T10:28:06Z</time>
      </trkpt>
      <trkpt lat="45.84269" lon="4.79916">
        <ele>577.2</ele>
        <time>2011-11-01T10:28:12Z</time>
      </trkpt>
      <trkpt lat="45.84265" lon="4.79912">
        <ele>577.8</ele>
        <time>2011-11-01T10:28:14Z</time>
      </trkpt>
      <trkpt lat="45.84259" lon="4.79904">
        <ele>579.2</ele>
        <time>2011-11-01T10:28:18Z</time>
      </trkpt>
      <trkpt lat="45.84245" lon="4.79887">
        <ele>581.8</ele>
        <time>2011-11-01T10:28:26Z</time>
      </trkpt>
      <trkpt lat="45.84239" lon="4.79878">
        <ele>583.2</ele>
        <time>2011-11-01T10:28:30Z</time>
      </trkpt>
      <trkpt lat="45.84235" lon="4.79874">
        <ele>583.8</ele>
        <time>2011-11-01T10:28:32Z</time>
      </trkpt>
      <trkpt lat="45.84228" lon="4.79862">
        <ele>585.4</ele>
        <time>2011-11-01T10:28:37Z</time>
      </trkpt>
      <trkpt lat="45.84222" lon="4.79843">
        <ele>587.4</ele>
        <time>2011-11-01T10:28:43Z</time>
      </trkpt>
      <trkpt lat="45.84221" lon="4.79832">
        <ele>588.4</ele>
        <time>2011-11-01T10:28:46Z</time>
      </trkpt>
      <trkpt lat="45.84218" lon="4.79819">
        <ele>589.6</ele>
        <time>2011-11-01T10:28:50Z</time>
      </trkpt>
    </trkseg>
  </trk>
</gpx>